<?xml version="1.0" encoding="UTF-8" standalone="no" ?>
<gpx xmlns="http://www.topografix.com/GPX/1/1" xmlns:xsi="http://www.w3.org/2001/XMLSchema-instance" xsi:schemaLocation="http://www.topografix.com/GPX/1/1 http://www.topografix.com/GPX/1/1/gpx.xsd" version="1.1" creator="VisuGPX - https://www.visugpx.com">
  <metadata>
    <name>Pascal Duquenne Classic 65 kms</name>
  </metadata>
  <wpt lat="50.62993" lon="3.54952">
    <ele>79.7</ele>
    <name><![CDATA[Ravito]]></name>
    <type><![CDATA[FOOD]]></type>
  </wpt>
  <trk>
    <name><![CDATA[Pascal Duquenne Classic 65 kms]]></name>
    <trkseg>
      <trkpt lat="50.546" lon="3.33987">
        <ele>60.23</ele>
        <time>2023-05-19T11:32:48.000Z</time>
      </trkpt>
      <trkpt lat="50.5463" lon="3.34006">
        <ele>60.52</ele>
        <time>2023-05-19T11:32:48.005Z</time>
      </trkpt>
      <trkpt lat="50.54665" lon="3.34027">
        <ele>60.3</ele>
        <time>2023-05-19T11:32:48.016Z</time>
      </trkpt>
      <trkpt lat="50.54678" lon="3.34035">
        <ele>59.76</ele>
        <time>2023-05-19T11:32:48.029Z</time>
      </trkpt>
      <trkpt lat="50.54703" lon="3.34047">
        <ele>61.06</ele>
        <time>2023-05-19T11:32:48.047Z</time>
      </trkpt>
      <trkpt lat="50.54734" lon="3.34061">
        <ele>61.08</ele>
        <time>2023-05-19T11:32:48.070Z</time>
      </trkpt>
      <trkpt lat="50.54765" lon="3.34081">
        <ele>61.14</ele>
        <time>2023-05-19T11:32:48.098Z</time>
      </trkpt>
      <trkpt lat="50.54787" lon="3.34095">
        <ele>61.13</ele>
        <time>2023-05-19T11:32:48.130Z</time>
      </trkpt>
      <trkpt lat="50.54822" lon="3.34122">
        <ele>61.02</ele>
        <time>2023-05-19T11:32:48.168Z</time>
      </trkpt>
      <trkpt lat="50.54835" lon="3.34127">
        <ele>60.95</ele>
        <time>2023-05-19T11:32:48.208Z</time>
      </trkpt>
      <trkpt lat="50.54854" lon="3.34131">
        <ele>60.8</ele>
        <time>2023-05-19T11:32:48.251Z</time>
      </trkpt>
      <trkpt lat="50.54884" lon="3.34136">
        <ele>60.7</ele>
        <time>2023-05-19T11:32:48.299Z</time>
      </trkpt>
      <trkpt lat="50.54906" lon="3.34146">
        <ele>60.74</ele>
        <time>2023-05-19T11:32:48.351Z</time>
      </trkpt>
      <trkpt lat="50.54929" lon="3.34157">
        <ele>60.78</ele>
        <time>2023-05-19T11:32:48.407Z</time>
      </trkpt>
      <trkpt lat="50.54932" lon="3.34158">
        <ele>60.77</ele>
        <time>2023-05-19T11:32:48.463Z</time>
      </trkpt>
      <trkpt lat="50.54946" lon="3.34164">
        <ele>60.75</ele>
        <time>2023-05-19T11:32:48.522Z</time>
      </trkpt>
      <trkpt lat="50.5496" lon="3.34169">
        <ele>60.7</ele>
        <time>2023-05-19T11:32:48.583Z</time>
      </trkpt>
      <trkpt lat="50.54971" lon="3.34173">
        <ele>60.66</ele>
        <time>2023-05-19T11:32:48.646Z</time>
      </trkpt>
      <trkpt lat="50.54982" lon="3.34177">
        <ele>60.61</ele>
        <time>2023-05-19T11:32:48.711Z</time>
      </trkpt>
      <trkpt lat="50.54991" lon="3.34175">
        <ele>60.6</ele>
        <time>2023-05-19T11:32:48.777Z</time>
      </trkpt>
      <trkpt lat="50.54994" lon="3.34177">
        <ele>60.56</ele>
        <time>2023-05-19T11:32:48.843Z</time>
      </trkpt>
      <trkpt lat="50.54998" lon="3.34176">
        <ele>60.52</ele>
        <time>2023-05-19T11:32:48.910Z</time>
      </trkpt>
      <trkpt lat="50.55016" lon="3.34193">
        <ele>60.39</ele>
        <time>2023-05-19T11:32:48.980Z</time>
      </trkpt>
      <trkpt lat="50.55072" lon="3.3433">
        <ele>60.44</ele>
        <time>2023-05-19T11:32:49.067Z</time>
      </trkpt>
      <trkpt lat="50.55104" lon="3.34381">
        <ele>60.11</ele>
        <time>2023-05-19T11:32:49.161Z</time>
      </trkpt>
      <trkpt lat="50.55127" lon="3.34429">
        <ele>59.73</ele>
        <time>2023-05-19T11:32:49.261Z</time>
      </trkpt>
      <trkpt lat="50.55157" lon="3.34526">
        <ele>59.79</ele>
        <time>2023-05-19T11:32:49.372Z</time>
      </trkpt>
      <trkpt lat="50.55157" lon="3.34525">
        <ele>59.79</ele>
        <time>2023-05-19T11:32:49.483Z</time>
      </trkpt>
      <trkpt lat="50.55157" lon="3.34525">
        <ele>59.79</ele>
        <time>2023-05-19T11:32:49.595Z</time>
      </trkpt>
      <trkpt lat="50.55157" lon="3.34525">
        <ele>59.79</ele>
        <time>2023-05-19T11:32:49.707Z</time>
      </trkpt>
      <trkpt lat="50.55157" lon="3.34525">
        <ele>59.82</ele>
        <time>2023-05-19T11:32:49.819Z</time>
      </trkpt>
      <trkpt lat="50.55157" lon="3.34525">
        <ele>59.82</ele>
        <time>2023-05-19T11:32:49.931Z</time>
      </trkpt>
      <trkpt lat="50.55157" lon="3.34525">
        <ele>59.82</ele>
        <time>2023-05-19T11:32:50.043Z</time>
      </trkpt>
      <trkpt lat="50.55157" lon="3.34524">
        <ele>59.83</ele>
        <time>2023-05-19T11:32:50.155Z</time>
      </trkpt>
      <trkpt lat="50.55182" lon="3.34606">
        <ele>59.8</ele>
        <time>2023-05-19T11:32:50.276Z</time>
      </trkpt>
      <trkpt lat="50.55214" lon="3.34716">
        <ele>59.96</ele>
        <time>2023-05-19T11:32:50.409Z</time>
      </trkpt>
      <trkpt lat="50.55224" lon="3.34741">
        <ele>59.88</ele>
        <time>2023-05-19T11:32:50.545Z</time>
      </trkpt>
      <trkpt lat="50.55228" lon="3.3475">
        <ele>59.65</ele>
        <time>2023-05-19T11:32:50.682Z</time>
      </trkpt>
      <trkpt lat="50.55234" lon="3.34759">
        <ele>59.29</ele>
        <time>2023-05-19T11:32:50.821Z</time>
      </trkpt>
      <trkpt lat="50.55268" lon="3.3479">
        <ele>58.77</ele>
        <time>2023-05-19T11:32:50.966Z</time>
      </trkpt>
      <trkpt lat="50.55307" lon="3.34833">
        <ele>58.26</ele>
        <time>2023-05-19T11:32:51.119Z</time>
      </trkpt>
      <trkpt lat="50.55317" lon="3.3482">
        <ele>57.66</ele>
        <time>2023-05-19T11:32:51.274Z</time>
      </trkpt>
      <trkpt lat="50.55358" lon="3.34795">
        <ele>56.77</ele>
        <time>2023-05-19T11:32:51.436Z</time>
      </trkpt>
      <trkpt lat="50.55365" lon="3.34793">
        <ele>56.02</ele>
        <time>2023-05-19T11:32:51.599Z</time>
      </trkpt>
      <trkpt lat="50.55414" lon="3.34794">
        <ele>54.96</ele>
        <time>2023-05-19T11:32:51.770Z</time>
      </trkpt>
      <trkpt lat="50.55444" lon="3.34787">
        <ele>54.13</ele>
        <time>2023-05-19T11:32:51.946Z</time>
      </trkpt>
      <trkpt lat="50.55446" lon="3.34789">
        <ele>53.52</ele>
        <time>2023-05-19T11:32:52.122Z</time>
      </trkpt>
      <trkpt lat="50.55461" lon="3.34783">
        <ele>53.02</ele>
        <time>2023-05-19T11:32:52.300Z</time>
      </trkpt>
      <trkpt lat="50.55461" lon="3.34783">
        <ele>52.62</ele>
        <time>2023-05-19T11:32:52.478Z</time>
      </trkpt>
      <trkpt lat="50.55513" lon="3.3476">
        <ele>52.24</ele>
        <time>2023-05-19T11:32:52.665Z</time>
      </trkpt>
      <trkpt lat="50.55521" lon="3.34761">
        <ele>51.99</ele>
        <time>2023-05-19T11:32:52.853Z</time>
      </trkpt>
      <trkpt lat="50.55527" lon="3.34765">
        <ele>51.81</ele>
        <time>2023-05-19T11:32:53.042Z</time>
      </trkpt>
      <trkpt lat="50.55534" lon="3.34776">
        <ele>51.74</ele>
        <time>2023-05-19T11:32:53.233Z</time>
      </trkpt>
      <trkpt lat="50.55539" lon="3.34803">
        <ele>51.75</ele>
        <time>2023-05-19T11:32:53.427Z</time>
      </trkpt>
      <trkpt lat="50.55548" lon="3.34877">
        <ele>51.75</ele>
        <time>2023-05-19T11:32:53.629Z</time>
      </trkpt>
      <trkpt lat="50.55551" lon="3.34888">
        <ele>51.84</ele>
        <time>2023-05-19T11:32:53.832Z</time>
      </trkpt>
      <trkpt lat="50.55555" lon="3.34897">
        <ele>51.98</ele>
        <time>2023-05-19T11:32:54.036Z</time>
      </trkpt>
      <trkpt lat="50.55562" lon="3.34906">
        <ele>52.18</ele>
        <time>2023-05-19T11:32:54.241Z</time>
      </trkpt>
      <trkpt lat="50.55576" lon="3.34915">
        <ele>52.43</ele>
        <time>2023-05-19T11:32:54.449Z</time>
      </trkpt>
      <trkpt lat="50.55583" lon="3.34921">
        <ele>52.5</ele>
        <time>2023-05-19T11:32:54.658Z</time>
      </trkpt>
      <trkpt lat="50.55628" lon="3.34924">
        <ele>52.29</ele>
        <time>2023-05-19T11:32:54.874Z</time>
      </trkpt>
      <trkpt lat="50.55697" lon="3.34946">
        <ele>52.05</ele>
        <time>2023-05-19T11:32:55.102Z</time>
      </trkpt>
      <trkpt lat="50.55697" lon="3.34946">
        <ele>52.06</ele>
        <time>2023-05-19T11:32:55.330Z</time>
      </trkpt>
      <trkpt lat="50.55744" lon="3.3496">
        <ele>50.1</ele>
        <time>2023-05-19T11:32:55.565Z</time>
      </trkpt>
      <trkpt lat="50.55745" lon="3.3496">
        <ele>50.09</ele>
        <time>2023-05-19T11:32:55.800Z</time>
      </trkpt>
      <trkpt lat="50.55745" lon="3.3496">
        <ele>50.08</ele>
        <time>2023-05-19T11:32:56.035Z</time>
      </trkpt>
      <trkpt lat="50.55745" lon="3.3496">
        <ele>50.08</ele>
        <time>2023-05-19T11:32:56.270Z</time>
      </trkpt>
      <trkpt lat="50.55745" lon="3.3496">
        <ele>50.08</ele>
        <time>2023-05-19T11:32:56.505Z</time>
      </trkpt>
      <trkpt lat="50.55745" lon="3.3496">
        <ele>50.08</ele>
        <time>2023-05-19T11:32:56.740Z</time>
      </trkpt>
      <trkpt lat="50.55881" lon="3.34999">
        <ele>48.28</ele>
        <time>2023-05-19T11:32:56.998Z</time>
      </trkpt>
      <trkpt lat="50.55892" lon="3.35006">
        <ele>47.75</ele>
        <time>2023-05-19T11:32:57.257Z</time>
      </trkpt>
      <trkpt lat="50.55908" lon="3.35018">
        <ele>47.58</ele>
        <time>2023-05-19T11:32:57.519Z</time>
      </trkpt>
      <trkpt lat="50.55921" lon="3.35037">
        <ele>47.66</ele>
        <time>2023-05-19T11:32:57.784Z</time>
      </trkpt>
      <trkpt lat="50.55917" lon="3.35057">
        <ele>47.98</ele>
        <time>2023-05-19T11:32:58.051Z</time>
      </trkpt>
      <trkpt lat="50.55905" lon="3.35167">
        <ele>48.74</ele>
        <time>2023-05-19T11:32:58.330Z</time>
      </trkpt>
      <trkpt lat="50.55896" lon="3.35226">
        <ele>49.71</ele>
        <time>2023-05-19T11:32:58.615Z</time>
      </trkpt>
      <trkpt lat="50.55888" lon="3.35289">
        <ele>50.9</ele>
        <time>2023-05-19T11:32:58.906Z</time>
      </trkpt>
      <trkpt lat="50.5588" lon="3.35367">
        <ele>52.19</ele>
        <time>2023-05-19T11:32:59.205Z</time>
      </trkpt>
      <trkpt lat="50.55876" lon="3.35462">
        <ele>53.91</ele>
        <time>2023-05-19T11:32:59.514Z</time>
      </trkpt>
      <trkpt lat="50.55879" lon="3.35799">
        <ele>57.3</ele>
        <time>2023-05-19T11:32:59.858Z</time>
      </trkpt>
      <trkpt lat="50.55883" lon="3.359">
        <ele>61.74</ele>
        <time>2023-05-19T11:33:00.212Z</time>
      </trkpt>
      <trkpt lat="50.55883" lon="3.359">
        <ele>61.75</ele>
        <time>2023-05-19T11:33:00.566Z</time>
      </trkpt>
      <trkpt lat="50.55883" lon="3.359">
        <ele>61.76</ele>
        <time>2023-05-19T11:33:00.920Z</time>
      </trkpt>
      <trkpt lat="50.55883" lon="3.359">
        <ele>61.76</ele>
        <time>2023-05-19T11:33:01.274Z</time>
      </trkpt>
      <trkpt lat="50.55883" lon="3.359">
        <ele>61.84</ele>
        <time>2023-05-19T11:33:01.628Z</time>
      </trkpt>
      <trkpt lat="50.55883" lon="3.359">
        <ele>61.84</ele>
        <time>2023-05-19T11:33:01.982Z</time>
      </trkpt>
      <trkpt lat="50.55883" lon="3.359">
        <ele>61.85</ele>
        <time>2023-05-19T11:33:02.336Z</time>
      </trkpt>
      <trkpt lat="50.55883" lon="3.35899">
        <ele>61.85</ele>
        <time>2023-05-19T11:33:02.690Z</time>
      </trkpt>
      <trkpt lat="50.55883" lon="3.359">
        <ele>61.89</ele>
        <time>2023-05-19T11:33:03.044Z</time>
      </trkpt>
      <trkpt lat="50.55883" lon="3.35899">
        <ele>61.9</ele>
        <time>2023-05-19T11:33:03.398Z</time>
      </trkpt>
      <trkpt lat="50.55888" lon="3.36021">
        <ele>63.11</ele>
        <time>2023-05-19T11:33:03.765Z</time>
      </trkpt>
      <trkpt lat="50.55893" lon="3.36112">
        <ele>63.98</ele>
        <time>2023-05-19T11:33:04.141Z</time>
      </trkpt>
      <trkpt lat="50.55895" lon="3.36179">
        <ele>64.63</ele>
        <time>2023-05-19T11:33:04.524Z</time>
      </trkpt>
      <trkpt lat="50.55892" lon="3.36207">
        <ele>65.04</ele>
        <time>2023-05-19T11:33:04.910Z</time>
      </trkpt>
      <trkpt lat="50.55887" lon="3.36239">
        <ele>65.36</ele>
        <time>2023-05-19T11:33:05.299Z</time>
      </trkpt>
      <trkpt lat="50.55828" lon="3.36467">
        <ele>66.07</ele>
        <time>2023-05-19T11:33:05.713Z</time>
      </trkpt>
      <trkpt lat="50.55774" lon="3.36646">
        <ele>65.98</ele>
        <time>2023-05-19T11:33:06.147Z</time>
      </trkpt>
      <trkpt lat="50.55771" lon="3.36663">
        <ele>65.91</ele>
        <time>2023-05-19T11:33:06.583Z</time>
      </trkpt>
      <trkpt lat="50.55773" lon="3.36684">
        <ele>66.16</ele>
        <time>2023-05-19T11:33:07.021Z</time>
      </trkpt>
      <trkpt lat="50.55779" lon="3.36697">
        <ele>66.56</ele>
        <time>2023-05-19T11:33:07.461Z</time>
      </trkpt>
      <trkpt lat="50.55874" lon="3.36834">
        <ele>67.5</ele>
        <time>2023-05-19T11:33:07.922Z</time>
      </trkpt>
      <trkpt lat="50.55882" lon="3.36841">
        <ele>67.85</ele>
        <time>2023-05-19T11:33:08.384Z</time>
      </trkpt>
      <trkpt lat="50.55894" lon="3.36844">
        <ele>68.13</ele>
        <time>2023-05-19T11:33:08.848Z</time>
      </trkpt>
      <trkpt lat="50.559" lon="3.36848">
        <ele>68.19</ele>
        <time>2023-05-19T11:33:09.313Z</time>
      </trkpt>
      <trkpt lat="50.55908" lon="3.36848">
        <ele>68.06</ele>
        <time>2023-05-19T11:33:09.779Z</time>
      </trkpt>
      <trkpt lat="50.55917" lon="3.36852">
        <ele>67.52</ele>
        <time>2023-05-19T11:33:10.247Z</time>
      </trkpt>
      <trkpt lat="50.56145" lon="3.37169">
        <ele>65.53</ele>
        <time>2023-05-19T11:33:10.764Z</time>
      </trkpt>
      <trkpt lat="50.56145" lon="3.37169">
        <ele>65.53</ele>
        <time>2023-05-19T11:33:11.281Z</time>
      </trkpt>
      <trkpt lat="50.56145" lon="3.37169">
        <ele>65.53</ele>
        <time>2023-05-19T11:33:11.798Z</time>
      </trkpt>
      <trkpt lat="50.56145" lon="3.3717">
        <ele>65.53</ele>
        <time>2023-05-19T11:33:12.315Z</time>
      </trkpt>
      <trkpt lat="50.56145" lon="3.3717">
        <ele>65.53</ele>
        <time>2023-05-19T11:33:12.832Z</time>
      </trkpt>
      <trkpt lat="50.56145" lon="3.3717">
        <ele>65.53</ele>
        <time>2023-05-19T11:33:13.349Z</time>
      </trkpt>
      <trkpt lat="50.56145" lon="3.3717">
        <ele>65.53</ele>
        <time>2023-05-19T11:33:13.866Z</time>
      </trkpt>
      <trkpt lat="50.56187" lon="3.37229">
        <ele>65.44</ele>
        <time>2023-05-19T11:33:14.392Z</time>
      </trkpt>
      <trkpt lat="50.56199" lon="3.3725">
        <ele>65.44</ele>
        <time>2023-05-19T11:33:14.921Z</time>
      </trkpt>
      <trkpt lat="50.56206" lon="3.3727">
        <ele>65.62</ele>
        <time>2023-05-19T11:33:15.452Z</time>
      </trkpt>
      <trkpt lat="50.56213" lon="3.37334">
        <ele>65.63</ele>
        <time>2023-05-19T11:33:15.990Z</time>
      </trkpt>
      <trkpt lat="50.56216" lon="3.37349">
        <ele>65.23</ele>
        <time>2023-05-19T11:33:16.529Z</time>
      </trkpt>
      <trkpt lat="50.56221" lon="3.37356">
        <ele>64.48</ele>
        <time>2023-05-19T11:33:17.070Z</time>
      </trkpt>
      <trkpt lat="50.56239" lon="3.37368">
        <ele>63.39</ele>
        <time>2023-05-19T11:33:17.614Z</time>
      </trkpt>
      <trkpt lat="50.56193" lon="3.37455">
        <ele>61.83</ele>
        <time>2023-05-19T11:33:18.169Z</time>
      </trkpt>
      <trkpt lat="50.56126" lon="3.37544">
        <ele>59.03</ele>
        <time>2023-05-19T11:33:18.738Z</time>
      </trkpt>
      <trkpt lat="50.55896" lon="3.37821">
        <ele>54.99</ele>
        <time>2023-05-19T11:33:19.354Z</time>
      </trkpt>
      <trkpt lat="50.55869" lon="3.37866">
        <ele>52.51</ele>
        <time>2023-05-19T11:33:19.976Z</time>
      </trkpt>
      <trkpt lat="50.5584" lon="3.37928">
        <ele>50.28</ele>
        <time>2023-05-19T11:33:20.606Z</time>
      </trkpt>
      <trkpt lat="50.55812" lon="3.37998">
        <ele>48.34</ele>
        <time>2023-05-19T11:33:21.244Z</time>
      </trkpt>
      <trkpt lat="50.55776" lon="3.38065">
        <ele>46.18</ele>
        <time>2023-05-19T11:33:21.891Z</time>
      </trkpt>
      <trkpt lat="50.55737" lon="3.38139">
        <ele>44.64</ele>
        <time>2023-05-19T11:33:22.548Z</time>
      </trkpt>
      <trkpt lat="50.5568" lon="3.38243">
        <ele>43.27</ele>
        <time>2023-05-19T11:33:23.219Z</time>
      </trkpt>
      <trkpt lat="50.55646" lon="3.38302">
        <ele>42.39</ele>
        <time>2023-05-19T11:33:23.898Z</time>
      </trkpt>
      <trkpt lat="50.5564" lon="3.38314">
        <ele>42.07</ele>
        <time>2023-05-19T11:33:24.579Z</time>
      </trkpt>
      <trkpt lat="50.5564" lon="3.38314">
        <ele>42.07</ele>
        <time>2023-05-19T11:33:25.260Z</time>
      </trkpt>
      <trkpt lat="50.5564" lon="3.38314">
        <ele>42.07</ele>
        <time>2023-05-19T11:33:25.941Z</time>
      </trkpt>
      <trkpt lat="50.5564" lon="3.38314">
        <ele>42.07</ele>
        <time>2023-05-19T11:33:26.622Z</time>
      </trkpt>
      <trkpt lat="50.5564" lon="3.38314">
        <ele>42.07</ele>
        <time>2023-05-19T11:33:27.303Z</time>
      </trkpt>
      <trkpt lat="50.5564" lon="3.38316">
        <ele>42.03</ele>
        <time>2023-05-19T11:33:27.984Z</time>
      </trkpt>
      <trkpt lat="50.5564" lon="3.38316">
        <ele>42.03</ele>
        <time>2023-05-19T11:33:28.665Z</time>
      </trkpt>
      <trkpt lat="50.5564" lon="3.38316">
        <ele>42.26</ele>
        <time>2023-05-19T11:33:29.346Z</time>
      </trkpt>
      <trkpt lat="50.55624" lon="3.38348">
        <ele>41.47</ele>
        <time>2023-05-19T11:33:30.031Z</time>
      </trkpt>
      <trkpt lat="50.55624" lon="3.38348">
        <ele>40.73</ele>
        <time>2023-05-19T11:33:30.716Z</time>
      </trkpt>
      <trkpt lat="50.55594" lon="3.3841">
        <ele>39.28</ele>
        <time>2023-05-19T11:33:31.409Z</time>
      </trkpt>
      <trkpt lat="50.55503" lon="3.38637">
        <ele>37.84</ele>
        <time>2023-05-19T11:33:32.129Z</time>
      </trkpt>
      <trkpt lat="50.55461" lon="3.38747">
        <ele>37.03</ele>
        <time>2023-05-19T11:33:32.862Z</time>
      </trkpt>
      <trkpt lat="50.55355" lon="3.38973">
        <ele>35.97</ele>
        <time>2023-05-19T11:33:33.624Z</time>
      </trkpt>
      <trkpt lat="50.55343" lon="3.38997">
        <ele>35.25</ele>
        <time>2023-05-19T11:33:34.389Z</time>
      </trkpt>
      <trkpt lat="50.5534" lon="3.39007">
        <ele>34.69</ele>
        <time>2023-05-19T11:33:35.155Z</time>
      </trkpt>
      <trkpt lat="50.55337" lon="3.39011">
        <ele>34.22</ele>
        <time>2023-05-19T11:33:35.922Z</time>
      </trkpt>
      <trkpt lat="50.55326" lon="3.3903">
        <ele>33.72</ele>
        <time>2023-05-19T11:33:36.691Z</time>
      </trkpt>
      <trkpt lat="50.55317" lon="3.39038">
        <ele>33.3</ele>
        <time>2023-05-19T11:33:37.462Z</time>
      </trkpt>
      <trkpt lat="50.55312" lon="3.39036">
        <ele>33.02</ele>
        <time>2023-05-19T11:33:38.234Z</time>
      </trkpt>
      <trkpt lat="50.55307" lon="3.3904">
        <ele>32.85</ele>
        <time>2023-05-19T11:33:39.007Z</time>
      </trkpt>
      <trkpt lat="50.55306" lon="3.39051">
        <ele>32.86</ele>
        <time>2023-05-19T11:33:39.781Z</time>
      </trkpt>
      <trkpt lat="50.55311" lon="3.39058">
        <ele>33.06</ele>
        <time>2023-05-19T11:33:40.556Z</time>
      </trkpt>
      <trkpt lat="50.55307" lon="3.39087">
        <ele>33.4</ele>
        <time>2023-05-19T11:33:41.334Z</time>
      </trkpt>
      <trkpt lat="50.55257" lon="3.39262">
        <ele>34.12</ele>
        <time>2023-05-19T11:33:42.131Z</time>
      </trkpt>
      <trkpt lat="50.55243" lon="3.39295">
        <ele>35.07</ele>
        <time>2023-05-19T11:33:42.933Z</time>
      </trkpt>
      <trkpt lat="50.55107" lon="3.3951">
        <ele>35.69</ele>
        <time>2023-05-19T11:33:43.765Z</time>
      </trkpt>
      <trkpt lat="50.55107" lon="3.3951">
        <ele>35.69</ele>
        <time>2023-05-19T11:33:44.598Z</time>
      </trkpt>
      <trkpt lat="50.55107" lon="3.3951">
        <ele>35.7</ele>
        <time>2023-05-19T11:33:45.431Z</time>
      </trkpt>
      <trkpt lat="50.55107" lon="3.39509">
        <ele>35.7</ele>
        <time>2023-05-19T11:33:46.264Z</time>
      </trkpt>
      <trkpt lat="50.55107" lon="3.39509">
        <ele>35.71</ele>
        <time>2023-05-19T11:33:47.097Z</time>
      </trkpt>
      <trkpt lat="50.55107" lon="3.3951">
        <ele>35.72</ele>
        <time>2023-05-19T11:33:47.930Z</time>
      </trkpt>
      <trkpt lat="50.55106" lon="3.39511">
        <ele>35.73</ele>
        <time>2023-05-19T11:33:48.763Z</time>
      </trkpt>
      <trkpt lat="50.55107" lon="3.39511">
        <ele>35.74</ele>
        <time>2023-05-19T11:33:49.596Z</time>
      </trkpt>
      <trkpt lat="50.55058" lon="3.39587">
        <ele>35.16</ele>
        <time>2023-05-19T11:33:50.440Z</time>
      </trkpt>
      <trkpt lat="50.55043" lon="3.39618">
        <ele>34.7</ele>
        <time>2023-05-19T11:33:51.288Z</time>
      </trkpt>
      <trkpt lat="50.55031" lon="3.3965">
        <ele>34.52</ele>
        <time>2023-05-19T11:33:52.140Z</time>
      </trkpt>
      <trkpt lat="50.55017" lon="3.39699">
        <ele>34.35</ele>
        <time>2023-05-19T11:33:52.997Z</time>
      </trkpt>
      <trkpt lat="50.55012" lon="3.39719">
        <ele>34.2</ele>
        <time>2023-05-19T11:33:53.856Z</time>
      </trkpt>
      <trkpt lat="50.55149" lon="3.39847">
        <ele>33.96</ele>
        <time>2023-05-19T11:33:54.741Z</time>
      </trkpt>
      <trkpt lat="50.55351" lon="3.40034">
        <ele>33.46</ele>
        <time>2023-05-19T11:33:55.663Z</time>
      </trkpt>
      <trkpt lat="50.55372" lon="3.40064">
        <ele>33.41</ele>
        <time>2023-05-19T11:33:56.590Z</time>
      </trkpt>
      <trkpt lat="50.55396" lon="3.40037">
        <ele>33.6</ele>
        <time>2023-05-19T11:33:57.522Z</time>
      </trkpt>
      <trkpt lat="50.55413" lon="3.40037">
        <ele>33.85</ele>
        <time>2023-05-19T11:33:58.456Z</time>
      </trkpt>
      <trkpt lat="50.55516" lon="3.40117">
        <ele>35.13</ele>
        <time>2023-05-19T11:33:59.409Z</time>
      </trkpt>
      <trkpt lat="50.55533" lon="3.40141">
        <ele>35.41</ele>
        <time>2023-05-19T11:34:00.365Z</time>
      </trkpt>
      <trkpt lat="50.55519" lon="3.40172">
        <ele>35.19</ele>
        <time>2023-05-19T11:34:01.325Z</time>
      </trkpt>
      <trkpt lat="50.55477" lon="3.40283">
        <ele>34.36</ele>
        <time>2023-05-19T11:34:02.299Z</time>
      </trkpt>
      <trkpt lat="50.55454" lon="3.40384">
        <ele>33.21</ele>
        <time>2023-05-19T11:34:03.283Z</time>
      </trkpt>
      <trkpt lat="50.55438" lon="3.40459">
        <ele>32.15</ele>
        <time>2023-05-19T11:34:04.276Z</time>
      </trkpt>
      <trkpt lat="50.55426" lon="3.40533">
        <ele>31.18</ele>
        <time>2023-05-19T11:34:05.276Z</time>
      </trkpt>
      <trkpt lat="50.55423" lon="3.40635">
        <ele>30</ele>
        <time>2023-05-19T11:34:06.287Z</time>
      </trkpt>
      <trkpt lat="50.55423" lon="3.40685">
        <ele>29.44</ele>
        <time>2023-05-19T11:34:07.303Z</time>
      </trkpt>
      <trkpt lat="50.5544" lon="3.40777">
        <ele>29.38</ele>
        <time>2023-05-19T11:34:08.329Z</time>
      </trkpt>
      <trkpt lat="50.55459" lon="3.40862">
        <ele>29.86</ele>
        <time>2023-05-19T11:34:09.364Z</time>
      </trkpt>
      <trkpt lat="50.55491" lon="3.40865">
        <ele>31.04</ele>
        <time>2023-05-19T11:34:10.404Z</time>
      </trkpt>
      <trkpt lat="50.55797" lon="3.40766">
        <ele>34.23</ele>
        <time>2023-05-19T11:34:11.494Z</time>
      </trkpt>
      <trkpt lat="50.55872" lon="3.40738">
        <ele>36.03</ele>
        <time>2023-05-19T11:34:12.596Z</time>
      </trkpt>
      <trkpt lat="50.55926" lon="3.40716">
        <ele>37.75</ele>
        <time>2023-05-19T11:34:13.707Z</time>
      </trkpt>
      <trkpt lat="50.55961" lon="3.40698">
        <ele>39.21</ele>
        <time>2023-05-19T11:34:14.824Z</time>
      </trkpt>
      <trkpt lat="50.55961" lon="3.40698">
        <ele>40.41</ele>
        <time>2023-05-19T11:34:15.941Z</time>
      </trkpt>
      <trkpt lat="50.56017" lon="3.40676">
        <ele>41.59</ele>
        <time>2023-05-19T11:34:17.067Z</time>
      </trkpt>
      <trkpt lat="50.56024" lon="3.40673">
        <ele>42.83</ele>
        <time>2023-05-19T11:34:18.195Z</time>
      </trkpt>
      <trkpt lat="50.56024" lon="3.40673">
        <ele>44.1</ele>
        <time>2023-05-19T11:34:19.323Z</time>
      </trkpt>
      <trkpt lat="50.56171" lon="3.40617">
        <ele>46.35</ele>
        <time>2023-05-19T11:34:20.475Z</time>
      </trkpt>
      <trkpt lat="50.5625" lon="3.4059">
        <ele>48.11</ele>
        <time>2023-05-19T11:34:21.640Z</time>
      </trkpt>
      <trkpt lat="50.56313" lon="3.40575">
        <ele>50.46</ele>
        <time>2023-05-19T11:34:22.815Z</time>
      </trkpt>
      <trkpt lat="50.5635" lon="3.40797">
        <ele>53</ele>
        <time>2023-05-19T11:34:24.013Z</time>
      </trkpt>
      <trkpt lat="50.5635" lon="3.40796">
        <ele>53.01</ele>
        <time>2023-05-19T11:34:25.211Z</time>
      </trkpt>
      <trkpt lat="50.5635" lon="3.40796">
        <ele>53.02</ele>
        <time>2023-05-19T11:34:26.409Z</time>
      </trkpt>
      <trkpt lat="50.5635" lon="3.40795">
        <ele>53.03</ele>
        <time>2023-05-19T11:34:27.607Z</time>
      </trkpt>
      <trkpt lat="50.5635" lon="3.40795">
        <ele>53.04</ele>
        <time>2023-05-19T11:34:28.805Z</time>
      </trkpt>
      <trkpt lat="50.5635" lon="3.40795">
        <ele>53.05</ele>
        <time>2023-05-19T11:34:30.003Z</time>
      </trkpt>
      <trkpt lat="50.5635" lon="3.40798">
        <ele>53.1</ele>
        <time>2023-05-19T11:34:31.202Z</time>
      </trkpt>
      <trkpt lat="50.5635" lon="3.40798">
        <ele>53.11</ele>
        <time>2023-05-19T11:34:32.401Z</time>
      </trkpt>
      <trkpt lat="50.56355" lon="3.40823">
        <ele>55.91</ele>
        <time>2023-05-19T11:34:33.603Z</time>
      </trkpt>
      <trkpt lat="50.56388" lon="3.41027">
        <ele>57.99</ele>
        <time>2023-05-19T11:34:34.826Z</time>
      </trkpt>
      <trkpt lat="50.56388" lon="3.41026">
        <ele>58</ele>
        <time>2023-05-19T11:34:36.049Z</time>
      </trkpt>
      <trkpt lat="50.56388" lon="3.41026">
        <ele>58.01</ele>
        <time>2023-05-19T11:34:37.272Z</time>
      </trkpt>
      <trkpt lat="50.56388" lon="3.41025">
        <ele>58.02</ele>
        <time>2023-05-19T11:34:38.495Z</time>
      </trkpt>
      <trkpt lat="50.56388" lon="3.41025">
        <ele>58.03</ele>
        <time>2023-05-19T11:34:39.718Z</time>
      </trkpt>
      <trkpt lat="50.56388" lon="3.41025">
        <ele>58.04</ele>
        <time>2023-05-19T11:34:40.941Z</time>
      </trkpt>
      <trkpt lat="50.56389" lon="3.41029">
        <ele>58.1</ele>
        <time>2023-05-19T11:34:42.165Z</time>
      </trkpt>
      <trkpt lat="50.56389" lon="3.41029">
        <ele>58.11</ele>
        <time>2023-05-19T11:34:43.389Z</time>
      </trkpt>
      <trkpt lat="50.56389" lon="3.41029">
        <ele>59.81</ele>
        <time>2023-05-19T11:34:44.613Z</time>
      </trkpt>
      <trkpt lat="50.56389" lon="3.41029">
        <ele>60.66</ele>
        <time>2023-05-19T11:34:45.837Z</time>
      </trkpt>
      <trkpt lat="50.56415" lon="3.41183">
        <ele>60.57</ele>
        <time>2023-05-19T11:34:47.077Z</time>
      </trkpt>
      <trkpt lat="50.56415" lon="3.41183">
        <ele>60.28</ele>
        <time>2023-05-19T11:34:48.317Z</time>
      </trkpt>
      <trkpt lat="50.56421" lon="3.41208">
        <ele>59.93</ele>
        <time>2023-05-19T11:34:49.560Z</time>
      </trkpt>
      <trkpt lat="50.56555" lon="3.41594">
        <ele>58.89</ele>
        <time>2023-05-19T11:34:50.848Z</time>
      </trkpt>
      <trkpt lat="50.56527" lon="3.41607">
        <ele>58.12</ele>
        <time>2023-05-19T11:34:52.140Z</time>
      </trkpt>
      <trkpt lat="50.565" lon="3.41605">
        <ele>57.24</ele>
        <time>2023-05-19T11:34:53.437Z</time>
      </trkpt>
      <trkpt lat="50.56433" lon="3.41585">
        <ele>55.88</ele>
        <time>2023-05-19T11:34:54.745Z</time>
      </trkpt>
      <trkpt lat="50.5641" lon="3.4158">
        <ele>54.66</ele>
        <time>2023-05-19T11:34:56.056Z</time>
      </trkpt>
      <trkpt lat="50.56326" lon="3.41588">
        <ele>53.08</ele>
        <time>2023-05-19T11:34:57.381Z</time>
      </trkpt>
      <trkpt lat="50.56297" lon="3.41595">
        <ele>51.61</ele>
        <time>2023-05-19T11:34:58.710Z</time>
      </trkpt>
      <trkpt lat="50.56279" lon="3.41605">
        <ele>50.19</ele>
        <time>2023-05-19T11:35:00.042Z</time>
      </trkpt>
      <trkpt lat="50.56257" lon="3.41621">
        <ele>48.53</ele>
        <time>2023-05-19T11:35:01.378Z</time>
      </trkpt>
      <trkpt lat="50.56233" lon="3.41642">
        <ele>46.78</ele>
        <time>2023-05-19T11:35:02.719Z</time>
      </trkpt>
      <trkpt lat="50.56212" lon="3.41651">
        <ele>45.18</ele>
        <time>2023-05-19T11:35:04.063Z</time>
      </trkpt>
      <trkpt lat="50.56199" lon="3.41655">
        <ele>43.58</ele>
        <time>2023-05-19T11:35:05.409Z</time>
      </trkpt>
      <trkpt lat="50.56175" lon="3.41659">
        <ele>42.08</ele>
        <time>2023-05-19T11:35:06.759Z</time>
      </trkpt>
      <trkpt lat="50.56158" lon="3.41666">
        <ele>40.63</ele>
        <time>2023-05-19T11:35:08.112Z</time>
      </trkpt>
      <trkpt lat="50.56051" lon="3.41747">
        <ele>38.72</ele>
        <time>2023-05-19T11:35:09.484Z</time>
      </trkpt>
      <trkpt lat="50.56039" lon="3.41758">
        <ele>37.13</ele>
        <time>2023-05-19T11:35:10.858Z</time>
      </trkpt>
      <trkpt lat="50.56029" lon="3.41772">
        <ele>35.63</ele>
        <time>2023-05-19T11:35:12.234Z</time>
      </trkpt>
      <trkpt lat="50.56023" lon="3.41783">
        <ele>34.2</ele>
        <time>2023-05-19T11:35:13.612Z</time>
      </trkpt>
      <trkpt lat="50.56015" lon="3.41814">
        <ele>32.8</ele>
        <time>2023-05-19T11:35:14.993Z</time>
      </trkpt>
      <trkpt lat="50.55999" lon="3.42122">
        <ele>31.11</ele>
        <time>2023-05-19T11:35:16.406Z</time>
      </trkpt>
      <trkpt lat="50.56" lon="3.42214">
        <ele>29.95</ele>
        <time>2023-05-19T11:35:17.828Z</time>
      </trkpt>
      <trkpt lat="50.55989" lon="3.42317">
        <ele>29.45</ele>
        <time>2023-05-19T11:35:19.261Z</time>
      </trkpt>
      <trkpt lat="50.55983" lon="3.42332">
        <ele>28.68</ele>
        <time>2023-05-19T11:35:20.696Z</time>
      </trkpt>
      <trkpt lat="50.55975" lon="3.42352">
        <ele>27.92</ele>
        <time>2023-05-19T11:35:22.133Z</time>
      </trkpt>
      <trkpt lat="50.55958" lon="3.42367">
        <ele>27.16</ele>
        <time>2023-05-19T11:35:23.573Z</time>
      </trkpt>
      <trkpt lat="50.55947" lon="3.42382">
        <ele>26.77</ele>
        <time>2023-05-19T11:35:25.016Z</time>
      </trkpt>
      <trkpt lat="50.55947" lon="3.42382">
        <ele>26.48</ele>
        <time>2023-05-19T11:35:26.459Z</time>
      </trkpt>
      <trkpt lat="50.55946" lon="3.42427">
        <ele>26.46</ele>
        <time>2023-05-19T11:35:27.906Z</time>
      </trkpt>
      <trkpt lat="50.55941" lon="3.42474">
        <ele>26.29</ele>
        <time>2023-05-19T11:35:29.358Z</time>
      </trkpt>
      <trkpt lat="50.55946" lon="3.42493">
        <ele>26.19</ele>
        <time>2023-05-19T11:35:30.812Z</time>
      </trkpt>
      <trkpt lat="50.5595" lon="3.42503">
        <ele>26.19</ele>
        <time>2023-05-19T11:35:32.267Z</time>
      </trkpt>
      <trkpt lat="50.55951" lon="3.42511">
        <ele>26.23</ele>
        <time>2023-05-19T11:35:33.723Z</time>
      </trkpt>
      <trkpt lat="50.55946" lon="3.42516">
        <ele>26.27</ele>
        <time>2023-05-19T11:35:35.180Z</time>
      </trkpt>
      <trkpt lat="50.5594" lon="3.42528">
        <ele>26.34</ele>
        <time>2023-05-19T11:35:36.639Z</time>
      </trkpt>
      <trkpt lat="50.55937" lon="3.42548">
        <ele>26.41</ele>
        <time>2023-05-19T11:35:38.100Z</time>
      </trkpt>
      <trkpt lat="50.55937" lon="3.4256">
        <ele>26.48</ele>
        <time>2023-05-19T11:35:39.562Z</time>
      </trkpt>
      <trkpt lat="50.55939" lon="3.42567">
        <ele>26.55</ele>
        <time>2023-05-19T11:35:41.025Z</time>
      </trkpt>
      <trkpt lat="50.55943" lon="3.42576">
        <ele>26.61</ele>
        <time>2023-05-19T11:35:42.489Z</time>
      </trkpt>
      <trkpt lat="50.55948" lon="3.42586">
        <ele>26.66</ele>
        <time>2023-05-19T11:35:43.954Z</time>
      </trkpt>
      <trkpt lat="50.55955" lon="3.42592">
        <ele>26.69</ele>
        <time>2023-05-19T11:35:45.420Z</time>
      </trkpt>
      <trkpt lat="50.55963" lon="3.42595">
        <ele>26.68</ele>
        <time>2023-05-19T11:35:46.888Z</time>
      </trkpt>
      <trkpt lat="50.55973" lon="3.42594">
        <ele>26.61</ele>
        <time>2023-05-19T11:35:48.357Z</time>
      </trkpt>
      <trkpt lat="50.55979" lon="3.42591">
        <ele>26.42</ele>
        <time>2023-05-19T11:35:49.827Z</time>
      </trkpt>
      <trkpt lat="50.55982" lon="3.42595">
        <ele>26.15</ele>
        <time>2023-05-19T11:35:51.298Z</time>
      </trkpt>
      <trkpt lat="50.5599" lon="3.4262">
        <ele>25.75</ele>
        <time>2023-05-19T11:35:52.772Z</time>
      </trkpt>
      <trkpt lat="50.5599" lon="3.4262">
        <ele>25.33</ele>
        <time>2023-05-19T11:35:54.246Z</time>
      </trkpt>
      <trkpt lat="50.55989" lon="3.42629">
        <ele>24.81</ele>
        <time>2023-05-19T11:35:55.721Z</time>
      </trkpt>
      <trkpt lat="50.55932" lon="3.42685">
        <ele>24.03</ele>
        <time>2023-05-19T11:35:57.207Z</time>
      </trkpt>
      <trkpt lat="50.55924" lon="3.42705">
        <ele>23.43</ele>
        <time>2023-05-19T11:35:58.695Z</time>
      </trkpt>
      <trkpt lat="50.55921" lon="3.42723">
        <ele>22.81</ele>
        <time>2023-05-19T11:36:00.185Z</time>
      </trkpt>
      <trkpt lat="50.55925" lon="3.42775">
        <ele>22.04</ele>
        <time>2023-05-19T11:36:01.680Z</time>
      </trkpt>
      <trkpt lat="50.55922" lon="3.42914">
        <ele>21.33</ele>
        <time>2023-05-19T11:36:03.189Z</time>
      </trkpt>
      <trkpt lat="50.55919" lon="3.42929">
        <ele>20.79</ele>
        <time>2023-05-19T11:36:04.700Z</time>
      </trkpt>
      <trkpt lat="50.55916" lon="3.4294">
        <ele>20.31</ele>
        <time>2023-05-19T11:36:06.212Z</time>
      </trkpt>
      <trkpt lat="50.55895" lon="3.42968">
        <ele>19.84</ele>
        <time>2023-05-19T11:36:07.728Z</time>
      </trkpt>
      <trkpt lat="50.55884" lon="3.42978">
        <ele>19.56</ele>
        <time>2023-05-19T11:36:09.247Z</time>
      </trkpt>
      <trkpt lat="50.55894" lon="3.43012">
        <ele>19.39</ele>
        <time>2023-05-19T11:36:10.769Z</time>
      </trkpt>
      <trkpt lat="50.55909" lon="3.43041">
        <ele>19.37</ele>
        <time>2023-05-19T11:36:12.295Z</time>
      </trkpt>
      <trkpt lat="50.55966" lon="3.43148">
        <ele>19.4</ele>
        <time>2023-05-19T11:36:13.835Z</time>
      </trkpt>
      <trkpt lat="50.55966" lon="3.43148">
        <ele>19.52</ele>
        <time>2023-05-19T11:36:15.375Z</time>
      </trkpt>
      <trkpt lat="50.56006" lon="3.43224">
        <ele>19.77</ele>
        <time>2023-05-19T11:36:16.926Z</time>
      </trkpt>
      <trkpt lat="50.56082" lon="3.43394">
        <ele>20.09</ele>
        <time>2023-05-19T11:36:18.498Z</time>
      </trkpt>
      <trkpt lat="50.56206" lon="3.43653">
        <ele>21.05</ele>
        <time>2023-05-19T11:36:20.103Z</time>
      </trkpt>
      <trkpt lat="50.56255" lon="3.43748">
        <ele>20.56</ele>
        <time>2023-05-19T11:36:21.720Z</time>
      </trkpt>
      <trkpt lat="50.56278" lon="3.43786">
        <ele>20.46</ele>
        <time>2023-05-19T11:36:23.343Z</time>
      </trkpt>
      <trkpt lat="50.56322" lon="3.43847">
        <ele>20.86</ele>
        <time>2023-05-19T11:36:24.975Z</time>
      </trkpt>
      <trkpt lat="50.56322" lon="3.43846">
        <ele>20.87</ele>
        <time>2023-05-19T11:36:26.607Z</time>
      </trkpt>
      <trkpt lat="50.56322" lon="3.43846">
        <ele>20.88</ele>
        <time>2023-05-19T11:36:28.239Z</time>
      </trkpt>
      <trkpt lat="50.56322" lon="3.43846">
        <ele>20.89</ele>
        <time>2023-05-19T11:36:29.871Z</time>
      </trkpt>
      <trkpt lat="50.56322" lon="3.43846">
        <ele>20.9</ele>
        <time>2023-05-19T11:36:31.503Z</time>
      </trkpt>
      <trkpt lat="50.56322" lon="3.43846">
        <ele>20.91</ele>
        <time>2023-05-19T11:36:33.135Z</time>
      </trkpt>
      <trkpt lat="50.56325" lon="3.4385">
        <ele>20.94</ele>
        <time>2023-05-19T11:36:34.768Z</time>
      </trkpt>
      <trkpt lat="50.56325" lon="3.4385">
        <ele>20.95</ele>
        <time>2023-05-19T11:36:36.401Z</time>
      </trkpt>
      <trkpt lat="50.5628" lon="3.43789">
        <ele>20.93</ele>
        <time>2023-05-19T11:36:38.043Z</time>
      </trkpt>
      <trkpt lat="50.5628" lon="3.43789">
        <ele>20.93</ele>
        <time>2023-05-19T11:36:39.685Z</time>
      </trkpt>
      <trkpt lat="50.5628" lon="3.43789">
        <ele>20.93</ele>
        <time>2023-05-19T11:36:41.327Z</time>
      </trkpt>
      <trkpt lat="50.5628" lon="3.43789">
        <ele>20.93</ele>
        <time>2023-05-19T11:36:42.969Z</time>
      </trkpt>
      <trkpt lat="50.5628" lon="3.43789">
        <ele>20.93</ele>
        <time>2023-05-19T11:36:44.611Z</time>
      </trkpt>
      <trkpt lat="50.5628" lon="3.43789">
        <ele>20.93</ele>
        <time>2023-05-19T11:36:46.253Z</time>
      </trkpt>
      <trkpt lat="50.56278" lon="3.43786">
        <ele>20.93</ele>
        <time>2023-05-19T11:36:47.896Z</time>
      </trkpt>
      <trkpt lat="50.56278" lon="3.43785">
        <ele>20.77</ele>
        <time>2023-05-19T11:36:49.539Z</time>
      </trkpt>
      <trkpt lat="50.56278" lon="3.43785">
        <ele>20.77</ele>
        <time>2023-05-19T11:36:51.182Z</time>
      </trkpt>
      <trkpt lat="50.56278" lon="3.43785">
        <ele>20.68</ele>
        <time>2023-05-19T11:36:52.825Z</time>
      </trkpt>
      <trkpt lat="50.56278" lon="3.43785">
        <ele>20.23</ele>
        <time>2023-05-19T11:36:54.468Z</time>
      </trkpt>
      <trkpt lat="50.56255" lon="3.43748">
        <ele>20.5</ele>
        <time>2023-05-19T11:36:56.116Z</time>
      </trkpt>
      <trkpt lat="50.56206" lon="3.43653">
        <ele>21.1</ele>
        <time>2023-05-19T11:36:57.776Z</time>
      </trkpt>
      <trkpt lat="50.56082" lon="3.43394">
        <ele>20.06</ele>
        <time>2023-05-19T11:36:59.469Z</time>
      </trkpt>
      <trkpt lat="50.56006" lon="3.43224">
        <ele>19.68</ele>
        <time>2023-05-19T11:37:01.184Z</time>
      </trkpt>
      <trkpt lat="50.55966" lon="3.43148">
        <ele>19.37</ele>
        <time>2023-05-19T11:37:02.909Z</time>
      </trkpt>
      <trkpt lat="50.55966" lon="3.43148">
        <ele>19.2</ele>
        <time>2023-05-19T11:37:04.634Z</time>
      </trkpt>
      <trkpt lat="50.55909" lon="3.43041">
        <ele>19.12</ele>
        <time>2023-05-19T11:37:06.373Z</time>
      </trkpt>
      <trkpt lat="50.55894" lon="3.43012">
        <ele>19.09</ele>
        <time>2023-05-19T11:37:08.116Z</time>
      </trkpt>
      <trkpt lat="50.55884" lon="3.42978">
        <ele>19.23</ele>
        <time>2023-05-19T11:37:09.863Z</time>
      </trkpt>
      <trkpt lat="50.55895" lon="3.42968">
        <ele>19.49</ele>
        <time>2023-05-19T11:37:11.612Z</time>
      </trkpt>
      <trkpt lat="50.55916" lon="3.4294">
        <ele>19.97</ele>
        <time>2023-05-19T11:37:13.365Z</time>
      </trkpt>
      <trkpt lat="50.55919" lon="3.42929">
        <ele>20.45</ele>
        <time>2023-05-19T11:37:15.119Z</time>
      </trkpt>
      <trkpt lat="50.55922" lon="3.42914">
        <ele>21.03</ele>
        <time>2023-05-19T11:37:16.875Z</time>
      </trkpt>
      <trkpt lat="50.55925" lon="3.42775">
        <ele>21.79</ele>
        <time>2023-05-19T11:37:18.645Z</time>
      </trkpt>
      <trkpt lat="50.55921" lon="3.42723">
        <ele>22.63</ele>
        <time>2023-05-19T11:37:20.420Z</time>
      </trkpt>
      <trkpt lat="50.55924" lon="3.42705">
        <ele>23.34</ele>
        <time>2023-05-19T11:37:22.197Z</time>
      </trkpt>
      <trkpt lat="50.55932" lon="3.42685">
        <ele>24.04</ele>
        <time>2023-05-19T11:37:23.977Z</time>
      </trkpt>
      <trkpt lat="50.55989" lon="3.42629">
        <ele>24.95</ele>
        <time>2023-05-19T11:37:25.767Z</time>
      </trkpt>
      <trkpt lat="50.5599" lon="3.4262">
        <ele>25.6</ele>
        <time>2023-05-19T11:37:27.558Z</time>
      </trkpt>
      <trkpt lat="50.5599" lon="3.4262">
        <ele>26.15</ele>
        <time>2023-05-19T11:37:29.349Z</time>
      </trkpt>
      <trkpt lat="50.55982" lon="3.42595">
        <ele>26.71</ele>
        <time>2023-05-19T11:37:31.143Z</time>
      </trkpt>
      <trkpt lat="50.55982" lon="3.42588">
        <ele>27.13</ele>
        <time>2023-05-19T11:37:32.938Z</time>
      </trkpt>
      <trkpt lat="50.55978" lon="3.42565">
        <ele>27.55</ele>
        <time>2023-05-19T11:37:34.735Z</time>
      </trkpt>
      <trkpt lat="50.55981" lon="3.42553">
        <ele>27.85</ele>
        <time>2023-05-19T11:37:36.534Z</time>
      </trkpt>
      <trkpt lat="50.55982" lon="3.42545">
        <ele>28.02</ele>
        <time>2023-05-19T11:37:38.334Z</time>
      </trkpt>
      <trkpt lat="50.55978" lon="3.4253">
        <ele>28.12</ele>
        <time>2023-05-19T11:37:40.135Z</time>
      </trkpt>
      <trkpt lat="50.55974" lon="3.42525">
        <ele>28.15</ele>
        <time>2023-05-19T11:37:41.937Z</time>
      </trkpt>
      <trkpt lat="50.5597" lon="3.42522">
        <ele>28.11</ele>
        <time>2023-05-19T11:37:43.740Z</time>
      </trkpt>
      <trkpt lat="50.55963" lon="3.42521">
        <ele>28.02</ele>
        <time>2023-05-19T11:37:45.544Z</time>
      </trkpt>
      <trkpt lat="50.55955" lon="3.42514">
        <ele>27.9</ele>
        <time>2023-05-19T11:37:47.349Z</time>
      </trkpt>
      <trkpt lat="50.55953" lon="3.42508">
        <ele>27.8</ele>
        <time>2023-05-19T11:37:49.155Z</time>
      </trkpt>
      <trkpt lat="50.5595" lon="3.42503">
        <ele>27.7</ele>
        <time>2023-05-19T11:37:50.962Z</time>
      </trkpt>
      <trkpt lat="50.55946" lon="3.42493">
        <ele>27.63</ele>
        <time>2023-05-19T11:37:52.770Z</time>
      </trkpt>
      <trkpt lat="50.55941" lon="3.42474">
        <ele>27.65</ele>
        <time>2023-05-19T11:37:54.580Z</time>
      </trkpt>
      <trkpt lat="50.55946" lon="3.42427">
        <ele>27.69</ele>
        <time>2023-05-19T11:37:56.395Z</time>
      </trkpt>
      <trkpt lat="50.55947" lon="3.42382">
        <ele>27.53</ele>
        <time>2023-05-19T11:37:58.214Z</time>
      </trkpt>
      <trkpt lat="50.55947" lon="3.42382">
        <ele>27.78</ele>
        <time>2023-05-19T11:38:00.033Z</time>
      </trkpt>
      <trkpt lat="50.55958" lon="3.42367">
        <ele>28.21</ele>
        <time>2023-05-19T11:38:01.855Z</time>
      </trkpt>
      <trkpt lat="50.55975" lon="3.42352">
        <ele>29.1</ele>
        <time>2023-05-19T11:38:03.680Z</time>
      </trkpt>
      <trkpt lat="50.55983" lon="3.42332">
        <ele>29.74</ele>
        <time>2023-05-19T11:38:05.507Z</time>
      </trkpt>
      <trkpt lat="50.55989" lon="3.42317">
        <ele>30.1</ele>
        <time>2023-05-19T11:38:07.336Z</time>
      </trkpt>
      <trkpt lat="50.55991" lon="3.42294">
        <ele>30.13</ele>
        <time>2023-05-19T11:38:09.167Z</time>
      </trkpt>
      <trkpt lat="50.55991" lon="3.42294">
        <ele>30.14</ele>
        <time>2023-05-19T11:38:10.998Z</time>
      </trkpt>
      <trkpt lat="50.55991" lon="3.42294">
        <ele>30.15</ele>
        <time>2023-05-19T11:38:12.829Z</time>
      </trkpt>
      <trkpt lat="50.55991" lon="3.42294">
        <ele>30.16</ele>
        <time>2023-05-19T11:38:14.660Z</time>
      </trkpt>
      <trkpt lat="50.55991" lon="3.42294">
        <ele>30.17</ele>
        <time>2023-05-19T11:38:16.491Z</time>
      </trkpt>
      <trkpt lat="50.55991" lon="3.42294">
        <ele>30.18</ele>
        <time>2023-05-19T11:38:18.322Z</time>
      </trkpt>
      <trkpt lat="50.55992" lon="3.42289">
        <ele>30.2</ele>
        <time>2023-05-19T11:38:20.154Z</time>
      </trkpt>
      <trkpt lat="50.55992" lon="3.42289">
        <ele>30.21</ele>
        <time>2023-05-19T11:38:21.986Z</time>
      </trkpt>
      <trkpt lat="50.55989" lon="3.42317">
        <ele>30.13</ele>
        <time>2023-05-19T11:38:23.821Z</time>
      </trkpt>
      <trkpt lat="50.55983" lon="3.42332">
        <ele>29.74</ele>
        <time>2023-05-19T11:38:25.658Z</time>
      </trkpt>
      <trkpt lat="50.55975" lon="3.42352">
        <ele>29.08</ele>
        <time>2023-05-19T11:38:27.497Z</time>
      </trkpt>
      <trkpt lat="50.55958" lon="3.42367">
        <ele>28.15</ele>
        <time>2023-05-19T11:38:29.339Z</time>
      </trkpt>
      <trkpt lat="50.55947" lon="3.42382">
        <ele>27.66</ele>
        <time>2023-05-19T11:38:31.184Z</time>
      </trkpt>
      <trkpt lat="50.55947" lon="3.42382">
        <ele>27.35</ele>
        <time>2023-05-19T11:38:33.029Z</time>
      </trkpt>
      <trkpt lat="50.55946" lon="3.42427">
        <ele>27.43</ele>
        <time>2023-05-19T11:38:34.878Z</time>
      </trkpt>
      <trkpt lat="50.55941" lon="3.42474">
        <ele>27.31</ele>
        <time>2023-05-19T11:38:36.732Z</time>
      </trkpt>
      <trkpt lat="50.55946" lon="3.42493">
        <ele>27.22</ele>
        <time>2023-05-19T11:38:38.588Z</time>
      </trkpt>
      <trkpt lat="50.5595" lon="3.42503">
        <ele>27.19</ele>
        <time>2023-05-19T11:38:40.445Z</time>
      </trkpt>
      <trkpt lat="50.55951" lon="3.42511">
        <ele>27.19</ele>
        <time>2023-05-19T11:38:42.303Z</time>
      </trkpt>
      <trkpt lat="50.55946" lon="3.42516">
        <ele>27.17</ele>
        <time>2023-05-19T11:38:44.162Z</time>
      </trkpt>
      <trkpt lat="50.5594" lon="3.42528">
        <ele>27.15</ele>
        <time>2023-05-19T11:38:46.023Z</time>
      </trkpt>
      <trkpt lat="50.55937" lon="3.42548">
        <ele>27.13</ele>
        <time>2023-05-19T11:38:47.886Z</time>
      </trkpt>
      <trkpt lat="50.55937" lon="3.4256">
        <ele>27.08</ele>
        <time>2023-05-19T11:38:49.750Z</time>
      </trkpt>
      <trkpt lat="50.55939" lon="3.42567">
        <ele>27.02</ele>
        <time>2023-05-19T11:38:51.615Z</time>
      </trkpt>
      <trkpt lat="50.55943" lon="3.42576">
        <ele>26.94</ele>
        <time>2023-05-19T11:38:53.481Z</time>
      </trkpt>
      <trkpt lat="50.55948" lon="3.42586">
        <ele>26.87</ele>
        <time>2023-05-19T11:38:55.348Z</time>
      </trkpt>
      <trkpt lat="50.55955" lon="3.42592">
        <ele>26.79</ele>
        <time>2023-05-19T11:38:57.217Z</time>
      </trkpt>
      <trkpt lat="50.55963" lon="3.42595">
        <ele>26.68</ele>
        <time>2023-05-19T11:38:59.087Z</time>
      </trkpt>
      <trkpt lat="50.55973" lon="3.42594">
        <ele>26.53</ele>
        <time>2023-05-19T11:39:00.958Z</time>
      </trkpt>
      <trkpt lat="50.55979" lon="3.42591">
        <ele>26.26</ele>
        <time>2023-05-19T11:39:02.830Z</time>
      </trkpt>
      <trkpt lat="50.55982" lon="3.42595">
        <ele>25.93</ele>
        <time>2023-05-19T11:39:04.703Z</time>
      </trkpt>
      <trkpt lat="50.5599" lon="3.4262">
        <ele>25.48</ele>
        <time>2023-05-19T11:39:06.579Z</time>
      </trkpt>
      <trkpt lat="50.5599" lon="3.4262">
        <ele>25.02</ele>
        <time>2023-05-19T11:39:08.455Z</time>
      </trkpt>
      <trkpt lat="50.55989" lon="3.42629">
        <ele>24.48</ele>
        <time>2023-05-19T11:39:10.332Z</time>
      </trkpt>
      <trkpt lat="50.55932" lon="3.42685">
        <ele>23.69</ele>
        <time>2023-05-19T11:39:12.220Z</time>
      </trkpt>
      <trkpt lat="50.55924" lon="3.42705">
        <ele>23.07</ele>
        <time>2023-05-19T11:39:14.110Z</time>
      </trkpt>
      <trkpt lat="50.55921" lon="3.42723">
        <ele>22.46</ele>
        <time>2023-05-19T11:39:16.002Z</time>
      </trkpt>
      <trkpt lat="50.55925" lon="3.42775">
        <ele>21.73</ele>
        <time>2023-05-19T11:39:17.899Z</time>
      </trkpt>
      <trkpt lat="50.55922" lon="3.42914">
        <ele>21.06</ele>
        <time>2023-05-19T11:39:19.810Z</time>
      </trkpt>
      <trkpt lat="50.55919" lon="3.42929">
        <ele>20.57</ele>
        <time>2023-05-19T11:39:21.723Z</time>
      </trkpt>
      <trkpt lat="50.55916" lon="3.4294">
        <ele>20.15</ele>
        <time>2023-05-19T11:39:23.637Z</time>
      </trkpt>
      <trkpt lat="50.55895" lon="3.42968">
        <ele>19.75</ele>
        <time>2023-05-19T11:39:25.556Z</time>
      </trkpt>
      <trkpt lat="50.55884" lon="3.42978">
        <ele>19.55</ele>
        <time>2023-05-19T11:39:27.477Z</time>
      </trkpt>
      <trkpt lat="50.55894" lon="3.43012">
        <ele>19.45</ele>
        <time>2023-05-19T11:39:29.402Z</time>
      </trkpt>
      <trkpt lat="50.55909" lon="3.43041">
        <ele>19.5</ele>
        <time>2023-05-19T11:39:31.330Z</time>
      </trkpt>
      <trkpt lat="50.55966" lon="3.43148">
        <ele>19.59</ele>
        <time>2023-05-19T11:39:33.273Z</time>
      </trkpt>
      <trkpt lat="50.55966" lon="3.43148">
        <ele>19.75</ele>
        <time>2023-05-19T11:39:35.216Z</time>
      </trkpt>
      <trkpt lat="50.56006" lon="3.43224">
        <ele>19.99</ele>
        <time>2023-05-19T11:39:37.169Z</time>
      </trkpt>
      <trkpt lat="50.56082" lon="3.43394">
        <ele>20.24</ele>
        <time>2023-05-19T11:39:39.143Z</time>
      </trkpt>
      <trkpt lat="50.56206" lon="3.43653">
        <ele>21.04</ele>
        <time>2023-05-19T11:39:41.150Z</time>
      </trkpt>
      <trkpt lat="50.56255" lon="3.43748">
        <ele>20.79</ele>
        <time>2023-05-19T11:39:43.169Z</time>
      </trkpt>
      <trkpt lat="50.56278" lon="3.43786">
        <ele>20.76</ele>
        <time>2023-05-19T11:39:45.194Z</time>
      </trkpt>
      <trkpt lat="50.56352" lon="3.43888">
        <ele>21.01</ele>
        <time>2023-05-19T11:39:47.235Z</time>
      </trkpt>
      <trkpt lat="50.56405" lon="3.43944">
        <ele>21.03</ele>
        <time>2023-05-19T11:39:49.286Z</time>
      </trkpt>
      <trkpt lat="50.56429" lon="3.43963">
        <ele>21.01</ele>
        <time>2023-05-19T11:39:51.341Z</time>
      </trkpt>
      <trkpt lat="50.56447" lon="3.43975">
        <ele>20.73</ele>
        <time>2023-05-19T11:39:53.399Z</time>
      </trkpt>
      <trkpt lat="50.56534" lon="3.44018">
        <ele>20.06</ele>
        <time>2023-05-19T11:39:55.472Z</time>
      </trkpt>
      <trkpt lat="50.56534" lon="3.44018">
        <ele>19.76</ele>
        <time>2023-05-19T11:39:57.545Z</time>
      </trkpt>
      <trkpt lat="50.56583" lon="3.44056">
        <ele>19.22</ele>
        <time>2023-05-19T11:39:59.627Z</time>
      </trkpt>
      <trkpt lat="50.56583" lon="3.44056">
        <ele>19.22</ele>
        <time>2023-05-19T11:40:01.709Z</time>
      </trkpt>
      <trkpt lat="50.56583" lon="3.44056">
        <ele>19.22</ele>
        <time>2023-05-19T11:40:03.791Z</time>
      </trkpt>
      <trkpt lat="50.56583" lon="3.44056">
        <ele>19.22</ele>
        <time>2023-05-19T11:40:05.873Z</time>
      </trkpt>
      <trkpt lat="50.56583" lon="3.44056">
        <ele>19.22</ele>
        <time>2023-05-19T11:40:07.955Z</time>
      </trkpt>
      <trkpt lat="50.56586" lon="3.44058">
        <ele>19.19</ele>
        <time>2023-05-19T11:40:10.037Z</time>
      </trkpt>
      <trkpt lat="50.56603" lon="3.44072">
        <ele>17.87</ele>
        <time>2023-05-19T11:40:12.122Z</time>
      </trkpt>
      <trkpt lat="50.56615" lon="3.44086">
        <ele>17.68</ele>
        <time>2023-05-19T11:40:14.210Z</time>
      </trkpt>
      <trkpt lat="50.5663" lon="3.44094">
        <ele>17.33</ele>
        <time>2023-05-19T11:40:16.300Z</time>
      </trkpt>
      <trkpt lat="50.56641" lon="3.44101">
        <ele>16.99</ele>
        <time>2023-05-19T11:40:18.392Z</time>
      </trkpt>
      <trkpt lat="50.56665" lon="3.44103">
        <ele>16.9</ele>
        <time>2023-05-19T11:40:20.488Z</time>
      </trkpt>
      <trkpt lat="50.56723" lon="3.44109">
        <ele>16.84</ele>
        <time>2023-05-19T11:40:22.593Z</time>
      </trkpt>
      <trkpt lat="50.5673" lon="3.44113">
        <ele>16.55</ele>
        <time>2023-05-19T11:40:24.699Z</time>
      </trkpt>
      <trkpt lat="50.56742" lon="3.44127">
        <ele>16.06</ele>
        <time>2023-05-19T11:40:26.808Z</time>
      </trkpt>
      <trkpt lat="50.56742" lon="3.44127">
        <ele>15.7</ele>
        <time>2023-05-19T11:40:28.917Z</time>
      </trkpt>
      <trkpt lat="50.56751" lon="3.4415">
        <ele>15.13</ele>
        <time>2023-05-19T11:40:31.028Z</time>
      </trkpt>
      <trkpt lat="50.56749" lon="3.44177">
        <ele>14.73</ele>
        <time>2023-05-19T11:40:33.142Z</time>
      </trkpt>
      <trkpt lat="50.56749" lon="3.44177">
        <ele>14.79</ele>
        <time>2023-05-19T11:40:35.256Z</time>
      </trkpt>
      <trkpt lat="50.56741" lon="3.44282">
        <ele>15.11</ele>
        <time>2023-05-19T11:40:37.381Z</time>
      </trkpt>
      <trkpt lat="50.56739" lon="3.44333">
        <ele>16.14</ele>
        <time>2023-05-19T11:40:39.511Z</time>
      </trkpt>
      <trkpt lat="50.56741" lon="3.44365">
        <ele>16.97</ele>
        <time>2023-05-19T11:40:41.644Z</time>
      </trkpt>
      <trkpt lat="50.56747" lon="3.44404">
        <ele>17.37</ele>
        <time>2023-05-19T11:40:43.782Z</time>
      </trkpt>
      <trkpt lat="50.56747" lon="3.44403">
        <ele>17.38</ele>
        <time>2023-05-19T11:40:45.920Z</time>
      </trkpt>
      <trkpt lat="50.56747" lon="3.44403">
        <ele>17.39</ele>
        <time>2023-05-19T11:40:48.058Z</time>
      </trkpt>
      <trkpt lat="50.56747" lon="3.44403">
        <ele>17.4</ele>
        <time>2023-05-19T11:40:50.196Z</time>
      </trkpt>
      <trkpt lat="50.56747" lon="3.44403">
        <ele>17.41</ele>
        <time>2023-05-19T11:40:52.334Z</time>
      </trkpt>
      <trkpt lat="50.56747" lon="3.44403">
        <ele>17.42</ele>
        <time>2023-05-19T11:40:54.472Z</time>
      </trkpt>
      <trkpt lat="50.56748" lon="3.44409">
        <ele>17.49</ele>
        <time>2023-05-19T11:40:56.610Z</time>
      </trkpt>
      <trkpt lat="50.56748" lon="3.44409">
        <ele>17.5</ele>
        <time>2023-05-19T11:40:58.748Z</time>
      </trkpt>
      <trkpt lat="50.56748" lon="3.44409">
        <ele>19.59</ele>
        <time>2023-05-19T11:41:00.886Z</time>
      </trkpt>
      <trkpt lat="50.56754" lon="3.44448">
        <ele>19.81</ele>
        <time>2023-05-19T11:41:03.028Z</time>
      </trkpt>
      <trkpt lat="50.56751" lon="3.44475">
        <ele>20.19</ele>
        <time>2023-05-19T11:41:05.173Z</time>
      </trkpt>
      <trkpt lat="50.56751" lon="3.44475">
        <ele>20.37</ele>
        <time>2023-05-19T11:41:07.318Z</time>
      </trkpt>
      <trkpt lat="50.5675" lon="3.44494">
        <ele>20.6</ele>
        <time>2023-05-19T11:41:09.465Z</time>
      </trkpt>
      <trkpt lat="50.56751" lon="3.44505">
        <ele>20.68</ele>
        <time>2023-05-19T11:41:11.613Z</time>
      </trkpt>
      <trkpt lat="50.56758" lon="3.44531">
        <ele>20.68</ele>
        <time>2023-05-19T11:41:13.764Z</time>
      </trkpt>
      <trkpt lat="50.56764" lon="3.44531">
        <ele>20.58</ele>
        <time>2023-05-19T11:41:15.916Z</time>
      </trkpt>
      <trkpt lat="50.56771" lon="3.44529">
        <ele>20.41</ele>
        <time>2023-05-19T11:41:18.069Z</time>
      </trkpt>
      <trkpt lat="50.56808" lon="3.44501">
        <ele>20.06</ele>
        <time>2023-05-19T11:41:20.229Z</time>
      </trkpt>
      <trkpt lat="50.56832" lon="3.44486">
        <ele>19.67</ele>
        <time>2023-05-19T11:41:22.393Z</time>
      </trkpt>
      <trkpt lat="50.56832" lon="3.44486">
        <ele>19.46</ele>
        <time>2023-05-19T11:41:24.557Z</time>
      </trkpt>
      <trkpt lat="50.56851" lon="3.44472">
        <ele>19.3</ele>
        <time>2023-05-19T11:41:26.724Z</time>
      </trkpt>
      <trkpt lat="50.56851" lon="3.44472">
        <ele>19.19</ele>
        <time>2023-05-19T11:41:28.891Z</time>
      </trkpt>
      <trkpt lat="50.56874" lon="3.4445">
        <ele>19.16</ele>
        <time>2023-05-19T11:41:31.062Z</time>
      </trkpt>
      <trkpt lat="50.56874" lon="3.4445">
        <ele>19.16</ele>
        <time>2023-05-19T11:41:33.233Z</time>
      </trkpt>
      <trkpt lat="50.56886" lon="3.44439">
        <ele>19.17</ele>
        <time>2023-05-19T11:41:35.407Z</time>
      </trkpt>
      <trkpt lat="50.56893" lon="3.44434">
        <ele>19.29</ele>
        <time>2023-05-19T11:41:37.582Z</time>
      </trkpt>
      <trkpt lat="50.56916" lon="3.44427">
        <ele>19.54</ele>
        <time>2023-05-19T11:41:39.761Z</time>
      </trkpt>
      <trkpt lat="50.56944" lon="3.44418">
        <ele>19.7</ele>
        <time>2023-05-19T11:41:41.944Z</time>
      </trkpt>
      <trkpt lat="50.56976" lon="3.4441">
        <ele>19.84</ele>
        <time>2023-05-19T11:41:44.132Z</time>
      </trkpt>
      <trkpt lat="50.57037" lon="3.44381">
        <ele>20.07</ele>
        <time>2023-05-19T11:41:46.331Z</time>
      </trkpt>
      <trkpt lat="50.57047" lon="3.44376">
        <ele>20.25</ele>
        <time>2023-05-19T11:41:48.531Z</time>
      </trkpt>
      <trkpt lat="50.5707" lon="3.44371">
        <ele>20.27</ele>
        <time>2023-05-19T11:41:50.735Z</time>
      </trkpt>
      <trkpt lat="50.57126" lon="3.44365">
        <ele>20.05</ele>
        <time>2023-05-19T11:41:52.948Z</time>
      </trkpt>
      <trkpt lat="50.5715" lon="3.44365">
        <ele>19.87</ele>
        <time>2023-05-19T11:41:55.165Z</time>
      </trkpt>
      <trkpt lat="50.57151" lon="3.44365">
        <ele>19.87</ele>
        <time>2023-05-19T11:41:57.382Z</time>
      </trkpt>
      <trkpt lat="50.57151" lon="3.44365">
        <ele>19.87</ele>
        <time>2023-05-19T11:41:59.599Z</time>
      </trkpt>
      <trkpt lat="50.57151" lon="3.44365">
        <ele>19.87</ele>
        <time>2023-05-19T11:42:01.816Z</time>
      </trkpt>
      <trkpt lat="50.57151" lon="3.44365">
        <ele>19.87</ele>
        <time>2023-05-19T11:42:04.033Z</time>
      </trkpt>
      <trkpt lat="50.57151" lon="3.44365">
        <ele>19.87</ele>
        <time>2023-05-19T11:42:06.250Z</time>
      </trkpt>
      <trkpt lat="50.57154" lon="3.44365">
        <ele>19.85</ele>
        <time>2023-05-19T11:42:08.468Z</time>
      </trkpt>
      <trkpt lat="50.57154" lon="3.44365">
        <ele>19.85</ele>
        <time>2023-05-19T11:42:10.686Z</time>
      </trkpt>
      <trkpt lat="50.57183" lon="3.44365">
        <ele>18</ele>
        <time>2023-05-19T11:42:12.908Z</time>
      </trkpt>
      <trkpt lat="50.57202" lon="3.44368">
        <ele>17.59</ele>
        <time>2023-05-19T11:42:15.133Z</time>
      </trkpt>
      <trkpt lat="50.57204" lon="3.44371">
        <ele>17.28</ele>
        <time>2023-05-19T11:42:17.359Z</time>
      </trkpt>
      <trkpt lat="50.57217" lon="3.44386">
        <ele>17.04</ele>
        <time>2023-05-19T11:42:19.587Z</time>
      </trkpt>
      <trkpt lat="50.57221" lon="3.44377">
        <ele>16.86</ele>
        <time>2023-05-19T11:42:21.816Z</time>
      </trkpt>
      <trkpt lat="50.57232" lon="3.44371">
        <ele>16.73</ele>
        <time>2023-05-19T11:42:24.047Z</time>
      </trkpt>
      <trkpt lat="50.5724" lon="3.44372">
        <ele>16.67</ele>
        <time>2023-05-19T11:42:26.279Z</time>
      </trkpt>
      <trkpt lat="50.57246" lon="3.44376">
        <ele>16.68</ele>
        <time>2023-05-19T11:42:28.513Z</time>
      </trkpt>
      <trkpt lat="50.57251" lon="3.44385">
        <ele>16.77</ele>
        <time>2023-05-19T11:42:30.748Z</time>
      </trkpt>
      <trkpt lat="50.57255" lon="3.44396">
        <ele>16.98</ele>
        <time>2023-05-19T11:42:32.984Z</time>
      </trkpt>
      <trkpt lat="50.57256" lon="3.44407">
        <ele>17.36</ele>
        <time>2023-05-19T11:42:35.221Z</time>
      </trkpt>
      <trkpt lat="50.57253" lon="3.44422">
        <ele>17.91</ele>
        <time>2023-05-19T11:42:37.460Z</time>
      </trkpt>
      <trkpt lat="50.57253" lon="3.44422">
        <ele>18.59</ele>
        <time>2023-05-19T11:42:39.699Z</time>
      </trkpt>
      <trkpt lat="50.57249" lon="3.44429">
        <ele>19.49</ele>
        <time>2023-05-19T11:42:41.939Z</time>
      </trkpt>
      <trkpt lat="50.57241" lon="3.44435">
        <ele>20.68</ele>
        <time>2023-05-19T11:42:44.180Z</time>
      </trkpt>
      <trkpt lat="50.57239" lon="3.44444">
        <ele>22.21</ele>
        <time>2023-05-19T11:42:46.422Z</time>
      </trkpt>
      <trkpt lat="50.57231" lon="3.44493">
        <ele>24.19</ele>
        <time>2023-05-19T11:42:48.669Z</time>
      </trkpt>
      <trkpt lat="50.57225" lon="3.4456">
        <ele>26.2</ele>
        <time>2023-05-19T11:42:50.923Z</time>
      </trkpt>
      <trkpt lat="50.57213" lon="3.44767">
        <ele>29.53</ele>
        <time>2023-05-19T11:42:53.198Z</time>
      </trkpt>
      <trkpt lat="50.57205" lon="3.4484">
        <ele>30.86</ele>
        <time>2023-05-19T11:42:55.481Z</time>
      </trkpt>
      <trkpt lat="50.57199" lon="3.44878">
        <ele>32.04</ele>
        <time>2023-05-19T11:42:57.768Z</time>
      </trkpt>
      <trkpt lat="50.57182" lon="3.44929">
        <ele>33.05</ele>
        <time>2023-05-19T11:43:00.061Z</time>
      </trkpt>
      <trkpt lat="50.57182" lon="3.44929">
        <ele>33.95</ele>
        <time>2023-05-19T11:43:02.354Z</time>
      </trkpt>
      <trkpt lat="50.57176" lon="3.44942">
        <ele>34.45</ele>
        <time>2023-05-19T11:43:04.648Z</time>
      </trkpt>
      <trkpt lat="50.57176" lon="3.44942">
        <ele>34.46</ele>
        <time>2023-05-19T11:43:06.942Z</time>
      </trkpt>
      <trkpt lat="50.57176" lon="3.44942">
        <ele>34.47</ele>
        <time>2023-05-19T11:43:09.236Z</time>
      </trkpt>
      <trkpt lat="50.57176" lon="3.44942">
        <ele>34.48</ele>
        <time>2023-05-19T11:43:11.530Z</time>
      </trkpt>
      <trkpt lat="50.57176" lon="3.44942">
        <ele>34.49</ele>
        <time>2023-05-19T11:43:13.824Z</time>
      </trkpt>
      <trkpt lat="50.57176" lon="3.44943">
        <ele>34.5</ele>
        <time>2023-05-19T11:43:16.118Z</time>
      </trkpt>
      <trkpt lat="50.57174" lon="3.44947">
        <ele>34.71</ele>
        <time>2023-05-19T11:43:18.413Z</time>
      </trkpt>
      <trkpt lat="50.57174" lon="3.44947">
        <ele>34.72</ele>
        <time>2023-05-19T11:43:20.708Z</time>
      </trkpt>
      <trkpt lat="50.57171" lon="3.44956">
        <ele>35.11</ele>
        <time>2023-05-19T11:43:23.004Z</time>
      </trkpt>
      <trkpt lat="50.57158" lon="3.44979">
        <ele>35.33</ele>
        <time>2023-05-19T11:43:25.303Z</time>
      </trkpt>
      <trkpt lat="50.57124" lon="3.45032">
        <ele>35.78</ele>
        <time>2023-05-19T11:43:27.610Z</time>
      </trkpt>
      <trkpt lat="50.57001" lon="3.4515">
        <ele>36.36</ele>
        <time>2023-05-19T11:43:29.940Z</time>
      </trkpt>
      <trkpt lat="50.56981" lon="3.45173">
        <ele>36.69</ele>
        <time>2023-05-19T11:43:32.274Z</time>
      </trkpt>
      <trkpt lat="50.56946" lon="3.45222">
        <ele>37.1</ele>
        <time>2023-05-19T11:43:34.615Z</time>
      </trkpt>
      <trkpt lat="50.56946" lon="3.45222">
        <ele>37.33</ele>
        <time>2023-05-19T11:43:36.956Z</time>
      </trkpt>
      <trkpt lat="50.56938" lon="3.4523">
        <ele>37.44</ele>
        <time>2023-05-19T11:43:39.299Z</time>
      </trkpt>
      <trkpt lat="50.56919" lon="3.45263">
        <ele>37.6</ele>
        <time>2023-05-19T11:43:41.646Z</time>
      </trkpt>
      <trkpt lat="50.56919" lon="3.45263">
        <ele>37.72</ele>
        <time>2023-05-19T11:43:43.993Z</time>
      </trkpt>
      <trkpt lat="50.56903" lon="3.45289">
        <ele>37.83</ele>
        <time>2023-05-19T11:43:46.344Z</time>
      </trkpt>
      <trkpt lat="50.56817" lon="3.45442">
        <ele>37.78</ele>
        <time>2023-05-19T11:43:48.716Z</time>
      </trkpt>
      <trkpt lat="50.56801" lon="3.45472">
        <ele>38.06</ele>
        <time>2023-05-19T11:43:51.092Z</time>
      </trkpt>
      <trkpt lat="50.5676" lon="3.4556">
        <ele>38.36</ele>
        <time>2023-05-19T11:43:53.479Z</time>
      </trkpt>
      <trkpt lat="50.56729" lon="3.45649">
        <ele>38.89</ele>
        <time>2023-05-19T11:43:55.876Z</time>
      </trkpt>
      <trkpt lat="50.56703" lon="3.45751">
        <ele>39.41</ele>
        <time>2023-05-19T11:43:58.285Z</time>
      </trkpt>
      <trkpt lat="50.5668" lon="3.45879">
        <ele>39.75</ele>
        <time>2023-05-19T11:44:00.707Z</time>
      </trkpt>
      <trkpt lat="50.56666" lon="3.46009">
        <ele>40.57</ele>
        <time>2023-05-19T11:44:03.143Z</time>
      </trkpt>
      <trkpt lat="50.5666" lon="3.46104">
        <ele>40.98</ele>
        <time>2023-05-19T11:44:05.588Z</time>
      </trkpt>
      <trkpt lat="50.56658" lon="3.46128">
        <ele>41.33</ele>
        <time>2023-05-19T11:44:08.036Z</time>
      </trkpt>
      <trkpt lat="50.56658" lon="3.46212">
        <ele>41.62</ele>
        <time>2023-05-19T11:44:10.493Z</time>
      </trkpt>
      <trkpt lat="50.56658" lon="3.46212">
        <ele>41.85</ele>
        <time>2023-05-19T11:44:12.950Z</time>
      </trkpt>
      <trkpt lat="50.56658" lon="3.46262">
        <ele>41.96</ele>
        <time>2023-05-19T11:44:15.412Z</time>
      </trkpt>
      <trkpt lat="50.56659" lon="3.46275">
        <ele>42.16</ele>
        <time>2023-05-19T11:44:17.875Z</time>
      </trkpt>
      <trkpt lat="50.5666" lon="3.46305">
        <ele>42.32</ele>
        <time>2023-05-19T11:44:20.341Z</time>
      </trkpt>
      <trkpt lat="50.56661" lon="3.46326">
        <ele>42.47</ele>
        <time>2023-05-19T11:44:22.809Z</time>
      </trkpt>
      <trkpt lat="50.56668" lon="3.464">
        <ele>42.54</ele>
        <time>2023-05-19T11:44:25.285Z</time>
      </trkpt>
      <trkpt lat="50.56668" lon="3.46401">
        <ele>42.42</ele>
        <time>2023-05-19T11:44:27.761Z</time>
      </trkpt>
      <trkpt lat="50.56675" lon="3.46474">
        <ele>42.06</ele>
        <time>2023-05-19T11:44:30.244Z</time>
      </trkpt>
      <trkpt lat="50.5668" lon="3.46522">
        <ele>41.99</ele>
        <time>2023-05-19T11:44:32.732Z</time>
      </trkpt>
      <trkpt lat="50.56686" lon="3.46567">
        <ele>42.22</ele>
        <time>2023-05-19T11:44:35.225Z</time>
      </trkpt>
      <trkpt lat="50.56694" lon="3.46624">
        <ele>42.71</ele>
        <time>2023-05-19T11:44:37.724Z</time>
      </trkpt>
      <trkpt lat="50.56717" lon="3.46782">
        <ele>43.34</ele>
        <time>2023-05-19T11:44:40.240Z</time>
      </trkpt>
      <trkpt lat="50.56742" lon="3.46947">
        <ele>43.57</ele>
        <time>2023-05-19T11:44:42.773Z</time>
      </trkpt>
      <trkpt lat="50.56742" lon="3.47048">
        <ele>44.47</ele>
        <time>2023-05-19T11:44:45.316Z</time>
      </trkpt>
      <trkpt lat="50.56739" lon="3.47076">
        <ele>44.61</ele>
        <time>2023-05-19T11:44:47.862Z</time>
      </trkpt>
      <trkpt lat="50.56739" lon="3.47076">
        <ele>44.62</ele>
        <time>2023-05-19T11:44:50.408Z</time>
      </trkpt>
      <trkpt lat="50.56739" lon="3.47076">
        <ele>44.64</ele>
        <time>2023-05-19T11:44:52.954Z</time>
      </trkpt>
      <trkpt lat="50.56739" lon="3.47076">
        <ele>44.65</ele>
        <time>2023-05-19T11:44:55.500Z</time>
      </trkpt>
      <trkpt lat="50.56739" lon="3.47076">
        <ele>44.66</ele>
        <time>2023-05-19T11:44:58.046Z</time>
      </trkpt>
      <trkpt lat="50.56739" lon="3.47082">
        <ele>44.7</ele>
        <time>2023-05-19T11:45:00.593Z</time>
      </trkpt>
      <trkpt lat="50.56739" lon="3.47082">
        <ele>44.71</ele>
        <time>2023-05-19T11:45:03.140Z</time>
      </trkpt>
      <trkpt lat="50.56732" lon="3.4716">
        <ele>44.41</ele>
        <time>2023-05-19T11:45:05.695Z</time>
      </trkpt>
      <trkpt lat="50.56732" lon="3.47192">
        <ele>44.27</ele>
        <time>2023-05-19T11:45:08.253Z</time>
      </trkpt>
      <trkpt lat="50.56733" lon="3.47209">
        <ele>44.3</ele>
        <time>2023-05-19T11:45:10.813Z</time>
      </trkpt>
      <trkpt lat="50.56742" lon="3.47241">
        <ele>44.43</ele>
        <time>2023-05-19T11:45:13.376Z</time>
      </trkpt>
      <trkpt lat="50.56774" lon="3.47365">
        <ele>44.62</ele>
        <time>2023-05-19T11:45:15.953Z</time>
      </trkpt>
      <trkpt lat="50.56812" lon="3.47507">
        <ele>45.05</ele>
        <time>2023-05-19T11:45:18.546Z</time>
      </trkpt>
      <trkpt lat="50.56815" lon="3.47518">
        <ele>45.41</ele>
        <time>2023-05-19T11:45:21.140Z</time>
      </trkpt>
      <trkpt lat="50.5682" lon="3.47528">
        <ele>45.78</ele>
        <time>2023-05-19T11:45:23.735Z</time>
      </trkpt>
      <trkpt lat="50.56828" lon="3.47537">
        <ele>46.15</ele>
        <time>2023-05-19T11:45:26.332Z</time>
      </trkpt>
      <trkpt lat="50.56897" lon="3.47572">
        <ele>46.79</ele>
        <time>2023-05-19T11:45:28.940Z</time>
      </trkpt>
      <trkpt lat="50.56944" lon="3.47599">
        <ele>47.17</ele>
        <time>2023-05-19T11:45:31.556Z</time>
      </trkpt>
      <trkpt lat="50.56963" lon="3.47614">
        <ele>47.55</ele>
        <time>2023-05-19T11:45:34.176Z</time>
      </trkpt>
      <trkpt lat="50.57079" lon="3.47757">
        <ele>47.77</ele>
        <time>2023-05-19T11:45:36.819Z</time>
      </trkpt>
      <trkpt lat="50.57091" lon="3.47773">
        <ele>47.98</ele>
        <time>2023-05-19T11:45:39.465Z</time>
      </trkpt>
      <trkpt lat="50.57107" lon="3.47799">
        <ele>48.16</ele>
        <time>2023-05-19T11:45:42.115Z</time>
      </trkpt>
      <trkpt lat="50.57122" lon="3.47834">
        <ele>48.33</ele>
        <time>2023-05-19T11:45:44.769Z</time>
      </trkpt>
      <trkpt lat="50.57133" lon="3.47873">
        <ele>48.57</ele>
        <time>2023-05-19T11:45:47.427Z</time>
      </trkpt>
      <trkpt lat="50.57171" lon="3.48065">
        <ele>48.68</ele>
        <time>2023-05-19T11:45:50.106Z</time>
      </trkpt>
      <trkpt lat="50.57174" lon="3.4809">
        <ele>48.87</ele>
        <time>2023-05-19T11:45:52.787Z</time>
      </trkpt>
      <trkpt lat="50.57174" lon="3.4809">
        <ele>49.06</ele>
        <time>2023-05-19T11:45:55.468Z</time>
      </trkpt>
      <trkpt lat="50.5718" lon="3.48099">
        <ele>49.3</ele>
        <time>2023-05-19T11:45:58.151Z</time>
      </trkpt>
      <trkpt lat="50.57234" lon="3.48362">
        <ele>49.75</ele>
        <time>2023-05-19T11:46:00.862Z</time>
      </trkpt>
      <trkpt lat="50.57246" lon="3.48417">
        <ele>50.2</ele>
        <time>2023-05-19T11:46:03.579Z</time>
      </trkpt>
      <trkpt lat="50.57246" lon="3.48417">
        <ele>50.49</ele>
        <time>2023-05-19T11:46:06.296Z</time>
      </trkpt>
      <trkpt lat="50.57253" lon="3.48448">
        <ele>50.88</ele>
        <time>2023-05-19T11:46:09.016Z</time>
      </trkpt>
      <trkpt lat="50.57263" lon="3.48502">
        <ele>51.12</ele>
        <time>2023-05-19T11:46:11.742Z</time>
      </trkpt>
      <trkpt lat="50.57263" lon="3.48502">
        <ele>51.4</ele>
        <time>2023-05-19T11:46:14.468Z</time>
      </trkpt>
      <trkpt lat="50.5728" lon="3.48588">
        <ele>51.56</ele>
        <time>2023-05-19T11:46:17.203Z</time>
      </trkpt>
      <trkpt lat="50.57297" lon="3.48643">
        <ele>51.84</ele>
        <time>2023-05-19T11:46:19.944Z</time>
      </trkpt>
      <trkpt lat="50.57343" lon="3.48768">
        <ele>52.22</ele>
        <time>2023-05-19T11:46:22.700Z</time>
      </trkpt>
      <trkpt lat="50.57349" lon="3.48789">
        <ele>52.73</ele>
        <time>2023-05-19T11:46:25.458Z</time>
      </trkpt>
      <trkpt lat="50.57354" lon="3.48814">
        <ele>53.33</ele>
        <time>2023-05-19T11:46:28.219Z</time>
      </trkpt>
      <trkpt lat="50.57353" lon="3.48768">
        <ele>54.82</ele>
        <time>2023-05-19T11:46:30.985Z</time>
      </trkpt>
      <trkpt lat="50.57338" lon="3.48512">
        <ele>55.98</ele>
        <time>2023-05-19T11:46:33.777Z</time>
      </trkpt>
      <trkpt lat="50.57343" lon="3.48485">
        <ele>57.02</ele>
        <time>2023-05-19T11:46:36.572Z</time>
      </trkpt>
      <trkpt lat="50.5735" lon="3.48478">
        <ele>58.11</ele>
        <time>2023-05-19T11:46:39.368Z</time>
      </trkpt>
      <trkpt lat="50.5735" lon="3.48478">
        <ele>59.21</ele>
        <time>2023-05-19T11:46:42.164Z</time>
      </trkpt>
      <trkpt lat="50.57368" lon="3.48467">
        <ele>60.4</ele>
        <time>2023-05-19T11:46:44.963Z</time>
      </trkpt>
      <trkpt lat="50.57483" lon="3.48417">
        <ele>61.75</ele>
        <time>2023-05-19T11:46:47.781Z</time>
      </trkpt>
      <trkpt lat="50.57614" lon="3.48355">
        <ele>63.06</ele>
        <time>2023-05-19T11:46:50.621Z</time>
      </trkpt>
      <trkpt lat="50.57732" lon="3.48307">
        <ele>64.37</ele>
        <time>2023-05-19T11:46:53.481Z</time>
      </trkpt>
      <trkpt lat="50.57751" lon="3.48305">
        <ele>65.23</ele>
        <time>2023-05-19T11:46:56.344Z</time>
      </trkpt>
      <trkpt lat="50.57835" lon="3.48271">
        <ele>65.86</ele>
        <time>2023-05-19T11:46:59.221Z</time>
      </trkpt>
      <trkpt lat="50.57835" lon="3.48271">
        <ele>66.24</ele>
        <time>2023-05-19T11:47:02.098Z</time>
      </trkpt>
      <trkpt lat="50.57853" lon="3.48264">
        <ele>66.47</ele>
        <time>2023-05-19T11:47:04.978Z</time>
      </trkpt>
      <trkpt lat="50.57867" lon="3.48263">
        <ele>66.4</ele>
        <time>2023-05-19T11:47:07.860Z</time>
      </trkpt>
      <trkpt lat="50.57903" lon="3.4827">
        <ele>65.95</ele>
        <time>2023-05-19T11:47:10.748Z</time>
      </trkpt>
      <trkpt lat="50.57923" lon="3.48264">
        <ele>65.36</ele>
        <time>2023-05-19T11:47:13.639Z</time>
      </trkpt>
      <trkpt lat="50.57945" lon="3.48263">
        <ele>64.57</ele>
        <time>2023-05-19T11:47:16.533Z</time>
      </trkpt>
      <trkpt lat="50.58048" lon="3.48287">
        <ele>63.31</ele>
        <time>2023-05-19T11:47:19.444Z</time>
      </trkpt>
      <trkpt lat="50.58072" lon="3.48298">
        <ele>62.21</ele>
        <time>2023-05-19T11:47:22.359Z</time>
      </trkpt>
      <trkpt lat="50.58217" lon="3.48385">
        <ele>60.86</ele>
        <time>2023-05-19T11:47:25.299Z</time>
      </trkpt>
      <trkpt lat="50.5826" lon="3.48401">
        <ele>59.49</ele>
        <time>2023-05-19T11:47:28.246Z</time>
      </trkpt>
      <trkpt lat="50.58286" lon="3.48404">
        <ele>58.08</ele>
        <time>2023-05-19T11:47:31.197Z</time>
      </trkpt>
      <trkpt lat="50.58311" lon="3.48405">
        <ele>56.71</ele>
        <time>2023-05-19T11:47:34.152Z</time>
      </trkpt>
      <trkpt lat="50.58516" lon="3.484">
        <ele>55.07</ele>
        <time>2023-05-19T11:47:37.140Z</time>
      </trkpt>
      <trkpt lat="50.58543" lon="3.4841">
        <ele>53.95</ele>
        <time>2023-05-19T11:47:40.133Z</time>
      </trkpt>
      <trkpt lat="50.58563" lon="3.48436">
        <ele>52.98</ele>
        <time>2023-05-19T11:47:43.130Z</time>
      </trkpt>
      <trkpt lat="50.5859" lon="3.48481">
        <ele>52.22</ele>
        <time>2023-05-19T11:47:46.133Z</time>
      </trkpt>
      <trkpt lat="50.58625" lon="3.48547">
        <ele>51.57</ele>
        <time>2023-05-19T11:47:49.145Z</time>
      </trkpt>
      <trkpt lat="50.58637" lon="3.48584">
        <ele>51.03</ele>
        <time>2023-05-19T11:47:52.161Z</time>
      </trkpt>
      <trkpt lat="50.58646" lon="3.48703">
        <ele>50.8</ele>
        <time>2023-05-19T11:47:55.189Z</time>
      </trkpt>
      <trkpt lat="50.58649" lon="3.48726">
        <ele>50.38</ele>
        <time>2023-05-19T11:47:58.220Z</time>
      </trkpt>
      <trkpt lat="50.58656" lon="3.48743">
        <ele>50</ele>
        <time>2023-05-19T11:48:01.253Z</time>
      </trkpt>
      <trkpt lat="50.58667" lon="3.48764">
        <ele>49.65</ele>
        <time>2023-05-19T11:48:04.288Z</time>
      </trkpt>
      <trkpt lat="50.58676" lon="3.48778">
        <ele>49.31</ele>
        <time>2023-05-19T11:48:07.325Z</time>
      </trkpt>
      <trkpt lat="50.58685" lon="3.48786">
        <ele>48.98</ele>
        <time>2023-05-19T11:48:10.364Z</time>
      </trkpt>
      <trkpt lat="50.58693" lon="3.4879">
        <ele>48.66</ele>
        <time>2023-05-19T11:48:13.405Z</time>
      </trkpt>
      <trkpt lat="50.58797" lon="3.48801">
        <ele>48.28</ele>
        <time>2023-05-19T11:48:16.462Z</time>
      </trkpt>
      <trkpt lat="50.58807" lon="3.48804">
        <ele>47.96</ele>
        <time>2023-05-19T11:48:19.521Z</time>
      </trkpt>
      <trkpt lat="50.58815" lon="3.48811">
        <ele>47.67</ele>
        <time>2023-05-19T11:48:22.581Z</time>
      </trkpt>
      <trkpt lat="50.58847" lon="3.48855">
        <ele>47.3</ele>
        <time>2023-05-19T11:48:25.648Z</time>
      </trkpt>
      <trkpt lat="50.58859" lon="3.48834">
        <ele>46.94</ele>
        <time>2023-05-19T11:48:28.718Z</time>
      </trkpt>
      <trkpt lat="50.58876" lon="3.488">
        <ele>46.71</ele>
        <time>2023-05-19T11:48:31.792Z</time>
      </trkpt>
      <trkpt lat="50.58898" lon="3.48765">
        <ele>46.47</ele>
        <time>2023-05-19T11:48:34.871Z</time>
      </trkpt>
      <trkpt lat="50.58929" lon="3.48711">
        <ele>46.22</ele>
        <time>2023-05-19T11:48:37.958Z</time>
      </trkpt>
      <trkpt lat="50.58944" lon="3.48719">
        <ele>46.01</ele>
        <time>2023-05-19T11:48:41.047Z</time>
      </trkpt>
      <trkpt lat="50.58963" lon="3.48726">
        <ele>45.82</ele>
        <time>2023-05-19T11:48:44.139Z</time>
      </trkpt>
      <trkpt lat="50.5898" lon="3.48729">
        <ele>45.63</ele>
        <time>2023-05-19T11:48:47.234Z</time>
      </trkpt>
      <trkpt lat="50.58996" lon="3.48724">
        <ele>45.41</ele>
        <time>2023-05-19T11:48:50.332Z</time>
      </trkpt>
      <trkpt lat="50.59015" lon="3.4871">
        <ele>45.23</ele>
        <time>2023-05-19T11:48:53.433Z</time>
      </trkpt>
      <trkpt lat="50.59026" lon="3.48699">
        <ele>45.08</ele>
        <time>2023-05-19T11:48:56.536Z</time>
      </trkpt>
      <trkpt lat="50.59039" lon="3.48676">
        <ele>44.93</ele>
        <time>2023-05-19T11:48:59.642Z</time>
      </trkpt>
      <trkpt lat="50.59042" lon="3.48656">
        <ele>44.75</ele>
        <time>2023-05-19T11:49:02.750Z</time>
      </trkpt>
      <trkpt lat="50.59041" lon="3.48578">
        <ele>44.6</ele>
        <time>2023-05-19T11:49:05.866Z</time>
      </trkpt>
      <trkpt lat="50.59039" lon="3.48508">
        <ele>44.34</ele>
        <time>2023-05-19T11:49:08.990Z</time>
      </trkpt>
      <trkpt lat="50.59042" lon="3.48498">
        <ele>44.17</ele>
        <time>2023-05-19T11:49:12.115Z</time>
      </trkpt>
      <trkpt lat="50.59071" lon="3.48457">
        <ele>44.06</ele>
        <time>2023-05-19T11:49:15.246Z</time>
      </trkpt>
      <trkpt lat="50.59089" lon="3.4842">
        <ele>43.95</ele>
        <time>2023-05-19T11:49:18.382Z</time>
      </trkpt>
      <trkpt lat="50.59099" lon="3.48388">
        <ele>43.81</ele>
        <time>2023-05-19T11:49:21.521Z</time>
      </trkpt>
      <trkpt lat="50.59102" lon="3.48367">
        <ele>43.5</ele>
        <time>2023-05-19T11:49:24.662Z</time>
      </trkpt>
      <trkpt lat="50.5911" lon="3.48351">
        <ele>43.14</ele>
        <time>2023-05-19T11:49:27.805Z</time>
      </trkpt>
      <trkpt lat="50.59123" lon="3.48336">
        <ele>42.71</ele>
        <time>2023-05-19T11:49:30.951Z</time>
      </trkpt>
      <trkpt lat="50.59198" lon="3.48302">
        <ele>42.09</ele>
        <time>2023-05-19T11:49:34.110Z</time>
      </trkpt>
      <trkpt lat="50.59243" lon="3.48273">
        <ele>41.43</ele>
        <time>2023-05-19T11:49:37.276Z</time>
      </trkpt>
      <trkpt lat="50.59332" lon="3.48142">
        <ele>40.72</ele>
        <time>2023-05-19T11:49:40.462Z</time>
      </trkpt>
      <trkpt lat="50.59369" lon="3.48082">
        <ele>40.42</ele>
        <time>2023-05-19T11:49:43.656Z</time>
      </trkpt>
      <trkpt lat="50.59315" lon="3.48023">
        <ele>40.82</ele>
        <time>2023-05-19T11:49:46.861Z</time>
      </trkpt>
      <trkpt lat="50.59304" lon="3.48014">
        <ele>40.69</ele>
        <time>2023-05-19T11:49:50.068Z</time>
      </trkpt>
      <trkpt lat="50.59227" lon="3.47948">
        <ele>40.52</ele>
        <time>2023-05-19T11:49:53.289Z</time>
      </trkpt>
      <trkpt lat="50.59219" lon="3.47937">
        <ele>40.52</ele>
        <time>2023-05-19T11:49:56.512Z</time>
      </trkpt>
      <trkpt lat="50.59216" lon="3.4792">
        <ele>40.58</ele>
        <time>2023-05-19T11:49:59.737Z</time>
      </trkpt>
      <trkpt lat="50.59222" lon="3.47887">
        <ele>40.68</ele>
        <time>2023-05-19T11:50:02.965Z</time>
      </trkpt>
      <trkpt lat="50.59245" lon="3.47798">
        <ele>40.69</ele>
        <time>2023-05-19T11:50:06.203Z</time>
      </trkpt>
      <trkpt lat="50.59267" lon="3.47728">
        <ele>40.49</ele>
        <time>2023-05-19T11:50:09.449Z</time>
      </trkpt>
      <trkpt lat="50.59281" lon="3.47696">
        <ele>40.37</ele>
        <time>2023-05-19T11:50:12.699Z</time>
      </trkpt>
      <trkpt lat="50.59281" lon="3.47696">
        <ele>40.36</ele>
        <time>2023-05-19T11:50:15.949Z</time>
      </trkpt>
      <trkpt lat="50.59314" lon="3.47621">
        <ele>40.23</ele>
        <time>2023-05-19T11:50:19.208Z</time>
      </trkpt>
      <trkpt lat="50.5933" lon="3.47563">
        <ele>40.64</ele>
        <time>2023-05-19T11:50:22.474Z</time>
      </trkpt>
      <trkpt lat="50.5933" lon="3.47563">
        <ele>40.91</ele>
        <time>2023-05-19T11:50:25.740Z</time>
      </trkpt>
      <trkpt lat="50.59349" lon="3.47484">
        <ele>41.42</ele>
        <time>2023-05-19T11:50:29.014Z</time>
      </trkpt>
      <trkpt lat="50.59356" lon="3.47475">
        <ele>41.72</ele>
        <time>2023-05-19T11:50:32.290Z</time>
      </trkpt>
      <trkpt lat="50.59381" lon="3.47432">
        <ele>41.87</ele>
        <time>2023-05-19T11:50:35.572Z</time>
      </trkpt>
      <trkpt lat="50.59426" lon="3.47386">
        <ele>41.92</ele>
        <time>2023-05-19T11:50:38.862Z</time>
      </trkpt>
      <trkpt lat="50.59426" lon="3.47386">
        <ele>41.92</ele>
        <time>2023-05-19T11:50:42.152Z</time>
      </trkpt>
      <trkpt lat="50.59426" lon="3.47386">
        <ele>41.93</ele>
        <time>2023-05-19T11:50:45.442Z</time>
      </trkpt>
      <trkpt lat="50.59426" lon="3.47386">
        <ele>41.94</ele>
        <time>2023-05-19T11:50:48.732Z</time>
      </trkpt>
      <trkpt lat="50.59426" lon="3.47386">
        <ele>41.95</ele>
        <time>2023-05-19T11:50:52.022Z</time>
      </trkpt>
      <trkpt lat="50.59426" lon="3.47386">
        <ele>41.96</ele>
        <time>2023-05-19T11:50:55.312Z</time>
      </trkpt>
      <trkpt lat="50.59429" lon="3.47383">
        <ele>41.97</ele>
        <time>2023-05-19T11:50:58.603Z</time>
      </trkpt>
      <trkpt lat="50.59429" lon="3.47383">
        <ele>41.98</ele>
        <time>2023-05-19T11:51:01.894Z</time>
      </trkpt>
      <trkpt lat="50.59432" lon="3.4738">
        <ele>41.99</ele>
        <time>2023-05-19T11:51:05.185Z</time>
      </trkpt>
      <trkpt lat="50.59515" lon="3.47315">
        <ele>41.34</ele>
        <time>2023-05-19T11:51:08.491Z</time>
      </trkpt>
      <trkpt lat="50.59575" lon="3.4728">
        <ele>40.77</ele>
        <time>2023-05-19T11:51:11.807Z</time>
      </trkpt>
      <trkpt lat="50.59581" lon="3.47228">
        <ele>39.78</ele>
        <time>2023-05-19T11:51:15.129Z</time>
      </trkpt>
      <trkpt lat="50.59596" lon="3.47123">
        <ele>39.34</ele>
        <time>2023-05-19T11:51:18.462Z</time>
      </trkpt>
      <trkpt lat="50.59596" lon="3.47123">
        <ele>39.34</ele>
        <time>2023-05-19T11:51:21.795Z</time>
      </trkpt>
      <trkpt lat="50.59596" lon="3.47123">
        <ele>39.34</ele>
        <time>2023-05-19T11:51:25.128Z</time>
      </trkpt>
      <trkpt lat="50.59596" lon="3.47123">
        <ele>39.34</ele>
        <time>2023-05-19T11:51:28.461Z</time>
      </trkpt>
      <trkpt lat="50.59596" lon="3.47123">
        <ele>39.34</ele>
        <time>2023-05-19T11:51:31.794Z</time>
      </trkpt>
      <trkpt lat="50.59596" lon="3.47123">
        <ele>39.34</ele>
        <time>2023-05-19T11:51:35.127Z</time>
      </trkpt>
      <trkpt lat="50.59597" lon="3.47118">
        <ele>39.32</ele>
        <time>2023-05-19T11:51:38.460Z</time>
      </trkpt>
      <trkpt lat="50.59597" lon="3.47118">
        <ele>39.32</ele>
        <time>2023-05-19T11:51:41.793Z</time>
      </trkpt>
      <trkpt lat="50.59597" lon="3.47118">
        <ele>39.25</ele>
        <time>2023-05-19T11:51:45.126Z</time>
      </trkpt>
      <trkpt lat="50.59602" lon="3.47085">
        <ele>40.02</ele>
        <time>2023-05-19T11:51:48.463Z</time>
      </trkpt>
      <trkpt lat="50.59602" lon="3.47085">
        <ele>40.01</ele>
        <time>2023-05-19T11:51:51.800Z</time>
      </trkpt>
      <trkpt lat="50.59616" lon="3.46988">
        <ele>39.69</ele>
        <time>2023-05-19T11:51:55.147Z</time>
      </trkpt>
      <trkpt lat="50.59628" lon="3.46912">
        <ele>39.33</ele>
        <time>2023-05-19T11:51:58.502Z</time>
      </trkpt>
      <trkpt lat="50.59628" lon="3.46912">
        <ele>38.99</ele>
        <time>2023-05-19T11:52:01.857Z</time>
      </trkpt>
      <trkpt lat="50.59633" lon="3.46885">
        <ele>38.55</ele>
        <time>2023-05-19T11:52:05.215Z</time>
      </trkpt>
      <trkpt lat="50.59641" lon="3.46846">
        <ele>38.04</ele>
        <time>2023-05-19T11:52:08.577Z</time>
      </trkpt>
      <trkpt lat="50.59643" lon="3.46847">
        <ele>37.45</ele>
        <time>2023-05-19T11:52:11.939Z</time>
      </trkpt>
      <trkpt lat="50.59748" lon="3.46916">
        <ele>36.6</ele>
        <time>2023-05-19T11:52:15.320Z</time>
      </trkpt>
      <trkpt lat="50.59802" lon="3.4695">
        <ele>35.62</ele>
        <time>2023-05-19T11:52:18.710Z</time>
      </trkpt>
      <trkpt lat="50.59859" lon="3.46987">
        <ele>34.44</ele>
        <time>2023-05-19T11:52:22.110Z</time>
      </trkpt>
      <trkpt lat="50.59863" lon="3.46989">
        <ele>33.39</ele>
        <time>2023-05-19T11:52:25.511Z</time>
      </trkpt>
      <trkpt lat="50.59938" lon="3.47033">
        <ele>31.85</ele>
        <time>2023-05-19T11:52:28.924Z</time>
      </trkpt>
      <trkpt lat="50.59958" lon="3.47034">
        <ele>30.66</ele>
        <time>2023-05-19T11:52:32.341Z</time>
      </trkpt>
      <trkpt lat="50.60084" lon="3.46996">
        <ele>29.54</ele>
        <time>2023-05-19T11:52:35.778Z</time>
      </trkpt>
      <trkpt lat="50.60096" lon="3.47001">
        <ele>28.55</ele>
        <time>2023-05-19T11:52:39.217Z</time>
      </trkpt>
      <trkpt lat="50.60106" lon="3.47009">
        <ele>27.69</ele>
        <time>2023-05-19T11:52:42.658Z</time>
      </trkpt>
      <trkpt lat="50.60118" lon="3.47021">
        <ele>27</ele>
        <time>2023-05-19T11:52:46.101Z</time>
      </trkpt>
      <trkpt lat="50.60172" lon="3.47099">
        <ele>26.61</ele>
        <time>2023-05-19T11:52:49.556Z</time>
      </trkpt>
      <trkpt lat="50.60206" lon="3.47138">
        <ele>26.8</ele>
        <time>2023-05-19T11:52:53.018Z</time>
      </trkpt>
      <trkpt lat="50.60251" lon="3.47181">
        <ele>27.15</ele>
        <time>2023-05-19T11:52:56.488Z</time>
      </trkpt>
      <trkpt lat="50.60251" lon="3.47181">
        <ele>27.16</ele>
        <time>2023-05-19T11:52:59.958Z</time>
      </trkpt>
      <trkpt lat="50.60251" lon="3.47181">
        <ele>27.17</ele>
        <time>2023-05-19T11:53:03.428Z</time>
      </trkpt>
      <trkpt lat="50.60251" lon="3.47181">
        <ele>27.18</ele>
        <time>2023-05-19T11:53:06.898Z</time>
      </trkpt>
      <trkpt lat="50.60251" lon="3.47181">
        <ele>27.19</ele>
        <time>2023-05-19T11:53:10.368Z</time>
      </trkpt>
      <trkpt lat="50.60251" lon="3.47181">
        <ele>27.2</ele>
        <time>2023-05-19T11:53:13.838Z</time>
      </trkpt>
      <trkpt lat="50.60255" lon="3.47184">
        <ele>27.24</ele>
        <time>2023-05-19T11:53:17.309Z</time>
      </trkpt>
      <trkpt lat="50.60255" lon="3.47184">
        <ele>27.25</ele>
        <time>2023-05-19T11:53:20.780Z</time>
      </trkpt>
      <trkpt lat="50.60255" lon="3.47184">
        <ele>27.6</ele>
        <time>2023-05-19T11:53:24.251Z</time>
      </trkpt>
      <trkpt lat="50.60255" lon="3.47184">
        <ele>27.61</ele>
        <time>2023-05-19T11:53:27.722Z</time>
      </trkpt>
      <trkpt lat="50.60255" lon="3.47184">
        <ele>27.62</ele>
        <time>2023-05-19T11:53:31.193Z</time>
      </trkpt>
      <trkpt lat="50.60256" lon="3.47185">
        <ele>27.63</ele>
        <time>2023-05-19T11:53:34.664Z</time>
      </trkpt>
      <trkpt lat="50.60258" lon="3.47187">
        <ele>26.99</ele>
        <time>2023-05-19T11:53:38.135Z</time>
      </trkpt>
      <trkpt lat="50.60258" lon="3.47187">
        <ele>26.98</ele>
        <time>2023-05-19T11:53:41.606Z</time>
      </trkpt>
      <trkpt lat="50.60305" lon="3.47216">
        <ele>26.28</ele>
        <time>2023-05-19T11:53:45.085Z</time>
      </trkpt>
      <trkpt lat="50.60305" lon="3.47216">
        <ele>25.66</ele>
        <time>2023-05-19T11:53:48.564Z</time>
      </trkpt>
      <trkpt lat="50.60311" lon="3.47219">
        <ele>25.05</ele>
        <time>2023-05-19T11:53:52.045Z</time>
      </trkpt>
      <trkpt lat="50.60354" lon="3.47232">
        <ele>24.29</ele>
        <time>2023-05-19T11:53:55.533Z</time>
      </trkpt>
      <trkpt lat="50.60385" lon="3.47232">
        <ele>23.44</ele>
        <time>2023-05-19T11:53:59.026Z</time>
      </trkpt>
      <trkpt lat="50.60404" lon="3.4723">
        <ele>22.53</ele>
        <time>2023-05-19T11:54:02.521Z</time>
      </trkpt>
      <trkpt lat="50.60465" lon="3.47211">
        <ele>21.74</ele>
        <time>2023-05-19T11:54:06.026Z</time>
      </trkpt>
      <trkpt lat="50.60516" lon="3.47202">
        <ele>21</ele>
        <time>2023-05-19T11:54:09.540Z</time>
      </trkpt>
      <trkpt lat="50.60555" lon="3.47209">
        <ele>20.77</ele>
        <time>2023-05-19T11:54:13.060Z</time>
      </trkpt>
      <trkpt lat="50.60613" lon="3.47237">
        <ele>20.33</ele>
        <time>2023-05-19T11:54:16.590Z</time>
      </trkpt>
      <trkpt lat="50.60759" lon="3.47354">
        <ele>20.75</ele>
        <time>2023-05-19T11:54:20.146Z</time>
      </trkpt>
      <trkpt lat="50.6085" lon="3.47419">
        <ele>21.71</ele>
        <time>2023-05-19T11:54:23.718Z</time>
      </trkpt>
      <trkpt lat="50.60975" lon="3.47513">
        <ele>22.94</ele>
        <time>2023-05-19T11:54:27.312Z</time>
      </trkpt>
      <trkpt lat="50.6098" lon="3.47517">
        <ele>23.98</ele>
        <time>2023-05-19T11:54:30.907Z</time>
      </trkpt>
      <trkpt lat="50.61076" lon="3.47589">
        <ele>25.35</ele>
        <time>2023-05-19T11:54:34.519Z</time>
      </trkpt>
      <trkpt lat="50.61099" lon="3.47599">
        <ele>26.8</ele>
        <time>2023-05-19T11:54:38.135Z</time>
      </trkpt>
      <trkpt lat="50.61139" lon="3.47606">
        <ele>28.38</ele>
        <time>2023-05-19T11:54:41.757Z</time>
      </trkpt>
      <trkpt lat="50.61163" lon="3.47607">
        <ele>29.52</ele>
        <time>2023-05-19T11:54:45.383Z</time>
      </trkpt>
      <trkpt lat="50.61211" lon="3.47601">
        <ele>30.32</ele>
        <time>2023-05-19T11:54:49.017Z</time>
      </trkpt>
      <trkpt lat="50.61226" lon="3.47744">
        <ele>31.23</ele>
        <time>2023-05-19T11:54:52.666Z</time>
      </trkpt>
      <trkpt lat="50.61229" lon="3.47778">
        <ele>31.64</ele>
        <time>2023-05-19T11:54:56.318Z</time>
      </trkpt>
      <trkpt lat="50.61226" lon="3.47806">
        <ele>31.97</ele>
        <time>2023-05-19T11:54:59.973Z</time>
      </trkpt>
      <trkpt lat="50.61222" lon="3.47834">
        <ele>32.33</ele>
        <time>2023-05-19T11:55:03.631Z</time>
      </trkpt>
      <trkpt lat="50.61214" lon="3.47861">
        <ele>32.61</ele>
        <time>2023-05-19T11:55:07.292Z</time>
      </trkpt>
      <trkpt lat="50.612" lon="3.4789">
        <ele>32.72</ele>
        <time>2023-05-19T11:55:10.957Z</time>
      </trkpt>
      <trkpt lat="50.61189" lon="3.47907">
        <ele>32.82</ele>
        <time>2023-05-19T11:55:14.624Z</time>
      </trkpt>
      <trkpt lat="50.61178" lon="3.47916">
        <ele>32.86</ele>
        <time>2023-05-19T11:55:18.293Z</time>
      </trkpt>
      <trkpt lat="50.61142" lon="3.47975">
        <ele>32.83</ele>
        <time>2023-05-19T11:55:21.971Z</time>
      </trkpt>
      <trkpt lat="50.61134" lon="3.47993">
        <ele>32.69</ele>
        <time>2023-05-19T11:55:25.651Z</time>
      </trkpt>
      <trkpt lat="50.61133" lon="3.48008">
        <ele>32.61</ele>
        <time>2023-05-19T11:55:29.332Z</time>
      </trkpt>
      <trkpt lat="50.61133" lon="3.48021">
        <ele>32.59</ele>
        <time>2023-05-19T11:55:33.015Z</time>
      </trkpt>
      <trkpt lat="50.61139" lon="3.48042">
        <ele>32.55</ele>
        <time>2023-05-19T11:55:36.700Z</time>
      </trkpt>
      <trkpt lat="50.61154" lon="3.48083">
        <ele>32.68</ele>
        <time>2023-05-19T11:55:40.390Z</time>
      </trkpt>
      <trkpt lat="50.61171" lon="3.48157">
        <ele>33.06</ele>
        <time>2023-05-19T11:55:44.088Z</time>
      </trkpt>
      <trkpt lat="50.61176" lon="3.48169">
        <ele>33.25</ele>
        <time>2023-05-19T11:55:47.787Z</time>
      </trkpt>
      <trkpt lat="50.61162" lon="3.48181">
        <ele>33.4</ele>
        <time>2023-05-19T11:55:51.489Z</time>
      </trkpt>
      <trkpt lat="50.61102" lon="3.48241">
        <ele>33.73</ele>
        <time>2023-05-19T11:55:55.202Z</time>
      </trkpt>
      <trkpt lat="50.61072" lon="3.48264">
        <ele>33.92</ele>
        <time>2023-05-19T11:55:58.921Z</time>
      </trkpt>
      <trkpt lat="50.61044" lon="3.48315">
        <ele>34.14</ele>
        <time>2023-05-19T11:56:02.647Z</time>
      </trkpt>
      <trkpt lat="50.61044" lon="3.48315">
        <ele>34.15</ele>
        <time>2023-05-19T11:56:06.373Z</time>
      </trkpt>
      <trkpt lat="50.61044" lon="3.48315">
        <ele>34.16</ele>
        <time>2023-05-19T11:56:10.099Z</time>
      </trkpt>
      <trkpt lat="50.61044" lon="3.48315">
        <ele>34.17</ele>
        <time>2023-05-19T11:56:13.825Z</time>
      </trkpt>
      <trkpt lat="50.61044" lon="3.48315">
        <ele>34.18</ele>
        <time>2023-05-19T11:56:17.551Z</time>
      </trkpt>
      <trkpt lat="50.61044" lon="3.48316">
        <ele>34.19</ele>
        <time>2023-05-19T11:56:21.277Z</time>
      </trkpt>
      <trkpt lat="50.61041" lon="3.4832">
        <ele>34.22</ele>
        <time>2023-05-19T11:56:25.003Z</time>
      </trkpt>
      <trkpt lat="50.61041" lon="3.4832">
        <ele>34.23</ele>
        <time>2023-05-19T11:56:28.729Z</time>
      </trkpt>
      <trkpt lat="50.61041" lon="3.4832">
        <ele>34.24</ele>
        <time>2023-05-19T11:56:32.455Z</time>
      </trkpt>
      <trkpt lat="50.61041" lon="3.4832">
        <ele>34.25</ele>
        <time>2023-05-19T11:56:36.181Z</time>
      </trkpt>
      <trkpt lat="50.61039" lon="3.48325">
        <ele>34.28</ele>
        <time>2023-05-19T11:56:39.908Z</time>
      </trkpt>
      <trkpt lat="50.61039" lon="3.48325">
        <ele>34.29</ele>
        <time>2023-05-19T11:56:43.635Z</time>
      </trkpt>
      <trkpt lat="50.61025" lon="3.4835">
        <ele>34.32</ele>
        <time>2023-05-19T11:56:47.365Z</time>
      </trkpt>
      <trkpt lat="50.60949" lon="3.4855">
        <ele>40.73</ele>
        <time>2023-05-19T11:56:51.119Z</time>
      </trkpt>
      <trkpt lat="50.61236" lon="3.48776">
        <ele>33.2</ele>
        <time>2023-05-19T11:56:54.924Z</time>
      </trkpt>
      <trkpt lat="50.61341" lon="3.4886">
        <ele>38.86</ele>
        <time>2023-05-19T11:56:58.748Z</time>
      </trkpt>
      <trkpt lat="50.61357" lon="3.48873">
        <ele>39.84</ele>
        <time>2023-05-19T11:57:02.575Z</time>
      </trkpt>
      <trkpt lat="50.61357" lon="3.48873">
        <ele>39.84</ele>
        <time>2023-05-19T11:57:06.402Z</time>
      </trkpt>
      <trkpt lat="50.61425" lon="3.48934">
        <ele>38.45</ele>
        <time>2023-05-19T11:57:10.242Z</time>
      </trkpt>
      <trkpt lat="50.61453" lon="3.48934">
        <ele>37.64</ele>
        <time>2023-05-19T11:57:14.086Z</time>
      </trkpt>
      <trkpt lat="50.61568" lon="3.4892">
        <ele>36.3</ele>
        <time>2023-05-19T11:57:17.949Z</time>
      </trkpt>
      <trkpt lat="50.61568" lon="3.4892">
        <ele>36.3</ele>
        <time>2023-05-19T11:57:21.812Z</time>
      </trkpt>
      <trkpt lat="50.61568" lon="3.4892">
        <ele>36.3</ele>
        <time>2023-05-19T11:57:25.675Z</time>
      </trkpt>
      <trkpt lat="50.61568" lon="3.4892">
        <ele>36.3</ele>
        <time>2023-05-19T11:57:29.538Z</time>
      </trkpt>
      <trkpt lat="50.61568" lon="3.4892">
        <ele>36.3</ele>
        <time>2023-05-19T11:57:33.401Z</time>
      </trkpt>
      <trkpt lat="50.61568" lon="3.4892">
        <ele>36.3</ele>
        <time>2023-05-19T11:57:37.264Z</time>
      </trkpt>
      <trkpt lat="50.61572" lon="3.48919">
        <ele>36.26</ele>
        <time>2023-05-19T11:57:41.127Z</time>
      </trkpt>
      <trkpt lat="50.61572" lon="3.48919">
        <ele>36.26</ele>
        <time>2023-05-19T11:57:44.990Z</time>
      </trkpt>
      <trkpt lat="50.61572" lon="3.48919">
        <ele>36.26</ele>
        <time>2023-05-19T11:57:48.853Z</time>
      </trkpt>
      <trkpt lat="50.61572" lon="3.48919">
        <ele>36.26</ele>
        <time>2023-05-19T11:57:52.716Z</time>
      </trkpt>
      <trkpt lat="50.61576" lon="3.48919">
        <ele>36.22</ele>
        <time>2023-05-19T11:57:56.580Z</time>
      </trkpt>
      <trkpt lat="50.61576" lon="3.48919">
        <ele>36.22</ele>
        <time>2023-05-19T11:58:00.444Z</time>
      </trkpt>
      <trkpt lat="50.61645" lon="3.4891">
        <ele>35.75</ele>
        <time>2023-05-19T11:58:04.319Z</time>
      </trkpt>
      <trkpt lat="50.61729" lon="3.489">
        <ele>34.57</ele>
        <time>2023-05-19T11:58:08.207Z</time>
      </trkpt>
      <trkpt lat="50.61733" lon="3.48915">
        <ele>33.91</ele>
        <time>2023-05-19T11:58:12.097Z</time>
      </trkpt>
      <trkpt lat="50.61775" lon="3.48891">
        <ele>33.04</ele>
        <time>2023-05-19T11:58:15.994Z</time>
      </trkpt>
      <trkpt lat="50.61804" lon="3.48857">
        <ele>32.35</ele>
        <time>2023-05-19T11:58:19.897Z</time>
      </trkpt>
      <trkpt lat="50.61875" lon="3.48784">
        <ele>31.66</ele>
        <time>2023-05-19T11:58:23.814Z</time>
      </trkpt>
      <trkpt lat="50.61896" lon="3.48773">
        <ele>31.66</ele>
        <time>2023-05-19T11:58:27.734Z</time>
      </trkpt>
      <trkpt lat="50.61903" lon="3.48769">
        <ele>32.26</ele>
        <time>2023-05-19T11:58:31.656Z</time>
      </trkpt>
      <trkpt lat="50.61981" lon="3.4873">
        <ele>34.02</ele>
        <time>2023-05-19T11:58:35.591Z</time>
      </trkpt>
      <trkpt lat="50.61998" lon="3.48689">
        <ele>35.62</ele>
        <time>2023-05-19T11:58:39.531Z</time>
      </trkpt>
      <trkpt lat="50.62008" lon="3.48611">
        <ele>37.41</ele>
        <time>2023-05-19T11:58:43.479Z</time>
      </trkpt>
      <trkpt lat="50.62032" lon="3.48566">
        <ele>38.97</ele>
        <time>2023-05-19T11:58:47.433Z</time>
      </trkpt>
      <trkpt lat="50.6204" lon="3.48561">
        <ele>39.6</ele>
        <time>2023-05-19T11:58:51.388Z</time>
      </trkpt>
      <trkpt lat="50.6204" lon="3.48561">
        <ele>39.61</ele>
        <time>2023-05-19T11:58:55.343Z</time>
      </trkpt>
      <trkpt lat="50.6204" lon="3.48561">
        <ele>39.62</ele>
        <time>2023-05-19T11:58:59.298Z</time>
      </trkpt>
      <trkpt lat="50.6204" lon="3.48561">
        <ele>39.63</ele>
        <time>2023-05-19T11:59:03.253Z</time>
      </trkpt>
      <trkpt lat="50.6204" lon="3.48561">
        <ele>39.64</ele>
        <time>2023-05-19T11:59:07.208Z</time>
      </trkpt>
      <trkpt lat="50.62041" lon="3.48561">
        <ele>39.65</ele>
        <time>2023-05-19T11:59:11.163Z</time>
      </trkpt>
      <trkpt lat="50.62044" lon="3.48559">
        <ele>39.96</ele>
        <time>2023-05-19T11:59:15.119Z</time>
      </trkpt>
      <trkpt lat="50.62044" lon="3.48559">
        <ele>39.97</ele>
        <time>2023-05-19T11:59:19.075Z</time>
      </trkpt>
      <trkpt lat="50.62044" lon="3.48559">
        <ele>39.98</ele>
        <time>2023-05-19T11:59:23.031Z</time>
      </trkpt>
      <trkpt lat="50.62044" lon="3.48559">
        <ele>39.99</ele>
        <time>2023-05-19T11:59:26.987Z</time>
      </trkpt>
      <trkpt lat="50.62047" lon="3.48557">
        <ele>40.23</ele>
        <time>2023-05-19T11:59:30.943Z</time>
      </trkpt>
      <trkpt lat="50.62048" lon="3.48557">
        <ele>40.98</ele>
        <time>2023-05-19T11:59:34.899Z</time>
      </trkpt>
      <trkpt lat="50.62048" lon="3.48557">
        <ele>41.08</ele>
        <time>2023-05-19T11:59:38.855Z</time>
      </trkpt>
      <trkpt lat="50.62048" lon="3.48557">
        <ele>42.27</ele>
        <time>2023-05-19T11:59:42.811Z</time>
      </trkpt>
      <trkpt lat="50.62079" lon="3.48549">
        <ele>43.16</ele>
        <time>2023-05-19T11:59:46.773Z</time>
      </trkpt>
      <trkpt lat="50.62096" lon="3.48549">
        <ele>44.03</ele>
        <time>2023-05-19T11:59:50.737Z</time>
      </trkpt>
      <trkpt lat="50.6212" lon="3.48549">
        <ele>45.1</ele>
        <time>2023-05-19T11:59:54.705Z</time>
      </trkpt>
      <trkpt lat="50.62152" lon="3.48552">
        <ele>46.39</ele>
        <time>2023-05-19T11:59:58.678Z</time>
      </trkpt>
      <trkpt lat="50.62197" lon="3.48553">
        <ele>48.34</ele>
        <time>2023-05-19T12:00:02.658Z</time>
      </trkpt>
      <trkpt lat="50.62245" lon="3.48542">
        <ele>50.56</ele>
        <time>2023-05-19T12:00:06.646Z</time>
      </trkpt>
      <trkpt lat="50.62347" lon="3.48537">
        <ele>52.86</ele>
        <time>2023-05-19T12:00:10.650Z</time>
      </trkpt>
      <trkpt lat="50.62365" lon="3.48535">
        <ele>54.87</ele>
        <time>2023-05-19T12:00:14.657Z</time>
      </trkpt>
      <trkpt lat="50.62365" lon="3.48535">
        <ele>54.88</ele>
        <time>2023-05-19T12:00:18.664Z</time>
      </trkpt>
      <trkpt lat="50.62365" lon="3.48535">
        <ele>54.89</ele>
        <time>2023-05-19T12:00:22.671Z</time>
      </trkpt>
      <trkpt lat="50.62365" lon="3.48535">
        <ele>54.9</ele>
        <time>2023-05-19T12:00:26.678Z</time>
      </trkpt>
      <trkpt lat="50.62365" lon="3.48535">
        <ele>54.91</ele>
        <time>2023-05-19T12:00:30.685Z</time>
      </trkpt>
      <trkpt lat="50.62365" lon="3.48535">
        <ele>54.92</ele>
        <time>2023-05-19T12:00:34.692Z</time>
      </trkpt>
      <trkpt lat="50.62369" lon="3.48534">
        <ele>55.36</ele>
        <time>2023-05-19T12:00:38.700Z</time>
      </trkpt>
      <trkpt lat="50.62369" lon="3.48534">
        <ele>55.37</ele>
        <time>2023-05-19T12:00:42.708Z</time>
      </trkpt>
      <trkpt lat="50.62369" lon="3.48534">
        <ele>55.38</ele>
        <time>2023-05-19T12:00:46.716Z</time>
      </trkpt>
      <trkpt lat="50.62369" lon="3.48534">
        <ele>55.39</ele>
        <time>2023-05-19T12:00:50.724Z</time>
      </trkpt>
      <trkpt lat="50.62373" lon="3.48534">
        <ele>55.8</ele>
        <time>2023-05-19T12:00:54.733Z</time>
      </trkpt>
      <trkpt lat="50.62373" lon="3.48534">
        <ele>55.81</ele>
        <time>2023-05-19T12:00:58.742Z</time>
      </trkpt>
      <trkpt lat="50.62382" lon="3.48533">
        <ele>55.88</ele>
        <time>2023-05-19T12:01:02.752Z</time>
      </trkpt>
      <trkpt lat="50.62407" lon="3.48523">
        <ele>55.86</ele>
        <time>2023-05-19T12:01:06.766Z</time>
      </trkpt>
      <trkpt lat="50.62406" lon="3.48553">
        <ele>56.1</ele>
        <time>2023-05-19T12:01:10.783Z</time>
      </trkpt>
      <trkpt lat="50.62408" lon="3.48582">
        <ele>56.09</ele>
        <time>2023-05-19T12:01:14.803Z</time>
      </trkpt>
      <trkpt lat="50.62411" lon="3.48601">
        <ele>55.93</ele>
        <time>2023-05-19T12:01:18.825Z</time>
      </trkpt>
      <trkpt lat="50.62428" lon="3.48625">
        <ele>55.52</ele>
        <time>2023-05-19T12:01:22.851Z</time>
      </trkpt>
      <trkpt lat="50.62437" lon="3.48656">
        <ele>54.93</ele>
        <time>2023-05-19T12:01:26.880Z</time>
      </trkpt>
      <trkpt lat="50.62442" lon="3.48683">
        <ele>54.15</ele>
        <time>2023-05-19T12:01:30.912Z</time>
      </trkpt>
      <trkpt lat="50.62442" lon="3.48697">
        <ele>53.21</ele>
        <time>2023-05-19T12:01:34.946Z</time>
      </trkpt>
      <trkpt lat="50.62417" lon="3.48748">
        <ele>51.86</ele>
        <time>2023-05-19T12:01:38.986Z</time>
      </trkpt>
      <trkpt lat="50.62348" lon="3.48871">
        <ele>50.22</ele>
        <time>2023-05-19T12:01:43.043Z</time>
      </trkpt>
      <trkpt lat="50.62363" lon="3.48888">
        <ele>49.38</ele>
        <time>2023-05-19T12:01:47.103Z</time>
      </trkpt>
      <trkpt lat="50.6243" lon="3.48985">
        <ele>48.18</ele>
        <time>2023-05-19T12:01:51.178Z</time>
      </trkpt>
      <trkpt lat="50.62442" lon="3.48998">
        <ele>47.26</ele>
        <time>2023-05-19T12:01:55.255Z</time>
      </trkpt>
      <trkpt lat="50.62442" lon="3.48999">
        <ele>47.26</ele>
        <time>2023-05-19T12:01:59.332Z</time>
      </trkpt>
      <trkpt lat="50.62442" lon="3.48999">
        <ele>47.26</ele>
        <time>2023-05-19T12:02:03.409Z</time>
      </trkpt>
      <trkpt lat="50.62442" lon="3.48999">
        <ele>47.26</ele>
        <time>2023-05-19T12:02:07.486Z</time>
      </trkpt>
      <trkpt lat="50.62442" lon="3.48999">
        <ele>47.26</ele>
        <time>2023-05-19T12:02:11.563Z</time>
      </trkpt>
      <trkpt lat="50.62442" lon="3.48999">
        <ele>47.26</ele>
        <time>2023-05-19T12:02:15.640Z</time>
      </trkpt>
      <trkpt lat="50.62445" lon="3.49002">
        <ele>47.01</ele>
        <time>2023-05-19T12:02:19.718Z</time>
      </trkpt>
      <trkpt lat="50.62445" lon="3.49002">
        <ele>47.01</ele>
        <time>2023-05-19T12:02:23.796Z</time>
      </trkpt>
      <trkpt lat="50.62445" lon="3.49003">
        <ele>47.01</ele>
        <time>2023-05-19T12:02:27.874Z</time>
      </trkpt>
      <trkpt lat="50.62445" lon="3.49003">
        <ele>47.01</ele>
        <time>2023-05-19T12:02:31.952Z</time>
      </trkpt>
      <trkpt lat="50.62448" lon="3.49006">
        <ele>46.78</ele>
        <time>2023-05-19T12:02:36.030Z</time>
      </trkpt>
      <trkpt lat="50.62448" lon="3.49006">
        <ele>46.78</ele>
        <time>2023-05-19T12:02:40.108Z</time>
      </trkpt>
      <trkpt lat="50.62492" lon="3.49057">
        <ele>46.25</ele>
        <time>2023-05-19T12:02:44.195Z</time>
      </trkpt>
      <trkpt lat="50.62528" lon="3.49094">
        <ele>45.96</ele>
        <time>2023-05-19T12:02:48.289Z</time>
      </trkpt>
      <trkpt lat="50.62545" lon="3.49114">
        <ele>45.88</ele>
        <time>2023-05-19T12:02:52.386Z</time>
      </trkpt>
      <trkpt lat="50.62582" lon="3.49172">
        <ele>45.79</ele>
        <time>2023-05-19T12:02:56.492Z</time>
      </trkpt>
      <trkpt lat="50.6259" lon="3.4919">
        <ele>45.51</ele>
        <time>2023-05-19T12:03:00.600Z</time>
      </trkpt>
      <trkpt lat="50.62617" lon="3.4929">
        <ele>44.86</ele>
        <time>2023-05-19T12:03:04.719Z</time>
      </trkpt>
      <trkpt lat="50.62637" lon="3.49349">
        <ele>44.42</ele>
        <time>2023-05-19T12:03:08.845Z</time>
      </trkpt>
      <trkpt lat="50.62653" lon="3.49382">
        <ele>44.12</ele>
        <time>2023-05-19T12:03:12.975Z</time>
      </trkpt>
      <trkpt lat="50.62763" lon="3.49533">
        <ele>43.88</ele>
        <time>2023-05-19T12:03:17.128Z</time>
      </trkpt>
      <trkpt lat="50.62817" lon="3.4962">
        <ele>43.74</ele>
        <time>2023-05-19T12:03:21.294Z</time>
      </trkpt>
      <trkpt lat="50.6284" lon="3.49648">
        <ele>43.89</ele>
        <time>2023-05-19T12:03:25.464Z</time>
      </trkpt>
      <trkpt lat="50.62907" lon="3.497">
        <ele>44.28</ele>
        <time>2023-05-19T12:03:29.646Z</time>
      </trkpt>
      <trkpt lat="50.62963" lon="3.4974">
        <ele>44.85</ele>
        <time>2023-05-19T12:03:33.838Z</time>
      </trkpt>
      <trkpt lat="50.62986" lon="3.49749">
        <ele>45.95</ele>
        <time>2023-05-19T12:03:38.034Z</time>
      </trkpt>
      <trkpt lat="50.62995" lon="3.49745">
        <ele>47.35</ele>
        <time>2023-05-19T12:03:42.231Z</time>
      </trkpt>
      <trkpt lat="50.63027" lon="3.49724">
        <ele>49.27</ele>
        <time>2023-05-19T12:03:46.434Z</time>
      </trkpt>
      <trkpt lat="50.63034" lon="3.49721">
        <ele>51.45</ele>
        <time>2023-05-19T12:03:50.638Z</time>
      </trkpt>
      <trkpt lat="50.63049" lon="3.49734">
        <ele>54.22</ele>
        <time>2023-05-19T12:03:54.845Z</time>
      </trkpt>
      <trkpt lat="50.63141" lon="3.49848">
        <ele>58.35</ele>
        <time>2023-05-19T12:03:59.071Z</time>
      </trkpt>
      <trkpt lat="50.63168" lon="3.49873">
        <ele>61.63</ele>
        <time>2023-05-19T12:04:03.302Z</time>
      </trkpt>
      <trkpt lat="50.63248" lon="3.49928">
        <ele>65.77</ele>
        <time>2023-05-19T12:04:07.547Z</time>
      </trkpt>
      <trkpt lat="50.6326" lon="3.49931">
        <ele>68.42</ele>
        <time>2023-05-19T12:04:11.794Z</time>
      </trkpt>
      <trkpt lat="50.63267" lon="3.49925">
        <ele>70.73</ele>
        <time>2023-05-19T12:04:16.042Z</time>
      </trkpt>
      <trkpt lat="50.63299" lon="3.49856">
        <ele>72.89</ele>
        <time>2023-05-19T12:04:20.299Z</time>
      </trkpt>
      <trkpt lat="50.63322" lon="3.4983">
        <ele>74.22</ele>
        <time>2023-05-19T12:04:24.560Z</time>
      </trkpt>
      <trkpt lat="50.63333" lon="3.49821">
        <ele>75.05</ele>
        <time>2023-05-19T12:04:28.823Z</time>
      </trkpt>
      <trkpt lat="50.63333" lon="3.49821">
        <ele>75.06</ele>
        <time>2023-05-19T12:04:33.086Z</time>
      </trkpt>
      <trkpt lat="50.63333" lon="3.49821">
        <ele>75.07</ele>
        <time>2023-05-19T12:04:37.349Z</time>
      </trkpt>
      <trkpt lat="50.63333" lon="3.49821">
        <ele>75.08</ele>
        <time>2023-05-19T12:04:41.612Z</time>
      </trkpt>
      <trkpt lat="50.63333" lon="3.49821">
        <ele>75.09</ele>
        <time>2023-05-19T12:04:45.875Z</time>
      </trkpt>
      <trkpt lat="50.63333" lon="3.49821">
        <ele>75.1</ele>
        <time>2023-05-19T12:04:50.138Z</time>
      </trkpt>
      <trkpt lat="50.63335" lon="3.4982">
        <ele>75.22</ele>
        <time>2023-05-19T12:04:54.401Z</time>
      </trkpt>
      <trkpt lat="50.63337" lon="3.49819">
        <ele>73.83</ele>
        <time>2023-05-19T12:04:58.665Z</time>
      </trkpt>
      <trkpt lat="50.63337" lon="3.49819">
        <ele>73.78</ele>
        <time>2023-05-19T12:05:02.929Z</time>
      </trkpt>
      <trkpt lat="50.63337" lon="3.49819">
        <ele>73.73</ele>
        <time>2023-05-19T12:05:07.193Z</time>
      </trkpt>
      <trkpt lat="50.63337" lon="3.49819">
        <ele>73.68</ele>
        <time>2023-05-19T12:05:11.457Z</time>
      </trkpt>
      <trkpt lat="50.63341" lon="3.49818">
        <ele>71.58</ele>
        <time>2023-05-19T12:05:15.721Z</time>
      </trkpt>
      <trkpt lat="50.63341" lon="3.49818">
        <ele>71.53</ele>
        <time>2023-05-19T12:05:19.985Z</time>
      </trkpt>
      <trkpt lat="50.63384" lon="3.49806">
        <ele>70.61</ele>
        <time>2023-05-19T12:05:24.256Z</time>
      </trkpt>
      <trkpt lat="50.63432" lon="3.49795">
        <ele>68.87</ele>
        <time>2023-05-19T12:05:28.535Z</time>
      </trkpt>
      <trkpt lat="50.6346" lon="3.49789">
        <ele>67.35</ele>
        <time>2023-05-19T12:05:32.819Z</time>
      </trkpt>
      <trkpt lat="50.63488" lon="3.49778">
        <ele>66</ele>
        <time>2023-05-19T12:05:37.107Z</time>
      </trkpt>
      <trkpt lat="50.63621" lon="3.49797">
        <ele>63.81</ele>
        <time>2023-05-19T12:05:41.417Z</time>
      </trkpt>
      <trkpt lat="50.63632" lon="3.49803">
        <ele>62.93</ele>
        <time>2023-05-19T12:05:45.729Z</time>
      </trkpt>
      <trkpt lat="50.63643" lon="3.49821">
        <ele>62.57</ele>
        <time>2023-05-19T12:05:50.043Z</time>
      </trkpt>
      <trkpt lat="50.63677" lon="3.49898">
        <ele>62.81</ele>
        <time>2023-05-19T12:05:54.367Z</time>
      </trkpt>
      <trkpt lat="50.63681" lon="3.49923">
        <ele>63.31</ele>
        <time>2023-05-19T12:05:58.693Z</time>
      </trkpt>
      <trkpt lat="50.63674" lon="3.49948">
        <ele>64.23</ele>
        <time>2023-05-19T12:06:03.022Z</time>
      </trkpt>
      <trkpt lat="50.63642" lon="3.50098">
        <ele>65.9</ele>
        <time>2023-05-19T12:06:07.367Z</time>
      </trkpt>
      <trkpt lat="50.63612" lon="3.50175">
        <ele>67.24</ele>
        <time>2023-05-19T12:06:11.722Z</time>
      </trkpt>
      <trkpt lat="50.6359" lon="3.50227">
        <ele>68.56</ele>
        <time>2023-05-19T12:06:16.083Z</time>
      </trkpt>
      <trkpt lat="50.63579" lon="3.50241">
        <ele>69.64</ele>
        <time>2023-05-19T12:06:20.446Z</time>
      </trkpt>
      <trkpt lat="50.63569" lon="3.5025">
        <ele>70.59</ele>
        <time>2023-05-19T12:06:24.811Z</time>
      </trkpt>
      <trkpt lat="50.63552" lon="3.50256">
        <ele>71.5</ele>
        <time>2023-05-19T12:06:29.179Z</time>
      </trkpt>
      <trkpt lat="50.63541" lon="3.50256">
        <ele>72.28</ele>
        <time>2023-05-19T12:06:33.549Z</time>
      </trkpt>
      <trkpt lat="50.63522" lon="3.50251">
        <ele>72.96</ele>
        <time>2023-05-19T12:06:37.921Z</time>
      </trkpt>
      <trkpt lat="50.63501" lon="3.50239">
        <ele>73.54</ele>
        <time>2023-05-19T12:06:42.297Z</time>
      </trkpt>
      <trkpt lat="50.63484" lon="3.50237">
        <ele>73.77</ele>
        <time>2023-05-19T12:06:46.676Z</time>
      </trkpt>
      <trkpt lat="50.63422" lon="3.50316">
        <ele>73.79</ele>
        <time>2023-05-19T12:06:51.068Z</time>
      </trkpt>
      <trkpt lat="50.63413" lon="3.50333">
        <ele>73.61</ele>
        <time>2023-05-19T12:06:55.462Z</time>
      </trkpt>
      <trkpt lat="50.63408" lon="3.50354">
        <ele>73.4</ele>
        <time>2023-05-19T12:06:59.858Z</time>
      </trkpt>
      <trkpt lat="50.63402" lon="3.50383">
        <ele>73.08</ele>
        <time>2023-05-19T12:07:04.257Z</time>
      </trkpt>
      <trkpt lat="50.63398" lon="3.50457">
        <ele>72.8</ele>
        <time>2023-05-19T12:07:08.664Z</time>
      </trkpt>
      <trkpt lat="50.63396" lon="3.50478">
        <ele>72.31</ele>
        <time>2023-05-19T12:07:13.073Z</time>
      </trkpt>
      <trkpt lat="50.63391" lon="3.50491">
        <ele>72.01</ele>
        <time>2023-05-19T12:07:17.484Z</time>
      </trkpt>
      <trkpt lat="50.63391" lon="3.50491">
        <ele>72.61</ele>
        <time>2023-05-19T12:07:21.895Z</time>
      </trkpt>
      <trkpt lat="50.63387" lon="3.50499">
        <ele>72.72</ele>
        <time>2023-05-19T12:07:26.307Z</time>
      </trkpt>
      <trkpt lat="50.63358" lon="3.5054">
        <ele>72.63</ele>
        <time>2023-05-19T12:07:30.725Z</time>
      </trkpt>
      <trkpt lat="50.63347" lon="3.50559">
        <ele>72.8</ele>
        <time>2023-05-19T12:07:35.146Z</time>
      </trkpt>
      <trkpt lat="50.63303" lon="3.50701">
        <ele>74.39</ele>
        <time>2023-05-19T12:07:39.583Z</time>
      </trkpt>
      <trkpt lat="50.63289" lon="3.50688">
        <ele>74.6</ele>
        <time>2023-05-19T12:07:44.022Z</time>
      </trkpt>
      <trkpt lat="50.63274" lon="3.50681">
        <ele>74.32</ele>
        <time>2023-05-19T12:07:48.464Z</time>
      </trkpt>
      <trkpt lat="50.63221" lon="3.50674">
        <ele>73.67</ele>
        <time>2023-05-19T12:07:52.914Z</time>
      </trkpt>
      <trkpt lat="50.63201" lon="3.50666">
        <ele>72.83</ele>
        <time>2023-05-19T12:07:57.368Z</time>
      </trkpt>
      <trkpt lat="50.63183" lon="3.50654">
        <ele>71.83</ele>
        <time>2023-05-19T12:08:01.825Z</time>
      </trkpt>
      <trkpt lat="50.63169" lon="3.50637">
        <ele>70.69</ele>
        <time>2023-05-19T12:08:06.284Z</time>
      </trkpt>
      <trkpt lat="50.6316" lon="3.50622">
        <ele>69.56</ele>
        <time>2023-05-19T12:08:10.746Z</time>
      </trkpt>
      <trkpt lat="50.63149" lon="3.50557">
        <ele>68.03</ele>
        <time>2023-05-19T12:08:15.214Z</time>
      </trkpt>
      <trkpt lat="50.63141" lon="3.50528">
        <ele>66.78</ele>
        <time>2023-05-19T12:08:19.686Z</time>
      </trkpt>
      <trkpt lat="50.63123" lon="3.50498">
        <ele>65.47</ele>
        <time>2023-05-19T12:08:24.162Z</time>
      </trkpt>
      <trkpt lat="50.63104" lon="3.50478">
        <ele>64.42</ele>
        <time>2023-05-19T12:08:28.641Z</time>
      </trkpt>
      <trkpt lat="50.63089" lon="3.50464">
        <ele>63.38</ele>
        <time>2023-05-19T12:08:33.123Z</time>
      </trkpt>
      <trkpt lat="50.6307" lon="3.50452">
        <ele>62.46</ele>
        <time>2023-05-19T12:08:37.609Z</time>
      </trkpt>
      <trkpt lat="50.63059" lon="3.50443">
        <ele>61.67</ele>
        <time>2023-05-19T12:08:42.096Z</time>
      </trkpt>
      <trkpt lat="50.63003" lon="3.50319">
        <ele>60.96</ele>
        <time>2023-05-19T12:08:46.599Z</time>
      </trkpt>
      <trkpt lat="50.62954" lon="3.50251">
        <ele>60.3</ele>
        <time>2023-05-19T12:08:51.112Z</time>
      </trkpt>
      <trkpt lat="50.62932" lon="3.50207">
        <ele>59.63</ele>
        <time>2023-05-19T12:08:55.631Z</time>
      </trkpt>
      <trkpt lat="50.62916" lon="3.50185">
        <ele>59.03</ele>
        <time>2023-05-19T12:09:00.154Z</time>
      </trkpt>
      <trkpt lat="50.62879" lon="3.50118">
        <ele>58.32</ele>
        <time>2023-05-19T12:09:04.686Z</time>
      </trkpt>
      <trkpt lat="50.62865" lon="3.50101">
        <ele>57.66</ele>
        <time>2023-05-19T12:09:09.220Z</time>
      </trkpt>
      <trkpt lat="50.62834" lon="3.50072">
        <ele>56.9</ele>
        <time>2023-05-19T12:09:13.760Z</time>
      </trkpt>
      <trkpt lat="50.62817" lon="3.50045">
        <ele>56.12</ele>
        <time>2023-05-19T12:09:18.304Z</time>
      </trkpt>
      <trkpt lat="50.62798" lon="3.5003">
        <ele>55.24</ele>
        <time>2023-05-19T12:09:22.851Z</time>
      </trkpt>
      <trkpt lat="50.62776" lon="3.5002">
        <ele>54.17</ele>
        <time>2023-05-19T12:09:27.402Z</time>
      </trkpt>
      <trkpt lat="50.62763" lon="3.50015">
        <ele>52.86</ele>
        <time>2023-05-19T12:09:31.955Z</time>
      </trkpt>
      <trkpt lat="50.62626" lon="3.49912">
        <ele>51.21</ele>
        <time>2023-05-19T12:09:36.533Z</time>
      </trkpt>
      <trkpt lat="50.62379" lon="3.49712">
        <ele>48.69</ele>
        <time>2023-05-19T12:09:41.155Z</time>
      </trkpt>
      <trkpt lat="50.62341" lon="3.49669">
        <ele>46.59</ele>
        <time>2023-05-19T12:09:45.785Z</time>
      </trkpt>
      <trkpt lat="50.62321" lon="3.49655">
        <ele>44.49</ele>
        <time>2023-05-19T12:09:50.418Z</time>
      </trkpt>
      <trkpt lat="50.62254" lon="3.49647">
        <ele>42.12</ele>
        <time>2023-05-19T12:09:55.062Z</time>
      </trkpt>
      <trkpt lat="50.62185" lon="3.49648">
        <ele>39.89</ele>
        <time>2023-05-19T12:09:59.717Z</time>
      </trkpt>
      <trkpt lat="50.62188" lon="3.49703">
        <ele>38.54</ele>
        <time>2023-05-19T12:10:04.378Z</time>
      </trkpt>
      <trkpt lat="50.62195" lon="3.4977">
        <ele>37.14</ele>
        <time>2023-05-19T12:10:09.046Z</time>
      </trkpt>
      <trkpt lat="50.62202" lon="3.49852">
        <ele>35.85</ele>
        <time>2023-05-19T12:10:13.722Z</time>
      </trkpt>
      <trkpt lat="50.62205" lon="3.49878">
        <ele>34.82</ele>
        <time>2023-05-19T12:10:18.401Z</time>
      </trkpt>
      <trkpt lat="50.62217" lon="3.49933">
        <ele>33.81</ele>
        <time>2023-05-19T12:10:23.086Z</time>
      </trkpt>
      <trkpt lat="50.62235" lon="3.49989">
        <ele>33.35</ele>
        <time>2023-05-19T12:10:27.777Z</time>
      </trkpt>
      <trkpt lat="50.62245" lon="3.50049">
        <ele>33.32</ele>
        <time>2023-05-19T12:10:32.474Z</time>
      </trkpt>
      <trkpt lat="50.62245" lon="3.50068">
        <ele>33.13</ele>
        <time>2023-05-19T12:10:37.173Z</time>
      </trkpt>
      <trkpt lat="50.62245" lon="3.50068">
        <ele>34.36</ele>
        <time>2023-05-19T12:10:41.872Z</time>
      </trkpt>
      <trkpt lat="50.62246" lon="3.50096">
        <ele>34.61</ele>
        <time>2023-05-19T12:10:46.574Z</time>
      </trkpt>
      <trkpt lat="50.62252" lon="3.50183">
        <ele>34.74</ele>
        <time>2023-05-19T12:10:51.285Z</time>
      </trkpt>
      <trkpt lat="50.62256" lon="3.50303">
        <ele>35.57</ele>
        <time>2023-05-19T12:10:56.008Z</time>
      </trkpt>
      <trkpt lat="50.62255" lon="3.50359">
        <ele>36.14</ele>
        <time>2023-05-19T12:11:00.737Z</time>
      </trkpt>
      <trkpt lat="50.62278" lon="3.50438">
        <ele>36.66</ele>
        <time>2023-05-19T12:11:05.475Z</time>
      </trkpt>
      <trkpt lat="50.62277" lon="3.50467">
        <ele>37.14</ele>
        <time>2023-05-19T12:11:10.216Z</time>
      </trkpt>
      <trkpt lat="50.62262" lon="3.50578">
        <ele>38.02</ele>
        <time>2023-05-19T12:11:14.968Z</time>
      </trkpt>
      <trkpt lat="50.62265" lon="3.50598">
        <ele>39.09</ele>
        <time>2023-05-19T12:11:19.722Z</time>
      </trkpt>
      <trkpt lat="50.62276" lon="3.50608">
        <ele>40.29</ele>
        <time>2023-05-19T12:11:24.478Z</time>
      </trkpt>
      <trkpt lat="50.62306" lon="3.50624">
        <ele>41.75</ele>
        <time>2023-05-19T12:11:29.239Z</time>
      </trkpt>
      <trkpt lat="50.62337" lon="3.50638">
        <ele>43.26</ele>
        <time>2023-05-19T12:11:34.006Z</time>
      </trkpt>
      <trkpt lat="50.62358" lon="3.50651">
        <ele>44.67</ele>
        <time>2023-05-19T12:11:38.776Z</time>
      </trkpt>
      <trkpt lat="50.62395" lon="3.50673">
        <ele>46.27</ele>
        <time>2023-05-19T12:11:43.553Z</time>
      </trkpt>
      <trkpt lat="50.62398" lon="3.50677">
        <ele>47.42</ele>
        <time>2023-05-19T12:11:48.330Z</time>
      </trkpt>
      <trkpt lat="50.62401" lon="3.50684">
        <ele>48.51</ele>
        <time>2023-05-19T12:11:53.108Z</time>
      </trkpt>
      <trkpt lat="50.62407" lon="3.50708">
        <ele>49.66</ele>
        <time>2023-05-19T12:11:57.889Z</time>
      </trkpt>
      <trkpt lat="50.62409" lon="3.50713">
        <ele>50.67</ele>
        <time>2023-05-19T12:12:02.670Z</time>
      </trkpt>
      <trkpt lat="50.62441" lon="3.50728">
        <ele>51.74</ele>
        <time>2023-05-19T12:12:07.457Z</time>
      </trkpt>
      <trkpt lat="50.62436" lon="3.50783">
        <ele>53.07</ele>
        <time>2023-05-19T12:12:12.249Z</time>
      </trkpt>
      <trkpt lat="50.62439" lon="3.5082">
        <ele>54.29</ele>
        <time>2023-05-19T12:12:17.045Z</time>
      </trkpt>
      <trkpt lat="50.6245" lon="3.50879">
        <ele>55.42</ele>
        <time>2023-05-19T12:12:21.847Z</time>
      </trkpt>
      <trkpt lat="50.62449" lon="3.50934">
        <ele>56.6</ele>
        <time>2023-05-19T12:12:26.655Z</time>
      </trkpt>
      <trkpt lat="50.62449" lon="3.51013">
        <ele>58.14</ele>
        <time>2023-05-19T12:12:31.471Z</time>
      </trkpt>
      <trkpt lat="50.62457" lon="3.51041">
        <ele>59.32</ele>
        <time>2023-05-19T12:12:36.290Z</time>
      </trkpt>
      <trkpt lat="50.62458" lon="3.51046">
        <ele>60.06</ele>
        <time>2023-05-19T12:12:41.110Z</time>
      </trkpt>
      <trkpt lat="50.62459" lon="3.51063">
        <ele>59.39</ele>
        <time>2023-05-19T12:12:45.932Z</time>
      </trkpt>
      <trkpt lat="50.62446" lon="3.51176">
        <ele>57.56</ele>
        <time>2023-05-19T12:12:50.765Z</time>
      </trkpt>
      <trkpt lat="50.62447" lon="3.51211">
        <ele>55.64</ele>
        <time>2023-05-19T12:12:55.602Z</time>
      </trkpt>
      <trkpt lat="50.62425" lon="3.51221">
        <ele>53.83</ele>
        <time>2023-05-19T12:13:00.443Z</time>
      </trkpt>
      <trkpt lat="50.62355" lon="3.51246">
        <ele>51.96</ele>
        <time>2023-05-19T12:13:05.295Z</time>
      </trkpt>
      <trkpt lat="50.62355" lon="3.51246">
        <ele>50.52</ele>
        <time>2023-05-19T12:13:10.147Z</time>
      </trkpt>
      <trkpt lat="50.62349" lon="3.51274">
        <ele>49.05</ele>
        <time>2023-05-19T12:13:15.002Z</time>
      </trkpt>
      <trkpt lat="50.6234" lon="3.51376">
        <ele>47.04</ele>
        <time>2023-05-19T12:13:19.868Z</time>
      </trkpt>
      <trkpt lat="50.62335" lon="3.514">
        <ele>45.66</ele>
        <time>2023-05-19T12:13:24.736Z</time>
      </trkpt>
      <trkpt lat="50.62313" lon="3.51422">
        <ele>44.42</ele>
        <time>2023-05-19T12:13:29.608Z</time>
      </trkpt>
      <trkpt lat="50.6226" lon="3.51449">
        <ele>43.07</ele>
        <time>2023-05-19T12:13:34.489Z</time>
      </trkpt>
      <trkpt lat="50.62159" lon="3.51468">
        <ele>42.63</ele>
        <time>2023-05-19T12:13:39.387Z</time>
      </trkpt>
      <trkpt lat="50.62059" lon="3.51483">
        <ele>43.05</ele>
        <time>2023-05-19T12:13:44.301Z</time>
      </trkpt>
      <trkpt lat="50.62059" lon="3.51483">
        <ele>42.5</ele>
        <time>2023-05-19T12:13:49.215Z</time>
      </trkpt>
      <trkpt lat="50.62067" lon="3.51546">
        <ele>41.65</ele>
        <time>2023-05-19T12:13:54.135Z</time>
      </trkpt>
      <trkpt lat="50.62146" lon="3.51861">
        <ele>40.25</ele>
        <time>2023-05-19T12:13:59.090Z</time>
      </trkpt>
      <trkpt lat="50.62159" lon="3.51883">
        <ele>40.01</ele>
        <time>2023-05-19T12:14:04.048Z</time>
      </trkpt>
      <trkpt lat="50.62159" lon="3.51883">
        <ele>40.53</ele>
        <time>2023-05-19T12:14:09.006Z</time>
      </trkpt>
      <trkpt lat="50.62248" lon="3.51959">
        <ele>42.36</ele>
        <time>2023-05-19T12:14:13.980Z</time>
      </trkpt>
      <trkpt lat="50.62248" lon="3.51959">
        <ele>43.98</ele>
        <time>2023-05-19T12:14:18.954Z</time>
      </trkpt>
      <trkpt lat="50.62493" lon="3.52097">
        <ele>48.27</ele>
        <time>2023-05-19T12:14:23.970Z</time>
      </trkpt>
      <trkpt lat="50.62564" lon="3.52138">
        <ele>56.88</ele>
        <time>2023-05-19T12:14:28.998Z</time>
      </trkpt>
      <trkpt lat="50.62586" lon="3.52161">
        <ele>57.85</ele>
        <time>2023-05-19T12:14:34.030Z</time>
      </trkpt>
      <trkpt lat="50.62603" lon="3.5219">
        <ele>58.45</ele>
        <time>2023-05-19T12:14:39.066Z</time>
      </trkpt>
      <trkpt lat="50.62645" lon="3.52268">
        <ele>59.2</ele>
        <time>2023-05-19T12:14:44.112Z</time>
      </trkpt>
      <trkpt lat="50.62664" lon="3.52291">
        <ele>59.6</ele>
        <time>2023-05-19T12:14:49.162Z</time>
      </trkpt>
      <trkpt lat="50.6272" lon="3.52327">
        <ele>60.07</ele>
        <time>2023-05-19T12:14:54.222Z</time>
      </trkpt>
      <trkpt lat="50.6272" lon="3.52327">
        <ele>60.17</ele>
        <time>2023-05-19T12:14:59.282Z</time>
      </trkpt>
      <trkpt lat="50.62766" lon="3.52359">
        <ele>60.16</ele>
        <time>2023-05-19T12:15:04.350Z</time>
      </trkpt>
      <trkpt lat="50.628" lon="3.52382">
        <ele>59.94</ele>
        <time>2023-05-19T12:15:09.424Z</time>
      </trkpt>
      <trkpt lat="50.62956" lon="3.52488">
        <ele>59</ele>
        <time>2023-05-19T12:15:14.525Z</time>
      </trkpt>
      <trkpt lat="50.6304" lon="3.5256">
        <ele>58.33</ele>
        <time>2023-05-19T12:15:19.641Z</time>
      </trkpt>
      <trkpt lat="50.63044" lon="3.52566">
        <ele>57.67</ele>
        <time>2023-05-19T12:15:24.758Z</time>
      </trkpt>
      <trkpt lat="50.63114" lon="3.52631">
        <ele>57.18</ele>
        <time>2023-05-19T12:15:29.888Z</time>
      </trkpt>
      <trkpt lat="50.63295" lon="3.52795">
        <ele>55.47</ele>
        <time>2023-05-19T12:15:35.052Z</time>
      </trkpt>
      <trkpt lat="50.6331" lon="3.52817">
        <ele>54.5</ele>
        <time>2023-05-19T12:15:40.219Z</time>
      </trkpt>
      <trkpt lat="50.63322" lon="3.52846">
        <ele>53.67</ele>
        <time>2023-05-19T12:15:45.390Z</time>
      </trkpt>
      <trkpt lat="50.63322" lon="3.52846">
        <ele>52.98</ele>
        <time>2023-05-19T12:15:50.561Z</time>
      </trkpt>
      <trkpt lat="50.63339" lon="3.52954">
        <ele>52.18</ele>
        <time>2023-05-19T12:15:55.743Z</time>
      </trkpt>
      <trkpt lat="50.63349" lon="3.52988">
        <ele>51.71</ele>
        <time>2023-05-19T12:16:00.929Z</time>
      </trkpt>
      <trkpt lat="50.63396" lon="3.53114">
        <ele>51.34</ele>
        <time>2023-05-19T12:16:06.130Z</time>
      </trkpt>
      <trkpt lat="50.63421" lon="3.53176">
        <ele>50.72</ele>
        <time>2023-05-19T12:16:11.338Z</time>
      </trkpt>
      <trkpt lat="50.63432" lon="3.53192">
        <ele>50.11</ele>
        <time>2023-05-19T12:16:16.549Z</time>
      </trkpt>
      <trkpt lat="50.63501" lon="3.53252">
        <ele>49.18</ele>
        <time>2023-05-19T12:16:21.772Z</time>
      </trkpt>
      <trkpt lat="50.63705" lon="3.53462">
        <ele>47.44</ele>
        <time>2023-05-19T12:16:27.034Z</time>
      </trkpt>
      <trkpt lat="50.63703" lon="3.53497">
        <ele>47.08</ele>
        <time>2023-05-19T12:16:32.300Z</time>
      </trkpt>
      <trkpt lat="50.63702" lon="3.53515">
        <ele>46.86</ele>
        <time>2023-05-19T12:16:37.568Z</time>
      </trkpt>
      <trkpt lat="50.63702" lon="3.53515">
        <ele>45.08</ele>
        <time>2023-05-19T12:16:42.836Z</time>
      </trkpt>
      <trkpt lat="50.63698" lon="3.53768">
        <ele>54.91</ele>
        <time>2023-05-19T12:16:48.130Z</time>
      </trkpt>
      <trkpt lat="50.63693" lon="3.53781">
        <ele>56.65</ele>
        <time>2023-05-19T12:16:53.425Z</time>
      </trkpt>
      <trkpt lat="50.63679" lon="3.53799">
        <ele>57.81</ele>
        <time>2023-05-19T12:16:58.723Z</time>
      </trkpt>
      <trkpt lat="50.63679" lon="3.53799">
        <ele>58.42</ele>
        <time>2023-05-19T12:17:04.021Z</time>
      </trkpt>
      <trkpt lat="50.63671" lon="3.53811">
        <ele>58.75</ele>
        <time>2023-05-19T12:17:09.321Z</time>
      </trkpt>
      <trkpt lat="50.63642" lon="3.53862">
        <ele>59.16</ele>
        <time>2023-05-19T12:17:14.628Z</time>
      </trkpt>
      <trkpt lat="50.63617" lon="3.53914">
        <ele>59.05</ele>
        <time>2023-05-19T12:17:19.941Z</time>
      </trkpt>
      <trkpt lat="50.636" lon="3.53954">
        <ele>58.7</ele>
        <time>2023-05-19T12:17:25.259Z</time>
      </trkpt>
      <trkpt lat="50.63593" lon="3.53978">
        <ele>58.56</ele>
        <time>2023-05-19T12:17:30.580Z</time>
      </trkpt>
      <trkpt lat="50.63574" lon="3.54023">
        <ele>58.42</ele>
        <time>2023-05-19T12:17:35.906Z</time>
      </trkpt>
      <trkpt lat="50.63492" lon="3.54128">
        <ele>58.52</ele>
        <time>2023-05-19T12:17:41.249Z</time>
      </trkpt>
      <trkpt lat="50.63471" lon="3.5415">
        <ele>58.41</ele>
        <time>2023-05-19T12:17:46.596Z</time>
      </trkpt>
      <trkpt lat="50.63458" lon="3.54169">
        <ele>58.41</ele>
        <time>2023-05-19T12:17:51.946Z</time>
      </trkpt>
      <trkpt lat="50.63454" lon="3.54191">
        <ele>58.45</ele>
        <time>2023-05-19T12:17:57.299Z</time>
      </trkpt>
      <trkpt lat="50.63463" lon="3.54228">
        <ele>58.44</ele>
        <time>2023-05-19T12:18:02.656Z</time>
      </trkpt>
      <trkpt lat="50.63466" lon="3.5425">
        <ele>58.41</ele>
        <time>2023-05-19T12:18:08.015Z</time>
      </trkpt>
      <trkpt lat="50.63455" lon="3.54306">
        <ele>58.31</ele>
        <time>2023-05-19T12:18:13.380Z</time>
      </trkpt>
      <trkpt lat="50.63403" lon="3.54377">
        <ele>58.35</ele>
        <time>2023-05-19T12:18:18.756Z</time>
      </trkpt>
      <trkpt lat="50.63363" lon="3.5444">
        <ele>58.72</ele>
        <time>2023-05-19T12:18:24.141Z</time>
      </trkpt>
      <trkpt lat="50.63253" lon="3.5456">
        <ele>59.35</ele>
        <time>2023-05-19T12:18:29.547Z</time>
      </trkpt>
      <trkpt lat="50.63217" lon="3.54591">
        <ele>59.66</ele>
        <time>2023-05-19T12:18:34.960Z</time>
      </trkpt>
      <trkpt lat="50.63217" lon="3.54591">
        <ele>59.67</ele>
        <time>2023-05-19T12:18:40.373Z</time>
      </trkpt>
      <trkpt lat="50.63217" lon="3.54591">
        <ele>59.63</ele>
        <time>2023-05-19T12:18:45.786Z</time>
      </trkpt>
      <trkpt lat="50.63217" lon="3.54591">
        <ele>59.64</ele>
        <time>2023-05-19T12:18:51.199Z</time>
      </trkpt>
      <trkpt lat="50.63217" lon="3.54591">
        <ele>59.65</ele>
        <time>2023-05-19T12:18:56.612Z</time>
      </trkpt>
      <trkpt lat="50.63195" lon="3.54609">
        <ele>62.77</ele>
        <time>2023-05-19T12:19:02.029Z</time>
      </trkpt>
      <trkpt lat="50.6313" lon="3.54656">
        <ele>64.44</ele>
        <time>2023-05-19T12:19:07.458Z</time>
      </trkpt>
      <trkpt lat="50.63011" lon="3.54705">
        <ele>68.65</ele>
        <time>2023-05-19T12:19:12.906Z</time>
      </trkpt>
      <trkpt lat="50.62989" lon="3.54722">
        <ele>71.57</ele>
        <time>2023-05-19T12:19:18.358Z</time>
      </trkpt>
      <trkpt lat="50.62972" lon="3.54741">
        <ele>73.98</ele>
        <time>2023-05-19T12:19:23.813Z</time>
      </trkpt>
      <trkpt lat="50.62946" lon="3.54775">
        <ele>77.1</ele>
        <time>2023-05-19T12:19:29.274Z</time>
      </trkpt>
      <trkpt lat="50.62946" lon="3.54775">
        <ele>77.11</ele>
        <time>2023-05-19T12:19:34.735Z</time>
      </trkpt>
      <trkpt lat="50.62946" lon="3.54775">
        <ele>77.12</ele>
        <time>2023-05-19T12:19:40.196Z</time>
      </trkpt>
      <trkpt lat="50.62946" lon="3.54775">
        <ele>77.48</ele>
        <time>2023-05-19T12:19:45.657Z</time>
      </trkpt>
      <trkpt lat="50.62929" lon="3.54796">
        <ele>78.22</ele>
        <time>2023-05-19T12:19:51.121Z</time>
      </trkpt>
      <trkpt lat="50.62995" lon="3.54958">
        <ele>79.34</ele>
        <time>2023-05-19T12:19:56.605Z</time>
      </trkpt>
      <trkpt lat="50.62995" lon="3.54958">
        <ele>79.35</ele>
        <time>2023-05-19T12:20:02.089Z</time>
      </trkpt>
      <trkpt lat="50.62995" lon="3.54958">
        <ele>79.36</ele>
        <time>2023-05-19T12:20:07.573Z</time>
      </trkpt>
      <trkpt lat="50.62992" lon="3.54952">
        <ele>79.42</ele>
        <time>2023-05-19T12:20:13.058Z</time>
      </trkpt>
      <trkpt lat="50.62932" lon="3.54804">
        <ele>78.26</ele>
        <time>2023-05-19T12:20:18.561Z</time>
      </trkpt>
      <trkpt lat="50.62929" lon="3.54796">
        <ele>80.59</ele>
        <time>2023-05-19T12:20:24.064Z</time>
      </trkpt>
      <trkpt lat="50.62925" lon="3.54802">
        <ele>80.82</ele>
        <time>2023-05-19T12:20:29.568Z</time>
      </trkpt>
      <trkpt lat="50.62902" lon="3.54835">
        <ele>80.48</ele>
        <time>2023-05-19T12:20:35.077Z</time>
      </trkpt>
      <trkpt lat="50.62901" lon="3.54835">
        <ele>80.48</ele>
        <time>2023-05-19T12:20:40.586Z</time>
      </trkpt>
      <trkpt lat="50.62901" lon="3.54836">
        <ele>80.48</ele>
        <time>2023-05-19T12:20:46.095Z</time>
      </trkpt>
      <trkpt lat="50.62857" lon="3.54899">
        <ele>81.27</ele>
        <time>2023-05-19T12:20:51.614Z</time>
      </trkpt>
      <trkpt lat="50.6282" lon="3.54988">
        <ele>81.54</ele>
        <time>2023-05-19T12:20:57.144Z</time>
      </trkpt>
      <trkpt lat="50.62784" lon="3.55049">
        <ele>82.07</ele>
        <time>2023-05-19T12:21:02.682Z</time>
      </trkpt>
      <trkpt lat="50.6273" lon="3.55099">
        <ele>82.41</ele>
        <time>2023-05-19T12:21:08.230Z</time>
      </trkpt>
      <trkpt lat="50.6272" lon="3.55093">
        <ele>82.08</ele>
        <time>2023-05-19T12:21:13.780Z</time>
      </trkpt>
      <trkpt lat="50.6269" lon="3.55076">
        <ele>81.13</ele>
        <time>2023-05-19T12:21:19.335Z</time>
      </trkpt>
      <trkpt lat="50.62675" lon="3.55074">
        <ele>79.81</ele>
        <time>2023-05-19T12:21:24.893Z</time>
      </trkpt>
      <trkpt lat="50.6266" lon="3.55079">
        <ele>78.02</ele>
        <time>2023-05-19T12:21:30.453Z</time>
      </trkpt>
      <trkpt lat="50.62558" lon="3.55132">
        <ele>75.19</ele>
        <time>2023-05-19T12:21:36.030Z</time>
      </trkpt>
      <trkpt lat="50.62437" lon="3.55142">
        <ele>71.59</ele>
        <time>2023-05-19T12:21:41.627Z</time>
      </trkpt>
      <trkpt lat="50.62312" lon="3.55108">
        <ele>61.2</ele>
        <time>2023-05-19T12:21:47.244Z</time>
      </trkpt>
      <trkpt lat="50.62312" lon="3.55108">
        <ele>61.19</ele>
        <time>2023-05-19T12:21:52.861Z</time>
      </trkpt>
      <trkpt lat="50.62312" lon="3.55108">
        <ele>61.19</ele>
        <time>2023-05-19T12:21:58.478Z</time>
      </trkpt>
      <trkpt lat="50.62312" lon="3.55108">
        <ele>61.19</ele>
        <time>2023-05-19T12:22:04.095Z</time>
      </trkpt>
      <trkpt lat="50.62312" lon="3.55108">
        <ele>61.16</ele>
        <time>2023-05-19T12:22:09.712Z</time>
      </trkpt>
      <trkpt lat="50.62312" lon="3.55108">
        <ele>61.16</ele>
        <time>2023-05-19T12:22:15.329Z</time>
      </trkpt>
      <trkpt lat="50.62305" lon="3.55106">
        <ele>60.57</ele>
        <time>2023-05-19T12:22:20.947Z</time>
      </trkpt>
      <trkpt lat="50.62304" lon="3.55106">
        <ele>60.56</ele>
        <time>2023-05-19T12:22:26.565Z</time>
      </trkpt>
      <trkpt lat="50.62304" lon="3.55106">
        <ele>60.54</ele>
        <time>2023-05-19T12:22:32.183Z</time>
      </trkpt>
      <trkpt lat="50.62304" lon="3.55106">
        <ele>60.52</ele>
        <time>2023-05-19T12:22:37.801Z</time>
      </trkpt>
      <trkpt lat="50.62299" lon="3.55105">
        <ele>60.13</ele>
        <time>2023-05-19T12:22:43.420Z</time>
      </trkpt>
      <trkpt lat="50.62212" lon="3.55082">
        <ele>58.64</ele>
        <time>2023-05-19T12:22:49.053Z</time>
      </trkpt>
      <trkpt lat="50.62168" lon="3.55073">
        <ele>57.93</ele>
        <time>2023-05-19T12:22:54.693Z</time>
      </trkpt>
      <trkpt lat="50.6215" lon="3.55067">
        <ele>57.39</ele>
        <time>2023-05-19T12:23:00.336Z</time>
      </trkpt>
      <trkpt lat="50.6215" lon="3.55067">
        <ele>57.19</ele>
        <time>2023-05-19T12:23:05.979Z</time>
      </trkpt>
      <trkpt lat="50.62132" lon="3.5505">
        <ele>56.94</ele>
        <time>2023-05-19T12:23:11.626Z</time>
      </trkpt>
      <trkpt lat="50.61988" lon="3.54886">
        <ele>57.49</ele>
        <time>2023-05-19T12:23:17.301Z</time>
      </trkpt>
      <trkpt lat="50.61971" lon="3.54877">
        <ele>57.88</ele>
        <time>2023-05-19T12:23:22.979Z</time>
      </trkpt>
      <trkpt lat="50.6196" lon="3.54878">
        <ele>58.26</ele>
        <time>2023-05-19T12:23:28.659Z</time>
      </trkpt>
      <trkpt lat="50.61868" lon="3.54967">
        <ele>58.74</ele>
        <time>2023-05-19T12:23:34.356Z</time>
      </trkpt>
      <trkpt lat="50.61749" lon="3.55046">
        <ele>58.9</ele>
        <time>2023-05-19T12:23:40.074Z</time>
      </trkpt>
      <trkpt lat="50.61737" lon="3.5505">
        <ele>59.49</ele>
        <time>2023-05-19T12:23:45.794Z</time>
      </trkpt>
      <trkpt lat="50.61732" lon="3.55048">
        <ele>60.22</ele>
        <time>2023-05-19T12:23:51.515Z</time>
      </trkpt>
      <trkpt lat="50.61723" lon="3.55028">
        <ele>61.1</ele>
        <time>2023-05-19T12:23:57.238Z</time>
      </trkpt>
      <trkpt lat="50.61664" lon="3.54837">
        <ele>62.94</ele>
        <time>2023-05-19T12:24:02.983Z</time>
      </trkpt>
      <trkpt lat="50.61659" lon="3.54823">
        <ele>64</ele>
        <time>2023-05-19T12:24:08.729Z</time>
      </trkpt>
      <trkpt lat="50.61655" lon="3.54815">
        <ele>64.96</ele>
        <time>2023-05-19T12:24:14.476Z</time>
      </trkpt>
      <trkpt lat="50.61643" lon="3.54803">
        <ele>65.82</ele>
        <time>2023-05-19T12:24:20.226Z</time>
      </trkpt>
      <trkpt lat="50.61635" lon="3.54797">
        <ele>66.49</ele>
        <time>2023-05-19T12:24:25.977Z</time>
      </trkpt>
      <trkpt lat="50.61619" lon="3.54796">
        <ele>67.02</ele>
        <time>2023-05-19T12:24:31.731Z</time>
      </trkpt>
      <trkpt lat="50.61615" lon="3.54793">
        <ele>67.46</ele>
        <time>2023-05-19T12:24:37.485Z</time>
      </trkpt>
      <trkpt lat="50.61615" lon="3.54793">
        <ele>67.81</ele>
        <time>2023-05-19T12:24:43.239Z</time>
      </trkpt>
      <trkpt lat="50.61606" lon="3.54799">
        <ele>68.05</ele>
        <time>2023-05-19T12:24:48.995Z</time>
      </trkpt>
      <trkpt lat="50.61599" lon="3.54798">
        <ele>68.36</ele>
        <time>2023-05-19T12:24:54.752Z</time>
      </trkpt>
      <trkpt lat="50.61579" lon="3.54794">
        <ele>68.71</ele>
        <time>2023-05-19T12:25:00.512Z</time>
      </trkpt>
      <trkpt lat="50.61558" lon="3.54784">
        <ele>69.1</ele>
        <time>2023-05-19T12:25:06.276Z</time>
      </trkpt>
      <trkpt lat="50.61434" lon="3.54691">
        <ele>69.63</ele>
        <time>2023-05-19T12:25:12.062Z</time>
      </trkpt>
      <trkpt lat="50.61446" lon="3.54392">
        <ele>69.75</ele>
        <time>2023-05-19T12:25:17.879Z</time>
      </trkpt>
      <trkpt lat="50.61448" lon="3.54377">
        <ele>69.7</ele>
        <time>2023-05-19T12:25:23.697Z</time>
      </trkpt>
      <trkpt lat="50.61319" lon="3.54267">
        <ele>69.42</ele>
        <time>2023-05-19T12:25:29.538Z</time>
      </trkpt>
      <trkpt lat="50.61305" lon="3.54248">
        <ele>69.23</ele>
        <time>2023-05-19T12:25:35.382Z</time>
      </trkpt>
      <trkpt lat="50.61196" lon="3.54068">
        <ele>67.45</ele>
        <time>2023-05-19T12:25:41.252Z</time>
      </trkpt>
      <trkpt lat="50.61196" lon="3.54069">
        <ele>67.45</ele>
        <time>2023-05-19T12:25:47.122Z</time>
      </trkpt>
      <trkpt lat="50.61196" lon="3.54069">
        <ele>67.45</ele>
        <time>2023-05-19T12:25:52.992Z</time>
      </trkpt>
      <trkpt lat="50.61196" lon="3.54068">
        <ele>67.45</ele>
        <time>2023-05-19T12:25:58.862Z</time>
      </trkpt>
      <trkpt lat="50.61196" lon="3.54068">
        <ele>67.44</ele>
        <time>2023-05-19T12:26:04.732Z</time>
      </trkpt>
      <trkpt lat="50.61196" lon="3.54068">
        <ele>67.44</ele>
        <time>2023-05-19T12:26:10.602Z</time>
      </trkpt>
      <trkpt lat="50.61191" lon="3.5406">
        <ele>67.37</ele>
        <time>2023-05-19T12:26:16.473Z</time>
      </trkpt>
      <trkpt lat="50.61191" lon="3.5406">
        <ele>67.37</ele>
        <time>2023-05-19T12:26:22.344Z</time>
      </trkpt>
      <trkpt lat="50.61191" lon="3.5406">
        <ele>67.37</ele>
        <time>2023-05-19T12:26:28.215Z</time>
      </trkpt>
      <trkpt lat="50.61191" lon="3.5406">
        <ele>67.37</ele>
        <time>2023-05-19T12:26:34.086Z</time>
      </trkpt>
      <trkpt lat="50.61188" lon="3.54055">
        <ele>67.32</ele>
        <time>2023-05-19T12:26:39.958Z</time>
      </trkpt>
      <trkpt lat="50.61093" lon="3.53899">
        <ele>67.16</ele>
        <time>2023-05-19T12:26:45.852Z</time>
      </trkpt>
      <trkpt lat="50.61093" lon="3.53899">
        <ele>67.19</ele>
        <time>2023-05-19T12:26:51.746Z</time>
      </trkpt>
      <trkpt lat="50.61063" lon="3.53851">
        <ele>67.35</ele>
        <time>2023-05-19T12:26:57.646Z</time>
      </trkpt>
      <trkpt lat="50.61055" lon="3.53843">
        <ele>67.64</ele>
        <time>2023-05-19T12:27:03.548Z</time>
      </trkpt>
      <trkpt lat="50.61046" lon="3.5384">
        <ele>68</ele>
        <time>2023-05-19T12:27:09.451Z</time>
      </trkpt>
      <trkpt lat="50.61039" lon="3.53841">
        <ele>68.39</ele>
        <time>2023-05-19T12:27:15.356Z</time>
      </trkpt>
      <trkpt lat="50.61025" lon="3.53846">
        <ele>68.79</ele>
        <time>2023-05-19T12:27:21.263Z</time>
      </trkpt>
      <trkpt lat="50.60945" lon="3.53893">
        <ele>69.23</ele>
        <time>2023-05-19T12:27:27.184Z</time>
      </trkpt>
      <trkpt lat="50.60913" lon="3.53922">
        <ele>69.57</ele>
        <time>2023-05-19T12:27:33.111Z</time>
      </trkpt>
      <trkpt lat="50.60865" lon="3.53972">
        <ele>70.11</ele>
        <time>2023-05-19T12:27:39.047Z</time>
      </trkpt>
      <trkpt lat="50.6082" lon="3.54027">
        <ele>71.02</ele>
        <time>2023-05-19T12:27:44.992Z</time>
      </trkpt>
      <trkpt lat="50.60798" lon="3.54051">
        <ele>71.73</ele>
        <time>2023-05-19T12:27:50.941Z</time>
      </trkpt>
      <trkpt lat="50.60725" lon="3.54089">
        <ele>72.29</ele>
        <time>2023-05-19T12:27:56.902Z</time>
      </trkpt>
      <trkpt lat="50.60681" lon="3.54107">
        <ele>72.96</ele>
        <time>2023-05-19T12:28:02.871Z</time>
      </trkpt>
      <trkpt lat="50.60665" lon="3.5411">
        <ele>73.47</ele>
        <time>2023-05-19T12:28:08.842Z</time>
      </trkpt>
      <trkpt lat="50.60654" lon="3.54108">
        <ele>73.9</ele>
        <time>2023-05-19T12:28:14.815Z</time>
      </trkpt>
      <trkpt lat="50.60636" lon="3.54106">
        <ele>74.28</ele>
        <time>2023-05-19T12:28:20.791Z</time>
      </trkpt>
      <trkpt lat="50.60601" lon="3.54097">
        <ele>74.58</ele>
        <time>2023-05-19T12:28:26.773Z</time>
      </trkpt>
      <trkpt lat="50.60586" lon="3.54097">
        <ele>74.98</ele>
        <time>2023-05-19T12:28:32.757Z</time>
      </trkpt>
      <trkpt lat="50.60561" lon="3.54108">
        <ele>75.5</ele>
        <time>2023-05-19T12:28:38.745Z</time>
      </trkpt>
      <trkpt lat="50.60548" lon="3.5412">
        <ele>76.04</ele>
        <time>2023-05-19T12:28:44.736Z</time>
      </trkpt>
      <trkpt lat="50.60536" lon="3.54138">
        <ele>76.59</ele>
        <time>2023-05-19T12:28:50.729Z</time>
      </trkpt>
      <trkpt lat="50.60497" lon="3.54219">
        <ele>77.23</ele>
        <time>2023-05-19T12:28:56.733Z</time>
      </trkpt>
      <trkpt lat="50.60456" lon="3.54297">
        <ele>78</ele>
        <time>2023-05-19T12:29:02.747Z</time>
      </trkpt>
      <trkpt lat="50.60441" lon="3.54303">
        <ele>78.79</ele>
        <time>2023-05-19T12:29:08.763Z</time>
      </trkpt>
      <trkpt lat="50.60435" lon="3.54303">
        <ele>79.52</ele>
        <time>2023-05-19T12:29:14.781Z</time>
      </trkpt>
      <trkpt lat="50.60411" lon="3.54293">
        <ele>80.27</ele>
        <time>2023-05-19T12:29:20.802Z</time>
      </trkpt>
      <trkpt lat="50.60399" lon="3.54294">
        <ele>81</ele>
        <time>2023-05-19T12:29:26.825Z</time>
      </trkpt>
      <trkpt lat="50.60384" lon="3.54299">
        <ele>81.72</ele>
        <time>2023-05-19T12:29:32.851Z</time>
      </trkpt>
      <trkpt lat="50.60368" lon="3.54313">
        <ele>82.29</ele>
        <time>2023-05-19T12:29:38.880Z</time>
      </trkpt>
      <trkpt lat="50.60357" lon="3.54328">
        <ele>82.69</ele>
        <time>2023-05-19T12:29:44.911Z</time>
      </trkpt>
      <trkpt lat="50.6035" lon="3.54348">
        <ele>82.87</ele>
        <time>2023-05-19T12:29:50.944Z</time>
      </trkpt>
      <trkpt lat="50.60346" lon="3.54363">
        <ele>82.87</ele>
        <time>2023-05-19T12:29:56.979Z</time>
      </trkpt>
      <trkpt lat="50.60336" lon="3.54429">
        <ele>82.64</ele>
        <time>2023-05-19T12:30:03.021Z</time>
      </trkpt>
      <trkpt lat="50.60332" lon="3.54447">
        <ele>82.28</ele>
        <time>2023-05-19T12:30:09.065Z</time>
      </trkpt>
      <trkpt lat="50.60325" lon="3.54456">
        <ele>81.7</ele>
        <time>2023-05-19T12:30:15.110Z</time>
      </trkpt>
      <trkpt lat="50.60317" lon="3.54461">
        <ele>80.95</ele>
        <time>2023-05-19T12:30:21.157Z</time>
      </trkpt>
      <trkpt lat="50.60249" lon="3.54486">
        <ele>79.98</ele>
        <time>2023-05-19T12:30:27.215Z</time>
      </trkpt>
      <trkpt lat="50.60231" lon="3.54485">
        <ele>78.89</ele>
        <time>2023-05-19T12:30:33.276Z</time>
      </trkpt>
      <trkpt lat="50.6015" lon="3.54429">
        <ele>77.24</ele>
        <time>2023-05-19T12:30:39.351Z</time>
      </trkpt>
      <trkpt lat="50.60058" lon="3.54363">
        <ele>75.86</ele>
        <time>2023-05-19T12:30:45.442Z</time>
      </trkpt>
      <trkpt lat="50.60041" lon="3.5436">
        <ele>74.53</ele>
        <time>2023-05-19T12:30:51.536Z</time>
      </trkpt>
      <trkpt lat="50.59959" lon="3.54388">
        <ele>73.18</ele>
        <time>2023-05-19T12:30:57.643Z</time>
      </trkpt>
      <trkpt lat="50.599" lon="3.5444">
        <ele>72.26</ele>
        <time>2023-05-19T12:31:03.761Z</time>
      </trkpt>
      <trkpt lat="50.59873" lon="3.5446">
        <ele>71.38</ele>
        <time>2023-05-19T12:31:09.884Z</time>
      </trkpt>
      <trkpt lat="50.59873" lon="3.5446">
        <ele>70.71</ele>
        <time>2023-05-19T12:31:16.007Z</time>
      </trkpt>
      <trkpt lat="50.59811" lon="3.5443">
        <ele>67.89</ele>
        <time>2023-05-19T12:31:22.140Z</time>
      </trkpt>
      <trkpt lat="50.59811" lon="3.5443">
        <ele>67.89</ele>
        <time>2023-05-19T12:31:28.273Z</time>
      </trkpt>
      <trkpt lat="50.59811" lon="3.5443">
        <ele>67.89</ele>
        <time>2023-05-19T12:31:34.406Z</time>
      </trkpt>
      <trkpt lat="50.59811" lon="3.5443">
        <ele>67.89</ele>
        <time>2023-05-19T12:31:40.539Z</time>
      </trkpt>
      <trkpt lat="50.5981" lon="3.5443">
        <ele>67.87</ele>
        <time>2023-05-19T12:31:46.672Z</time>
      </trkpt>
      <trkpt lat="50.5981" lon="3.5443">
        <ele>67.87</ele>
        <time>2023-05-19T12:31:52.806Z</time>
      </trkpt>
      <trkpt lat="50.59803" lon="3.54427">
        <ele>67.56</ele>
        <time>2023-05-19T12:31:58.941Z</time>
      </trkpt>
      <trkpt lat="50.59803" lon="3.54427">
        <ele>67.56</ele>
        <time>2023-05-19T12:32:05.076Z</time>
      </trkpt>
      <trkpt lat="50.59803" lon="3.54426">
        <ele>67.55</ele>
        <time>2023-05-19T12:32:11.211Z</time>
      </trkpt>
      <trkpt lat="50.59803" lon="3.54426">
        <ele>67.54</ele>
        <time>2023-05-19T12:32:17.346Z</time>
      </trkpt>
      <trkpt lat="50.59798" lon="3.54424">
        <ele>67.34</ele>
        <time>2023-05-19T12:32:23.482Z</time>
      </trkpt>
      <trkpt lat="50.59747" lon="3.54399">
        <ele>65.97</ele>
        <time>2023-05-19T12:32:29.626Z</time>
      </trkpt>
      <trkpt lat="50.59482" lon="3.5426">
        <ele>61.64</ele>
        <time>2023-05-19T12:32:35.815Z</time>
      </trkpt>
      <trkpt lat="50.59429" lon="3.54235">
        <ele>59.03</ele>
        <time>2023-05-19T12:32:42.013Z</time>
      </trkpt>
      <trkpt lat="50.59368" lon="3.54211">
        <ele>57.51</ele>
        <time>2023-05-19T12:32:48.221Z</time>
      </trkpt>
      <trkpt lat="50.59332" lon="3.54209">
        <ele>57.09</ele>
        <time>2023-05-19T12:32:54.435Z</time>
      </trkpt>
      <trkpt lat="50.59304" lon="3.5421">
        <ele>56.87</ele>
        <time>2023-05-19T12:33:00.653Z</time>
      </trkpt>
      <trkpt lat="50.59301" lon="3.5421">
        <ele>56.77</ele>
        <time>2023-05-19T12:33:06.872Z</time>
      </trkpt>
      <trkpt lat="50.59299" lon="3.54211">
        <ele>56.7</ele>
        <time>2023-05-19T12:33:13.091Z</time>
      </trkpt>
      <trkpt lat="50.59142" lon="3.5424">
        <ele>56.75</ele>
        <time>2023-05-19T12:33:19.335Z</time>
      </trkpt>
      <trkpt lat="50.5899" lon="3.54265">
        <ele>56.57</ele>
        <time>2023-05-19T12:33:25.604Z</time>
      </trkpt>
      <trkpt lat="50.58922" lon="3.54275">
        <ele>56</ele>
        <time>2023-05-19T12:33:31.884Z</time>
      </trkpt>
      <trkpt lat="50.58821" lon="3.54285">
        <ele>54.6</ele>
        <time>2023-05-19T12:33:38.180Z</time>
      </trkpt>
      <trkpt lat="50.58778" lon="3.54302">
        <ele>54.23</ele>
        <time>2023-05-19T12:33:44.483Z</time>
      </trkpt>
      <trkpt lat="50.58736" lon="3.54294">
        <ele>53.64</ele>
        <time>2023-05-19T12:33:50.793Z</time>
      </trkpt>
      <trkpt lat="50.58711" lon="3.54278">
        <ele>53.5</ele>
        <time>2023-05-19T12:33:57.107Z</time>
      </trkpt>
      <trkpt lat="50.5864" lon="3.54248">
        <ele>54.36</ele>
        <time>2023-05-19T12:34:03.433Z</time>
      </trkpt>
      <trkpt lat="50.58625" lon="3.54241">
        <ele>54.69</ele>
        <time>2023-05-19T12:34:09.761Z</time>
      </trkpt>
      <trkpt lat="50.58615" lon="3.54235">
        <ele>54.87</ele>
        <time>2023-05-19T12:34:16.091Z</time>
      </trkpt>
      <trkpt lat="50.58614" lon="3.54235">
        <ele>54.88</ele>
        <time>2023-05-19T12:34:22.421Z</time>
      </trkpt>
      <trkpt lat="50.58614" lon="3.54235">
        <ele>54.89</ele>
        <time>2023-05-19T12:34:28.751Z</time>
      </trkpt>
      <trkpt lat="50.58614" lon="3.54235">
        <ele>54.9</ele>
        <time>2023-05-19T12:34:35.081Z</time>
      </trkpt>
      <trkpt lat="50.58614" lon="3.54235">
        <ele>54.9</ele>
        <time>2023-05-19T12:34:41.411Z</time>
      </trkpt>
      <trkpt lat="50.58614" lon="3.54235">
        <ele>54.9</ele>
        <time>2023-05-19T12:34:47.741Z</time>
      </trkpt>
      <trkpt lat="50.58607" lon="3.54231">
        <ele>55.06</ele>
        <time>2023-05-19T12:34:54.072Z</time>
      </trkpt>
      <trkpt lat="50.58607" lon="3.54231">
        <ele>55.07</ele>
        <time>2023-05-19T12:35:00.403Z</time>
      </trkpt>
      <trkpt lat="50.58607" lon="3.54231">
        <ele>55.08</ele>
        <time>2023-05-19T12:35:06.734Z</time>
      </trkpt>
      <trkpt lat="50.58606" lon="3.54231">
        <ele>55.09</ele>
        <time>2023-05-19T12:35:13.065Z</time>
      </trkpt>
      <trkpt lat="50.58602" lon="3.54228">
        <ele>55.2</ele>
        <time>2023-05-19T12:35:19.397Z</time>
      </trkpt>
      <trkpt lat="50.58598" lon="3.54225">
        <ele>55.14</ele>
        <time>2023-05-19T12:35:25.730Z</time>
      </trkpt>
      <trkpt lat="50.58553" lon="3.54196">
        <ele>54.57</ele>
        <time>2023-05-19T12:35:32.071Z</time>
      </trkpt>
      <trkpt lat="50.58501" lon="3.54162">
        <ele>54.97</ele>
        <time>2023-05-19T12:35:38.421Z</time>
      </trkpt>
      <trkpt lat="50.58483" lon="3.54154">
        <ele>55.3</ele>
        <time>2023-05-19T12:35:44.774Z</time>
      </trkpt>
      <trkpt lat="50.58466" lon="3.54149">
        <ele>55.64</ele>
        <time>2023-05-19T12:35:51.130Z</time>
      </trkpt>
      <trkpt lat="50.58442" lon="3.54149">
        <ele>55.97</ele>
        <time>2023-05-19T12:35:57.489Z</time>
      </trkpt>
      <trkpt lat="50.58379" lon="3.5417">
        <ele>55.91</ele>
        <time>2023-05-19T12:36:03.859Z</time>
      </trkpt>
      <trkpt lat="50.58328" lon="3.54173">
        <ele>55.98</ele>
        <time>2023-05-19T12:36:10.237Z</time>
      </trkpt>
      <trkpt lat="50.58325" lon="3.54143">
        <ele>56.33</ele>
        <time>2023-05-19T12:36:16.618Z</time>
      </trkpt>
      <trkpt lat="50.58321" lon="3.54047">
        <ele>56.8</ele>
        <time>2023-05-19T12:36:23.009Z</time>
      </trkpt>
      <trkpt lat="50.58319" lon="3.54022">
        <ele>56.98</ele>
        <time>2023-05-19T12:36:29.402Z</time>
      </trkpt>
      <trkpt lat="50.58299" lon="3.53928">
        <ele>57.19</ele>
        <time>2023-05-19T12:36:35.805Z</time>
      </trkpt>
      <trkpt lat="50.58275" lon="3.53799">
        <ele>57.26</ele>
        <time>2023-05-19T12:36:42.222Z</time>
      </trkpt>
      <trkpt lat="50.58269" lon="3.53758">
        <ele>57.58</ele>
        <time>2023-05-19T12:36:48.644Z</time>
      </trkpt>
      <trkpt lat="50.58262" lon="3.53713">
        <ele>58.05</ele>
        <time>2023-05-19T12:36:55.070Z</time>
      </trkpt>
      <trkpt lat="50.58261" lon="3.53706">
        <ele>58.25</ele>
        <time>2023-05-19T12:37:01.497Z</time>
      </trkpt>
      <trkpt lat="50.58261" lon="3.53706">
        <ele>58.26</ele>
        <time>2023-05-19T12:37:07.924Z</time>
      </trkpt>
      <trkpt lat="50.58261" lon="3.53705">
        <ele>58.27</ele>
        <time>2023-05-19T12:37:14.351Z</time>
      </trkpt>
      <trkpt lat="50.58261" lon="3.53705">
        <ele>58.28</ele>
        <time>2023-05-19T12:37:20.778Z</time>
      </trkpt>
      <trkpt lat="50.58261" lon="3.53705">
        <ele>58.28</ele>
        <time>2023-05-19T12:37:27.205Z</time>
      </trkpt>
      <trkpt lat="50.58261" lon="3.53705">
        <ele>58.29</ele>
        <time>2023-05-19T12:37:33.632Z</time>
      </trkpt>
      <trkpt lat="50.5826" lon="3.53694">
        <ele>58.69</ele>
        <time>2023-05-19T12:37:40.060Z</time>
      </trkpt>
      <trkpt lat="50.5826" lon="3.53693">
        <ele>58.71</ele>
        <time>2023-05-19T12:37:46.488Z</time>
      </trkpt>
      <trkpt lat="50.5826" lon="3.53693">
        <ele>58.73</ele>
        <time>2023-05-19T12:37:52.916Z</time>
      </trkpt>
      <trkpt lat="50.5826" lon="3.53692">
        <ele>58.75</ele>
        <time>2023-05-19T12:37:59.344Z</time>
      </trkpt>
      <trkpt lat="50.58259" lon="3.53685">
        <ele>59.01</ele>
        <time>2023-05-19T12:38:05.773Z</time>
      </trkpt>
      <trkpt lat="50.58247" lon="3.53577">
        <ele>61.05</ele>
        <time>2023-05-19T12:38:12.213Z</time>
      </trkpt>
      <trkpt lat="50.58243" lon="3.53391">
        <ele>62.36</ele>
        <time>2023-05-19T12:38:18.672Z</time>
      </trkpt>
      <trkpt lat="50.58243" lon="3.53284">
        <ele>65.87</ele>
        <time>2023-05-19T12:38:25.142Z</time>
      </trkpt>
      <trkpt lat="50.58243" lon="3.53284">
        <ele>65.91</ele>
        <time>2023-05-19T12:38:31.612Z</time>
      </trkpt>
      <trkpt lat="50.5825" lon="3.53259">
        <ele>68.21</ele>
        <time>2023-05-19T12:38:38.085Z</time>
      </trkpt>
      <trkpt lat="50.58258" lon="3.53197">
        <ele>69.18</ele>
        <time>2023-05-19T12:38:44.564Z</time>
      </trkpt>
      <trkpt lat="50.58277" lon="3.53081">
        <ele>64.14</ele>
        <time>2023-05-19T12:38:51.056Z</time>
      </trkpt>
      <trkpt lat="50.58234" lon="3.5307">
        <ele>66.28</ele>
        <time>2023-05-19T12:38:57.555Z</time>
      </trkpt>
      <trkpt lat="50.58149" lon="3.53044">
        <ele>66.99</ele>
        <time>2023-05-19T12:39:04.067Z</time>
      </trkpt>
      <trkpt lat="50.58138" lon="3.53033">
        <ele>67.17</ele>
        <time>2023-05-19T12:39:10.582Z</time>
      </trkpt>
      <trkpt lat="50.5774" lon="3.52426">
        <ele>73.04</ele>
        <time>2023-05-19T12:39:17.186Z</time>
      </trkpt>
      <trkpt lat="50.5774" lon="3.52426">
        <ele>73.09</ele>
        <time>2023-05-19T12:39:23.790Z</time>
      </trkpt>
      <trkpt lat="50.57727" lon="3.52407">
        <ele>72.54</ele>
        <time>2023-05-19T12:39:30.396Z</time>
      </trkpt>
      <trkpt lat="50.577" lon="3.5236">
        <ele>71.22</ele>
        <time>2023-05-19T12:39:37.009Z</time>
      </trkpt>
      <trkpt lat="50.57637" lon="3.52289">
        <ele>67.86</ele>
        <time>2023-05-19T12:39:43.634Z</time>
      </trkpt>
      <trkpt lat="50.57453" lon="3.52072">
        <ele>66.45</ele>
        <time>2023-05-19T12:39:50.296Z</time>
      </trkpt>
      <trkpt lat="50.57453" lon="3.52072">
        <ele>66.45</ele>
        <time>2023-05-19T12:39:56.958Z</time>
      </trkpt>
      <trkpt lat="50.57453" lon="3.52072">
        <ele>66.45</ele>
        <time>2023-05-19T12:40:03.620Z</time>
      </trkpt>
      <trkpt lat="50.57453" lon="3.52072">
        <ele>66.45</ele>
        <time>2023-05-19T12:40:10.282Z</time>
      </trkpt>
      <trkpt lat="50.57453" lon="3.52072">
        <ele>66.44</ele>
        <time>2023-05-19T12:40:16.944Z</time>
      </trkpt>
      <trkpt lat="50.57453" lon="3.52071">
        <ele>66.44</ele>
        <time>2023-05-19T12:40:23.606Z</time>
      </trkpt>
      <trkpt lat="50.57447" lon="3.52064">
        <ele>66.41</ele>
        <time>2023-05-19T12:40:30.269Z</time>
      </trkpt>
      <trkpt lat="50.57447" lon="3.52065">
        <ele>66.41</ele>
        <time>2023-05-19T12:40:36.932Z</time>
      </trkpt>
      <trkpt lat="50.57447" lon="3.52064">
        <ele>66.41</ele>
        <time>2023-05-19T12:40:43.595Z</time>
      </trkpt>
      <trkpt lat="50.57447" lon="3.52064">
        <ele>66.41</ele>
        <time>2023-05-19T12:40:50.258Z</time>
      </trkpt>
      <trkpt lat="50.57443" lon="3.5206">
        <ele>66.39</ele>
        <time>2023-05-19T12:40:56.922Z</time>
      </trkpt>
      <trkpt lat="50.57293" lon="3.51883">
        <ele>65.23</ele>
        <time>2023-05-19T12:41:03.616Z</time>
      </trkpt>
      <trkpt lat="50.57207" lon="3.51782">
        <ele>64.38</ele>
        <time>2023-05-19T12:41:10.327Z</time>
      </trkpt>
      <trkpt lat="50.57196" lon="3.5176">
        <ele>63.73</ele>
        <time>2023-05-19T12:41:17.041Z</time>
      </trkpt>
      <trkpt lat="50.57205" lon="3.51729">
        <ele>62.93</ele>
        <time>2023-05-19T12:41:23.759Z</time>
      </trkpt>
      <trkpt lat="50.57281" lon="3.51579">
        <ele>62.54</ele>
        <time>2023-05-19T12:41:30.496Z</time>
      </trkpt>
      <trkpt lat="50.57284" lon="3.51566">
        <ele>61.91</ele>
        <time>2023-05-19T12:41:37.235Z</time>
      </trkpt>
      <trkpt lat="50.57279" lon="3.51556">
        <ele>61.09</ele>
        <time>2023-05-19T12:41:43.975Z</time>
      </trkpt>
      <trkpt lat="50.57213" lon="3.51454">
        <ele>59.73</ele>
        <time>2023-05-19T12:41:50.730Z</time>
      </trkpt>
      <trkpt lat="50.57175" lon="3.51391">
        <ele>58.12</ele>
        <time>2023-05-19T12:41:57.494Z</time>
      </trkpt>
      <trkpt lat="50.57136" lon="3.51318">
        <ele>56.51</ele>
        <time>2023-05-19T12:42:04.267Z</time>
      </trkpt>
      <trkpt lat="50.57082" lon="3.51198">
        <ele>55.45</ele>
        <time>2023-05-19T12:42:11.055Z</time>
      </trkpt>
      <trkpt lat="50.57069" lon="3.51156">
        <ele>54.77</ele>
        <time>2023-05-19T12:42:17.848Z</time>
      </trkpt>
      <trkpt lat="50.57069" lon="3.51156">
        <ele>54.28</ele>
        <time>2023-05-19T12:42:24.641Z</time>
      </trkpt>
      <trkpt lat="50.57059" lon="3.51115">
        <ele>53.95</ele>
        <time>2023-05-19T12:42:31.439Z</time>
      </trkpt>
      <trkpt lat="50.5705" lon="3.51075">
        <ele>53.93</ele>
        <time>2023-05-19T12:42:38.241Z</time>
      </trkpt>
      <trkpt lat="50.57045" lon="3.51053">
        <ele>53.83</ele>
        <time>2023-05-19T12:42:45.045Z</time>
      </trkpt>
      <trkpt lat="50.57045" lon="3.51053">
        <ele>53.83</ele>
        <time>2023-05-19T12:42:51.849Z</time>
      </trkpt>
      <trkpt lat="50.57045" lon="3.51053">
        <ele>53.83</ele>
        <time>2023-05-19T12:42:58.653Z</time>
      </trkpt>
      <trkpt lat="50.57045" lon="3.51053">
        <ele>53.83</ele>
        <time>2023-05-19T12:43:05.457Z</time>
      </trkpt>
      <trkpt lat="50.57045" lon="3.51053">
        <ele>53.82</ele>
        <time>2023-05-19T12:43:12.261Z</time>
      </trkpt>
      <trkpt lat="50.57045" lon="3.51052">
        <ele>53.82</ele>
        <time>2023-05-19T12:43:19.065Z</time>
      </trkpt>
      <trkpt lat="50.57043" lon="3.51041">
        <ele>53.78</ele>
        <time>2023-05-19T12:43:25.871Z</time>
      </trkpt>
      <trkpt lat="50.57043" lon="3.51041">
        <ele>53.78</ele>
        <time>2023-05-19T12:43:32.677Z</time>
      </trkpt>
      <trkpt lat="50.57043" lon="3.51041">
        <ele>53.78</ele>
        <time>2023-05-19T12:43:39.483Z</time>
      </trkpt>
      <trkpt lat="50.57043" lon="3.5104">
        <ele>53.78</ele>
        <time>2023-05-19T12:43:46.289Z</time>
      </trkpt>
      <trkpt lat="50.57041" lon="3.51033">
        <ele>53.75</ele>
        <time>2023-05-19T12:43:53.096Z</time>
      </trkpt>
      <trkpt lat="50.57041" lon="3.51033">
        <ele>55.35</ele>
        <time>2023-05-19T12:43:59.903Z</time>
      </trkpt>
      <trkpt lat="50.57039" lon="3.51022">
        <ele>55.54</ele>
        <time>2023-05-19T12:44:06.711Z</time>
      </trkpt>
      <trkpt lat="50.57033" lon="3.50972">
        <ele>55.64</ele>
        <time>2023-05-19T12:44:13.524Z</time>
      </trkpt>
      <trkpt lat="50.57028" lon="3.50919">
        <ele>56.06</ele>
        <time>2023-05-19T12:44:20.342Z</time>
      </trkpt>
      <trkpt lat="50.57018" lon="3.50895">
        <ele>56.28</ele>
        <time>2023-05-19T12:44:27.163Z</time>
      </trkpt>
      <trkpt lat="50.57006" lon="3.50892">
        <ele>56.4</ele>
        <time>2023-05-19T12:44:33.986Z</time>
      </trkpt>
      <trkpt lat="50.56989" lon="3.50887">
        <ele>56.47</ele>
        <time>2023-05-19T12:44:40.812Z</time>
      </trkpt>
      <trkpt lat="50.56955" lon="3.50881">
        <ele>56.45</ele>
        <time>2023-05-19T12:44:47.643Z</time>
      </trkpt>
      <trkpt lat="50.569" lon="3.5086">
        <ele>56.11</ele>
        <time>2023-05-19T12:44:54.484Z</time>
      </trkpt>
      <trkpt lat="50.5689" lon="3.50852">
        <ele>55.63</ele>
        <time>2023-05-19T12:45:01.326Z</time>
      </trkpt>
      <trkpt lat="50.56881" lon="3.50837">
        <ele>54.85</ele>
        <time>2023-05-19T12:45:08.170Z</time>
      </trkpt>
      <trkpt lat="50.56886" lon="3.50698">
        <ele>54.07</ele>
        <time>2023-05-19T12:45:15.029Z</time>
      </trkpt>
      <trkpt lat="50.56893" lon="3.50501">
        <ele>52.77</ele>
        <time>2023-05-19T12:45:21.908Z</time>
      </trkpt>
      <trkpt lat="50.56897" lon="3.50369">
        <ele>51.03</ele>
        <time>2023-05-19T12:45:28.800Z</time>
      </trkpt>
      <trkpt lat="50.56867" lon="3.50147">
        <ele>49.24</ele>
        <time>2023-05-19T12:45:35.715Z</time>
      </trkpt>
      <trkpt lat="50.56859" lon="3.50045">
        <ele>47.35</ele>
        <time>2023-05-19T12:45:42.641Z</time>
      </trkpt>
      <trkpt lat="50.5685" lon="3.49946">
        <ele>45.52</ele>
        <time>2023-05-19T12:45:49.577Z</time>
      </trkpt>
      <trkpt lat="50.56844" lon="3.49892">
        <ele>43.92</ele>
        <time>2023-05-19T12:45:56.519Z</time>
      </trkpt>
      <trkpt lat="50.56776" lon="3.49917">
        <ele>42.2</ele>
        <time>2023-05-19T12:46:03.472Z</time>
      </trkpt>
      <trkpt lat="50.56741" lon="3.49936">
        <ele>41.07</ele>
        <time>2023-05-19T12:46:10.431Z</time>
      </trkpt>
      <trkpt lat="50.56657" lon="3.49993">
        <ele>40.5</ele>
        <time>2023-05-19T12:46:17.404Z</time>
      </trkpt>
      <trkpt lat="50.56547" lon="3.50081">
        <ele>40.38</ele>
        <time>2023-05-19T12:46:24.397Z</time>
      </trkpt>
      <trkpt lat="50.5653" lon="3.50101">
        <ele>40.54</ele>
        <time>2023-05-19T12:46:31.394Z</time>
      </trkpt>
      <trkpt lat="50.56518" lon="3.50134">
        <ele>41.04</ele>
        <time>2023-05-19T12:46:38.395Z</time>
      </trkpt>
      <trkpt lat="50.56509" lon="3.50186">
        <ele>41.91</ele>
        <time>2023-05-19T12:46:45.401Z</time>
      </trkpt>
      <trkpt lat="50.56505" lon="3.50247">
        <ele>42.95</ele>
        <time>2023-05-19T12:46:52.413Z</time>
      </trkpt>
      <trkpt lat="50.56504" lon="3.50273">
        <ele>44.05</ele>
        <time>2023-05-19T12:46:59.428Z</time>
      </trkpt>
      <trkpt lat="50.56496" lon="3.50334">
        <ele>45.46</ele>
        <time>2023-05-19T12:47:06.449Z</time>
      </trkpt>
      <trkpt lat="50.5649" lon="3.50369">
        <ele>46.46</ele>
        <time>2023-05-19T12:47:13.474Z</time>
      </trkpt>
      <trkpt lat="50.56424" lon="3.50493">
        <ele>47.66</ele>
        <time>2023-05-19T12:47:20.515Z</time>
      </trkpt>
      <trkpt lat="50.56423" lon="3.50495">
        <ele>47.67</ele>
        <time>2023-05-19T12:47:27.557Z</time>
      </trkpt>
      <trkpt lat="50.56423" lon="3.50495">
        <ele>47.68</ele>
        <time>2023-05-19T12:47:34.599Z</time>
      </trkpt>
      <trkpt lat="50.56423" lon="3.50495">
        <ele>47.69</ele>
        <time>2023-05-19T12:47:41.641Z</time>
      </trkpt>
      <trkpt lat="50.56423" lon="3.50495">
        <ele>47.69</ele>
        <time>2023-05-19T12:47:48.683Z</time>
      </trkpt>
      <trkpt lat="50.56423" lon="3.50495">
        <ele>47.7</ele>
        <time>2023-05-19T12:47:55.725Z</time>
      </trkpt>
      <trkpt lat="50.56423" lon="3.50495">
        <ele>47.7</ele>
        <time>2023-05-19T12:48:02.767Z</time>
      </trkpt>
      <trkpt lat="50.56418" lon="3.50505">
        <ele>47.9</ele>
        <time>2023-05-19T12:48:09.810Z</time>
      </trkpt>
      <trkpt lat="50.56418" lon="3.50505">
        <ele>47.91</ele>
        <time>2023-05-19T12:48:16.853Z</time>
      </trkpt>
      <trkpt lat="50.56418" lon="3.50505">
        <ele>47.92</ele>
        <time>2023-05-19T12:48:23.896Z</time>
      </trkpt>
      <trkpt lat="50.56418" lon="3.50506">
        <ele>47.94</ele>
        <time>2023-05-19T12:48:30.939Z</time>
      </trkpt>
      <trkpt lat="50.56415" lon="3.50512">
        <ele>48.08</ele>
        <time>2023-05-19T12:48:37.983Z</time>
      </trkpt>
      <trkpt lat="50.56321" lon="3.50696">
        <ele>47.52</ele>
        <time>2023-05-19T12:48:45.051Z</time>
      </trkpt>
      <trkpt lat="50.56301" lon="3.50747">
        <ele>47.56</ele>
        <time>2023-05-19T12:48:52.125Z</time>
      </trkpt>
      <trkpt lat="50.56272" lon="3.50886">
        <ele>48.03</ele>
        <time>2023-05-19T12:48:59.214Z</time>
      </trkpt>
      <trkpt lat="50.56238" lon="3.50964">
        <ele>47.06</ele>
        <time>2023-05-19T12:49:06.313Z</time>
      </trkpt>
      <trkpt lat="50.56214" lon="3.50999">
        <ele>46.32</ele>
        <time>2023-05-19T12:49:13.417Z</time>
      </trkpt>
      <trkpt lat="50.56152" lon="3.51083">
        <ele>45.3</ele>
        <time>2023-05-19T12:49:20.534Z</time>
      </trkpt>
      <trkpt lat="50.56116" lon="3.51113">
        <ele>44.87</ele>
        <time>2023-05-19T12:49:27.657Z</time>
      </trkpt>
      <trkpt lat="50.56116" lon="3.51113">
        <ele>44.9</ele>
        <time>2023-05-19T12:49:34.780Z</time>
      </trkpt>
      <trkpt lat="50.56112" lon="3.51114">
        <ele>45.29</ele>
        <time>2023-05-19T12:49:41.904Z</time>
      </trkpt>
      <trkpt lat="50.5601" lon="3.51144">
        <ele>45.89</ele>
        <time>2023-05-19T12:49:49.045Z</time>
      </trkpt>
      <trkpt lat="50.55985" lon="3.51149">
        <ele>46.94</ele>
        <time>2023-05-19T12:49:56.190Z</time>
      </trkpt>
      <trkpt lat="50.55931" lon="3.51162">
        <ele>48.45</ele>
        <time>2023-05-19T12:50:03.344Z</time>
      </trkpt>
      <trkpt lat="50.55745" lon="3.51206">
        <ele>50.96</ele>
        <time>2023-05-19T12:50:10.528Z</time>
      </trkpt>
      <trkpt lat="50.55669" lon="3.51223">
        <ele>52.64</ele>
        <time>2023-05-19T12:50:17.724Z</time>
      </trkpt>
      <trkpt lat="50.55611" lon="3.51238">
        <ele>54.67</ele>
        <time>2023-05-19T12:50:24.929Z</time>
      </trkpt>
      <trkpt lat="50.55588" lon="3.51248">
        <ele>56.26</ele>
        <time>2023-05-19T12:50:32.138Z</time>
      </trkpt>
      <trkpt lat="50.55541" lon="3.51279">
        <ele>57.4</ele>
        <time>2023-05-19T12:50:39.355Z</time>
      </trkpt>
      <trkpt lat="50.55537" lon="3.51271">
        <ele>58.32</ele>
        <time>2023-05-19T12:50:46.573Z</time>
      </trkpt>
      <trkpt lat="50.55531" lon="3.51267">
        <ele>59</ele>
        <time>2023-05-19T12:50:53.792Z</time>
      </trkpt>
      <trkpt lat="50.55525" lon="3.51271">
        <ele>59.48</ele>
        <time>2023-05-19T12:51:01.012Z</time>
      </trkpt>
      <trkpt lat="50.55521" lon="3.51278">
        <ele>59.82</ele>
        <time>2023-05-19T12:51:08.233Z</time>
      </trkpt>
      <trkpt lat="50.5552" lon="3.51285">
        <ele>60.03</ele>
        <time>2023-05-19T12:51:15.455Z</time>
      </trkpt>
      <trkpt lat="50.55518" lon="3.51293">
        <ele>60.12</ele>
        <time>2023-05-19T12:51:22.678Z</time>
      </trkpt>
      <trkpt lat="50.55508" lon="3.51313">
        <ele>60.18</ele>
        <time>2023-05-19T12:51:29.904Z</time>
      </trkpt>
      <trkpt lat="50.55464" lon="3.51357">
        <ele>60.02</ele>
        <time>2023-05-19T12:51:37.138Z</time>
      </trkpt>
      <trkpt lat="50.55448" lon="3.51368">
        <ele>59.99</ele>
        <time>2023-05-19T12:51:44.375Z</time>
      </trkpt>
      <trkpt lat="50.55416" lon="3.51399">
        <ele>59.88</ele>
        <time>2023-05-19T12:51:51.618Z</time>
      </trkpt>
      <trkpt lat="50.55404" lon="3.51408">
        <ele>59.77</ele>
        <time>2023-05-19T12:51:58.863Z</time>
      </trkpt>
      <trkpt lat="50.5539" lon="3.51416">
        <ele>59.65</ele>
        <time>2023-05-19T12:52:06.110Z</time>
      </trkpt>
      <trkpt lat="50.55361" lon="3.51418">
        <ele>59.51</ele>
        <time>2023-05-19T12:52:13.362Z</time>
      </trkpt>
      <trkpt lat="50.55333" lon="3.51409">
        <ele>59.33</ele>
        <time>2023-05-19T12:52:20.618Z</time>
      </trkpt>
      <trkpt lat="50.55325" lon="3.51404">
        <ele>59.09</ele>
        <time>2023-05-19T12:52:27.876Z</time>
      </trkpt>
      <trkpt lat="50.55318" lon="3.51398">
        <ele>58.75</ele>
        <time>2023-05-19T12:52:35.135Z</time>
      </trkpt>
      <trkpt lat="50.55301" lon="3.51387">
        <ele>58.29</ele>
        <time>2023-05-19T12:52:42.397Z</time>
      </trkpt>
      <trkpt lat="50.55222" lon="3.51315">
        <ele>57.7</ele>
        <time>2023-05-19T12:52:49.674Z</time>
      </trkpt>
      <trkpt lat="50.5519" lon="3.5129">
        <ele>56.31</ele>
        <time>2023-05-19T12:52:56.956Z</time>
      </trkpt>
      <trkpt lat="50.5517" lon="3.51271">
        <ele>54.96</ele>
        <time>2023-05-19T12:53:04.242Z</time>
      </trkpt>
      <trkpt lat="50.55057" lon="3.51176">
        <ele>53.11</ele>
        <time>2023-05-19T12:53:11.549Z</time>
      </trkpt>
      <trkpt lat="50.55018" lon="3.51152">
        <ele>51.79</ele>
        <time>2023-05-19T12:53:18.862Z</time>
      </trkpt>
      <trkpt lat="50.55032" lon="3.51069">
        <ele>51.63</ele>
        <time>2023-05-19T12:53:26.184Z</time>
      </trkpt>
      <trkpt lat="50.55046" lon="3.50997">
        <ele>49.51</ele>
        <time>2023-05-19T12:53:33.514Z</time>
      </trkpt>
      <trkpt lat="50.55046" lon="3.50997">
        <ele>49.51</ele>
        <time>2023-05-19T12:53:40.844Z</time>
      </trkpt>
      <trkpt lat="50.55046" lon="3.50996">
        <ele>49.51</ele>
        <time>2023-05-19T12:53:48.174Z</time>
      </trkpt>
      <trkpt lat="50.55046" lon="3.50996">
        <ele>49.51</ele>
        <time>2023-05-19T12:53:55.504Z</time>
      </trkpt>
      <trkpt lat="50.55046" lon="3.50996">
        <ele>49.5</ele>
        <time>2023-05-19T12:54:02.834Z</time>
      </trkpt>
      <trkpt lat="50.55046" lon="3.50996">
        <ele>49.49</ele>
        <time>2023-05-19T12:54:10.164Z</time>
      </trkpt>
      <trkpt lat="50.55048" lon="3.50985">
        <ele>49.17</ele>
        <time>2023-05-19T12:54:17.495Z</time>
      </trkpt>
      <trkpt lat="50.55049" lon="3.50985">
        <ele>49.16</ele>
        <time>2023-05-19T12:54:24.826Z</time>
      </trkpt>
      <trkpt lat="50.55049" lon="3.50984">
        <ele>49.15</ele>
        <time>2023-05-19T12:54:32.157Z</time>
      </trkpt>
      <trkpt lat="50.55049" lon="3.50984">
        <ele>49.14</ele>
        <time>2023-05-19T12:54:39.488Z</time>
      </trkpt>
      <trkpt lat="50.5505" lon="3.50977">
        <ele>48.93</ele>
        <time>2023-05-19T12:54:46.820Z</time>
      </trkpt>
      <trkpt lat="50.55053" lon="3.50962">
        <ele>48.23</ele>
        <time>2023-05-19T12:54:54.154Z</time>
      </trkpt>
      <trkpt lat="50.55079" lon="3.50878">
        <ele>47</ele>
        <time>2023-05-19T12:55:01.497Z</time>
      </trkpt>
      <trkpt lat="50.55095" lon="3.50843">
        <ele>45.72</ele>
        <time>2023-05-19T12:55:08.845Z</time>
      </trkpt>
      <trkpt lat="50.5509" lon="3.50811">
        <ele>44.67</ele>
        <time>2023-05-19T12:55:16.196Z</time>
      </trkpt>
      <trkpt lat="50.55089" lon="3.5079">
        <ele>43.67</ele>
        <time>2023-05-19T12:55:23.549Z</time>
      </trkpt>
      <trkpt lat="50.55102" lon="3.50717">
        <ele>42.51</ele>
        <time>2023-05-19T12:55:30.910Z</time>
      </trkpt>
      <trkpt lat="50.55104" lon="3.50688">
        <ele>41.57</ele>
        <time>2023-05-19T12:55:38.274Z</time>
      </trkpt>
      <trkpt lat="50.55101" lon="3.50663">
        <ele>40.77</ele>
        <time>2023-05-19T12:55:45.640Z</time>
      </trkpt>
      <trkpt lat="50.55086" lon="3.50621">
        <ele>40.13</ele>
        <time>2023-05-19T12:55:53.011Z</time>
      </trkpt>
      <trkpt lat="50.55085" lon="3.50597">
        <ele>39.61</ele>
        <time>2023-05-19T12:56:00.385Z</time>
      </trkpt>
      <trkpt lat="50.55086" lon="3.50579">
        <ele>39.22</ele>
        <time>2023-05-19T12:56:07.761Z</time>
      </trkpt>
      <trkpt lat="50.55087" lon="3.50569">
        <ele>38.98</ele>
        <time>2023-05-19T12:56:15.138Z</time>
      </trkpt>
      <trkpt lat="50.55091" lon="3.50556">
        <ele>38.8</ele>
        <time>2023-05-19T12:56:22.516Z</time>
      </trkpt>
      <trkpt lat="50.55104" lon="3.50527">
        <ele>38.53</ele>
        <time>2023-05-19T12:56:29.898Z</time>
      </trkpt>
      <trkpt lat="50.5514" lon="3.50454">
        <ele>38.37</ele>
        <time>2023-05-19T12:56:37.289Z</time>
      </trkpt>
      <trkpt lat="50.55149" lon="3.50426">
        <ele>37.98</ele>
        <time>2023-05-19T12:56:44.683Z</time>
      </trkpt>
      <trkpt lat="50.55158" lon="3.50395">
        <ele>37.46</ele>
        <time>2023-05-19T12:56:52.081Z</time>
      </trkpt>
      <trkpt lat="50.55201" lon="3.50227">
        <ele>34.72</ele>
        <time>2023-05-19T12:56:59.497Z</time>
      </trkpt>
      <trkpt lat="50.55201" lon="3.50228">
        <ele>34.72</ele>
        <time>2023-05-19T12:57:06.913Z</time>
      </trkpt>
      <trkpt lat="50.55201" lon="3.50228">
        <ele>34.72</ele>
        <time>2023-05-19T12:57:14.329Z</time>
      </trkpt>
      <trkpt lat="50.55201" lon="3.50227">
        <ele>34.72</ele>
        <time>2023-05-19T12:57:21.745Z</time>
      </trkpt>
      <trkpt lat="50.55201" lon="3.50227">
        <ele>34.71</ele>
        <time>2023-05-19T12:57:29.161Z</time>
      </trkpt>
      <trkpt lat="50.55201" lon="3.50227">
        <ele>34.71</ele>
        <time>2023-05-19T12:57:36.577Z</time>
      </trkpt>
      <trkpt lat="50.55204" lon="3.50216">
        <ele>34.53</ele>
        <time>2023-05-19T12:57:43.995Z</time>
      </trkpt>
      <trkpt lat="50.55204" lon="3.50216">
        <ele>34.53</ele>
        <time>2023-05-19T12:57:51.413Z</time>
      </trkpt>
      <trkpt lat="50.55204" lon="3.50216">
        <ele>34.53</ele>
        <time>2023-05-19T12:57:58.831Z</time>
      </trkpt>
      <trkpt lat="50.55204" lon="3.50216">
        <ele>34.53</ele>
        <time>2023-05-19T12:58:06.249Z</time>
      </trkpt>
      <trkpt lat="50.55206" lon="3.5021">
        <ele>34.42</ele>
        <time>2023-05-19T12:58:13.667Z</time>
      </trkpt>
      <trkpt lat="50.55223" lon="3.50144">
        <ele>33.89</ele>
        <time>2023-05-19T12:58:21.092Z</time>
      </trkpt>
      <trkpt lat="50.55238" lon="3.5008">
        <ele>33.55</ele>
        <time>2023-05-19T12:58:28.524Z</time>
      </trkpt>
      <trkpt lat="50.5524" lon="3.50064">
        <ele>33.31</ele>
        <time>2023-05-19T12:58:35.958Z</time>
      </trkpt>
      <trkpt lat="50.55243" lon="3.50063">
        <ele>33.14</ele>
        <time>2023-05-19T12:58:43.393Z</time>
      </trkpt>
      <trkpt lat="50.55246" lon="3.50057">
        <ele>33.03</ele>
        <time>2023-05-19T12:58:50.828Z</time>
      </trkpt>
      <trkpt lat="50.55247" lon="3.50048">
        <ele>32.92</ele>
        <time>2023-05-19T12:58:58.264Z</time>
      </trkpt>
      <trkpt lat="50.55246" lon="3.50043">
        <ele>32.91</ele>
        <time>2023-05-19T12:59:05.701Z</time>
      </trkpt>
      <trkpt lat="50.55245" lon="3.5004">
        <ele>32.98</ele>
        <time>2023-05-19T12:59:13.138Z</time>
      </trkpt>
      <trkpt lat="50.5524" lon="3.50037">
        <ele>33.16</ele>
        <time>2023-05-19T12:59:20.576Z</time>
      </trkpt>
      <trkpt lat="50.55232" lon="3.50041">
        <ele>33.52</ele>
        <time>2023-05-19T12:59:28.015Z</time>
      </trkpt>
      <trkpt lat="50.55231" lon="3.50045">
        <ele>34.03</ele>
        <time>2023-05-19T12:59:35.455Z</time>
      </trkpt>
      <trkpt lat="50.55208" lon="3.50036">
        <ele>34.71</ele>
        <time>2023-05-19T12:59:42.899Z</time>
      </trkpt>
      <trkpt lat="50.55185" lon="3.50035">
        <ele>35.61</ele>
        <time>2023-05-19T12:59:50.346Z</time>
      </trkpt>
      <trkpt lat="50.55166" lon="3.50026">
        <ele>36.71</ele>
        <time>2023-05-19T12:59:57.797Z</time>
      </trkpt>
      <trkpt lat="50.55119" lon="3.49992">
        <ele>38.23</ele>
        <time>2023-05-19T13:00:05.256Z</time>
      </trkpt>
      <trkpt lat="50.55092" lon="3.49976">
        <ele>39.4</ele>
        <time>2023-05-19T13:00:12.720Z</time>
      </trkpt>
      <trkpt lat="50.55057" lon="3.49946">
        <ele>40.57</ele>
        <time>2023-05-19T13:00:20.190Z</time>
      </trkpt>
      <trkpt lat="50.5501" lon="3.49909">
        <ele>41.38</ele>
        <time>2023-05-19T13:00:27.668Z</time>
      </trkpt>
      <trkpt lat="50.54991" lon="3.49891">
        <ele>41.54</ele>
        <time>2023-05-19T13:00:35.150Z</time>
      </trkpt>
      <trkpt lat="50.54952" lon="3.49835">
        <ele>41.14</ele>
        <time>2023-05-19T13:00:42.640Z</time>
      </trkpt>
      <trkpt lat="50.54888" lon="3.49749">
        <ele>40.37</ele>
        <time>2023-05-19T13:00:50.144Z</time>
      </trkpt>
      <trkpt lat="50.54879" lon="3.49739">
        <ele>38.97</ele>
        <time>2023-05-19T13:00:57.650Z</time>
      </trkpt>
      <trkpt lat="50.54879" lon="3.49739">
        <ele>38.95</ele>
        <time>2023-05-19T13:01:05.156Z</time>
      </trkpt>
      <trkpt lat="50.54879" lon="3.49739">
        <ele>38.95</ele>
        <time>2023-05-19T13:01:12.662Z</time>
      </trkpt>
      <trkpt lat="50.54879" lon="3.49739">
        <ele>38.95</ele>
        <time>2023-05-19T13:01:20.168Z</time>
      </trkpt>
      <trkpt lat="50.54879" lon="3.49739">
        <ele>38.95</ele>
        <time>2023-05-19T13:01:27.674Z</time>
      </trkpt>
      <trkpt lat="50.54878" lon="3.49739">
        <ele>38.93</ele>
        <time>2023-05-19T13:01:35.180Z</time>
      </trkpt>
      <trkpt lat="50.54872" lon="3.49732">
        <ele>37.98</ele>
        <time>2023-05-19T13:01:42.687Z</time>
      </trkpt>
      <trkpt lat="50.54872" lon="3.49732">
        <ele>37.95</ele>
        <time>2023-05-19T13:01:50.194Z</time>
      </trkpt>
      <trkpt lat="50.54872" lon="3.49731">
        <ele>37.92</ele>
        <time>2023-05-19T13:01:57.701Z</time>
      </trkpt>
      <trkpt lat="50.54871" lon="3.49731">
        <ele>37.88</ele>
        <time>2023-05-19T13:02:05.208Z</time>
      </trkpt>
      <trkpt lat="50.54867" lon="3.49727">
        <ele>37.29</ele>
        <time>2023-05-19T13:02:12.716Z</time>
      </trkpt>
      <trkpt lat="50.54806" lon="3.49659">
        <ele>36.34</ele>
        <time>2023-05-19T13:02:20.236Z</time>
      </trkpt>
      <trkpt lat="50.54806" lon="3.49659">
        <ele>35.96</ele>
        <time>2023-05-19T13:02:27.756Z</time>
      </trkpt>
      <trkpt lat="50.5478" lon="3.49632">
        <ele>35.95</ele>
        <time>2023-05-19T13:02:35.281Z</time>
      </trkpt>
      <trkpt lat="50.54746" lon="3.4961">
        <ele>36.09</ele>
        <time>2023-05-19T13:02:42.812Z</time>
      </trkpt>
      <trkpt lat="50.54724" lon="3.49595">
        <ele>36.02</ele>
        <time>2023-05-19T13:02:50.347Z</time>
      </trkpt>
      <trkpt lat="50.54711" lon="3.49587">
        <ele>35.95</ele>
        <time>2023-05-19T13:02:57.884Z</time>
      </trkpt>
      <trkpt lat="50.547" lon="3.49583">
        <ele>35.87</ele>
        <time>2023-05-19T13:03:05.423Z</time>
      </trkpt>
      <trkpt lat="50.54682" lon="3.49581">
        <ele>35.86</ele>
        <time>2023-05-19T13:03:12.965Z</time>
      </trkpt>
      <trkpt lat="50.54656" lon="3.49585">
        <ele>35.85</ele>
        <time>2023-05-19T13:03:20.511Z</time>
      </trkpt>
      <trkpt lat="50.54648" lon="3.49595">
        <ele>35.75</ele>
        <time>2023-05-19T13:03:28.058Z</time>
      </trkpt>
      <trkpt lat="50.54606" lon="3.49568">
        <ele>35.39</ele>
        <time>2023-05-19T13:03:35.613Z</time>
      </trkpt>
      <trkpt lat="50.54596" lon="3.49565">
        <ele>35.23</ele>
        <time>2023-05-19T13:03:43.169Z</time>
      </trkpt>
      <trkpt lat="50.54584" lon="3.49565">
        <ele>35.15</ele>
        <time>2023-05-19T13:03:50.727Z</time>
      </trkpt>
      <trkpt lat="50.54581" lon="3.49558">
        <ele>35.2</ele>
        <time>2023-05-19T13:03:58.286Z</time>
      </trkpt>
      <trkpt lat="50.54575" lon="3.4955">
        <ele>35.38</ele>
        <time>2023-05-19T13:04:05.846Z</time>
      </trkpt>
      <trkpt lat="50.54557" lon="3.49524">
        <ele>35.73</ele>
        <time>2023-05-19T13:04:13.410Z</time>
      </trkpt>
      <trkpt lat="50.5455" lon="3.49514">
        <ele>36.14</ele>
        <time>2023-05-19T13:04:20.976Z</time>
      </trkpt>
      <trkpt lat="50.54543" lon="3.49499">
        <ele>36.53</ele>
        <time>2023-05-19T13:04:28.544Z</time>
      </trkpt>
      <trkpt lat="50.5454" lon="3.49483">
        <ele>36.74</ele>
        <time>2023-05-19T13:04:36.113Z</time>
      </trkpt>
      <trkpt lat="50.54539" lon="3.49468">
        <ele>36.85</ele>
        <time>2023-05-19T13:04:43.684Z</time>
      </trkpt>
      <trkpt lat="50.54543" lon="3.49447">
        <ele>36.7</ele>
        <time>2023-05-19T13:04:51.257Z</time>
      </trkpt>
      <trkpt lat="50.54548" lon="3.49433">
        <ele>36.17</ele>
        <time>2023-05-19T13:04:58.832Z</time>
      </trkpt>
      <trkpt lat="50.54594" lon="3.49289">
        <ele>33.64</ele>
        <time>2023-05-19T13:05:06.423Z</time>
      </trkpt>
      <trkpt lat="50.54594" lon="3.49289">
        <ele>33.64</ele>
        <time>2023-05-19T13:05:14.014Z</time>
      </trkpt>
      <trkpt lat="50.54594" lon="3.49289">
        <ele>33.64</ele>
        <time>2023-05-19T13:05:21.605Z</time>
      </trkpt>
      <trkpt lat="50.54594" lon="3.49289">
        <ele>33.64</ele>
        <time>2023-05-19T13:05:29.196Z</time>
      </trkpt>
      <trkpt lat="50.54594" lon="3.49289">
        <ele>33.63</ele>
        <time>2023-05-19T13:05:36.787Z</time>
      </trkpt>
      <trkpt lat="50.54594" lon="3.49289">
        <ele>33.63</ele>
        <time>2023-05-19T13:05:44.378Z</time>
      </trkpt>
      <trkpt lat="50.54597" lon="3.49278">
        <ele>33.44</ele>
        <time>2023-05-19T13:05:51.970Z</time>
      </trkpt>
      <trkpt lat="50.54597" lon="3.49278">
        <ele>33.44</ele>
        <time>2023-05-19T13:05:59.562Z</time>
      </trkpt>
      <trkpt lat="50.54597" lon="3.49278">
        <ele>33.44</ele>
        <time>2023-05-19T13:06:07.154Z</time>
      </trkpt>
      <trkpt lat="50.54597" lon="3.49278">
        <ele>33.44</ele>
        <time>2023-05-19T13:06:14.746Z</time>
      </trkpt>
      <trkpt lat="50.54599" lon="3.49272">
        <ele>33.32</ele>
        <time>2023-05-19T13:06:22.339Z</time>
      </trkpt>
      <trkpt lat="50.54616" lon="3.49218">
        <ele>33.23</ele>
        <time>2023-05-19T13:06:29.938Z</time>
      </trkpt>
      <trkpt lat="50.54635" lon="3.49172">
        <ele>33.07</ele>
        <time>2023-05-19T13:06:37.543Z</time>
      </trkpt>
      <trkpt lat="50.54645" lon="3.49112">
        <ele>32.78</ele>
        <time>2023-05-19T13:06:45.154Z</time>
      </trkpt>
      <trkpt lat="50.54677" lon="3.48985">
        <ele>32.59</ele>
        <time>2023-05-19T13:06:52.779Z</time>
      </trkpt>
      <trkpt lat="50.5471" lon="3.4886">
        <ele>32</ele>
        <time>2023-05-19T13:07:00.418Z</time>
      </trkpt>
      <trkpt lat="50.54729" lon="3.48719">
        <ele>31.22</ele>
        <time>2023-05-19T13:07:08.071Z</time>
      </trkpt>
      <trkpt lat="50.54733" lon="3.48698">
        <ele>30.67</ele>
        <time>2023-05-19T13:07:15.727Z</time>
      </trkpt>
      <trkpt lat="50.54744" lon="3.48679">
        <ele>30.08</ele>
        <time>2023-05-19T13:07:23.385Z</time>
      </trkpt>
      <trkpt lat="50.54771" lon="3.48643">
        <ele>29.48</ele>
        <time>2023-05-19T13:07:31.049Z</time>
      </trkpt>
      <trkpt lat="50.54798" lon="3.48614">
        <ele>29.16</ele>
        <time>2023-05-19T13:07:38.718Z</time>
      </trkpt>
      <trkpt lat="50.54886" lon="3.48423">
        <ele>28.63</ele>
        <time>2023-05-19T13:07:46.411Z</time>
      </trkpt>
      <trkpt lat="50.54938" lon="3.48314">
        <ele>28.39</ele>
        <time>2023-05-19T13:07:54.118Z</time>
      </trkpt>
      <trkpt lat="50.54948" lon="3.48294">
        <ele>28.12</ele>
        <time>2023-05-19T13:08:01.828Z</time>
      </trkpt>
      <trkpt lat="50.5498" lon="3.48244">
        <ele>27.96</ele>
        <time>2023-05-19T13:08:09.545Z</time>
      </trkpt>
      <trkpt lat="50.55018" lon="3.48198">
        <ele>27.63</ele>
        <time>2023-05-19T13:08:17.270Z</time>
      </trkpt>
      <trkpt lat="50.55038" lon="3.48178">
        <ele>27.43</ele>
        <time>2023-05-19T13:08:24.999Z</time>
      </trkpt>
      <trkpt lat="50.5518" lon="3.48053">
        <ele>27.28</ele>
        <time>2023-05-19T13:08:32.754Z</time>
      </trkpt>
      <trkpt lat="50.55188" lon="3.48047">
        <ele>27.13</ele>
        <time>2023-05-19T13:08:40.510Z</time>
      </trkpt>
      <trkpt lat="50.55201" lon="3.48027">
        <ele>27.01</ele>
        <time>2023-05-19T13:08:48.269Z</time>
      </trkpt>
      <trkpt lat="50.5521" lon="3.48008">
        <ele>27.08</ele>
        <time>2023-05-19T13:08:56.030Z</time>
      </trkpt>
      <trkpt lat="50.55205" lon="3.47937">
        <ele>27.15</ele>
        <time>2023-05-19T13:09:03.799Z</time>
      </trkpt>
      <trkpt lat="50.55207" lon="3.47918">
        <ele>27.17</ele>
        <time>2023-05-19T13:09:11.570Z</time>
      </trkpt>
      <trkpt lat="50.55212" lon="3.47892">
        <ele>27.47</ele>
        <time>2023-05-19T13:09:19.343Z</time>
      </trkpt>
      <trkpt lat="50.55231" lon="3.4781">
        <ele>27.6</ele>
        <time>2023-05-19T13:09:27.125Z</time>
      </trkpt>
      <trkpt lat="50.55234" lon="3.47795">
        <ele>28.17</ele>
        <time>2023-05-19T13:09:34.909Z</time>
      </trkpt>
      <trkpt lat="50.55234" lon="3.47794">
        <ele>28.19</ele>
        <time>2023-05-19T13:09:42.693Z</time>
      </trkpt>
      <trkpt lat="50.55234" lon="3.47794">
        <ele>28.19</ele>
        <time>2023-05-19T13:09:50.477Z</time>
      </trkpt>
      <trkpt lat="50.55234" lon="3.47794">
        <ele>28.2</ele>
        <time>2023-05-19T13:09:58.261Z</time>
      </trkpt>
      <trkpt lat="50.55234" lon="3.47794">
        <ele>28.21</ele>
        <time>2023-05-19T13:10:06.045Z</time>
      </trkpt>
      <trkpt lat="50.55234" lon="3.47794">
        <ele>28.21</ele>
        <time>2023-05-19T13:10:13.829Z</time>
      </trkpt>
      <trkpt lat="50.55236" lon="3.47782">
        <ele>28.69</ele>
        <time>2023-05-19T13:10:21.614Z</time>
      </trkpt>
      <trkpt lat="50.55236" lon="3.47782">
        <ele>28.71</ele>
        <time>2023-05-19T13:10:29.399Z</time>
      </trkpt>
      <trkpt lat="50.55236" lon="3.47782">
        <ele>29.58</ele>
        <time>2023-05-19T13:10:37.184Z</time>
      </trkpt>
      <trkpt lat="50.55242" lon="3.47753">
        <ele>30.88</ele>
        <time>2023-05-19T13:10:44.972Z</time>
      </trkpt>
      <trkpt lat="50.55304" lon="3.47635">
        <ele>33.66</ele>
        <time>2023-05-19T13:10:52.776Z</time>
      </trkpt>
      <trkpt lat="50.55336" lon="3.47594">
        <ele>35.64</ele>
        <time>2023-05-19T13:11:00.587Z</time>
      </trkpt>
      <trkpt lat="50.55428" lon="3.47519">
        <ele>36.77</ele>
        <time>2023-05-19T13:11:08.414Z</time>
      </trkpt>
      <trkpt lat="50.55454" lon="3.47487">
        <ele>37.44</ele>
        <time>2023-05-19T13:11:16.247Z</time>
      </trkpt>
      <trkpt lat="50.55475" lon="3.47439">
        <ele>37.49</ele>
        <time>2023-05-19T13:11:24.085Z</time>
      </trkpt>
      <trkpt lat="50.55524" lon="3.47241">
        <ele>37.42</ele>
        <time>2023-05-19T13:11:31.945Z</time>
      </trkpt>
      <trkpt lat="50.55524" lon="3.47241">
        <ele>37.42</ele>
        <time>2023-05-19T13:11:39.805Z</time>
      </trkpt>
      <trkpt lat="50.55524" lon="3.47241">
        <ele>37.42</ele>
        <time>2023-05-19T13:11:47.665Z</time>
      </trkpt>
      <trkpt lat="50.55524" lon="3.47241">
        <ele>37.42</ele>
        <time>2023-05-19T13:11:55.525Z</time>
      </trkpt>
      <trkpt lat="50.55524" lon="3.47241">
        <ele>37.42</ele>
        <time>2023-05-19T13:12:03.385Z</time>
      </trkpt>
      <trkpt lat="50.55524" lon="3.47241">
        <ele>37.42</ele>
        <time>2023-05-19T13:12:11.245Z</time>
      </trkpt>
      <trkpt lat="50.55526" lon="3.47231">
        <ele>37.42</ele>
        <time>2023-05-19T13:12:19.106Z</time>
      </trkpt>
      <trkpt lat="50.55526" lon="3.4723">
        <ele>37.34</ele>
        <time>2023-05-19T13:12:26.967Z</time>
      </trkpt>
      <trkpt lat="50.55526" lon="3.4723">
        <ele>37.32</ele>
        <time>2023-05-19T13:12:34.828Z</time>
      </trkpt>
      <trkpt lat="50.55541" lon="3.47116">
        <ele>29.43</ele>
        <time>2023-05-19T13:12:42.701Z</time>
      </trkpt>
      <trkpt lat="50.55553" lon="3.46969">
        <ele>27.41</ele>
        <time>2023-05-19T13:12:50.589Z</time>
      </trkpt>
      <trkpt lat="50.55558" lon="3.46948">
        <ele>26.33</ele>
        <time>2023-05-19T13:12:58.480Z</time>
      </trkpt>
      <trkpt lat="50.55575" lon="3.46894">
        <ele>25.6</ele>
        <time>2023-05-19T13:13:06.377Z</time>
      </trkpt>
      <trkpt lat="50.55583" lon="3.46868">
        <ele>25.19</ele>
        <time>2023-05-19T13:13:14.277Z</time>
      </trkpt>
      <trkpt lat="50.55481" lon="3.46779">
        <ele>25.1</ele>
        <time>2023-05-19T13:13:22.195Z</time>
      </trkpt>
      <trkpt lat="50.55482" lon="3.4673">
        <ele>25.14</ele>
        <time>2023-05-19T13:13:30.118Z</time>
      </trkpt>
      <trkpt lat="50.5548" lon="3.46677">
        <ele>25.55</ele>
        <time>2023-05-19T13:13:38.047Z</time>
      </trkpt>
      <trkpt lat="50.55472" lon="3.46635">
        <ele>26.12</ele>
        <time>2023-05-19T13:13:45.980Z</time>
      </trkpt>
      <trkpt lat="50.55459" lon="3.46583">
        <ele>27.14</ele>
        <time>2023-05-19T13:13:53.919Z</time>
      </trkpt>
      <trkpt lat="50.55451" lon="3.46546">
        <ele>28.22</ele>
        <time>2023-05-19T13:14:01.862Z</time>
      </trkpt>
      <trkpt lat="50.55446" lon="3.46503">
        <ele>29.41</ele>
        <time>2023-05-19T13:14:09.809Z</time>
      </trkpt>
      <trkpt lat="50.55445" lon="3.46463">
        <ele>30.68</ele>
        <time>2023-05-19T13:14:17.761Z</time>
      </trkpt>
      <trkpt lat="50.55447" lon="3.46404">
        <ele>32.3</ele>
        <time>2023-05-19T13:14:25.719Z</time>
      </trkpt>
      <trkpt lat="50.55446" lon="3.46356">
        <ele>33.9</ele>
        <time>2023-05-19T13:14:33.681Z</time>
      </trkpt>
      <trkpt lat="50.55444" lon="3.46314">
        <ele>35.47</ele>
        <time>2023-05-19T13:14:41.648Z</time>
      </trkpt>
      <trkpt lat="50.55434" lon="3.46225">
        <ele>37.18</ele>
        <time>2023-05-19T13:14:49.624Z</time>
      </trkpt>
      <trkpt lat="50.55432" lon="3.46188">
        <ele>38.1</ele>
        <time>2023-05-19T13:14:57.604Z</time>
      </trkpt>
      <trkpt lat="50.55433" lon="3.46163">
        <ele>38.45</ele>
        <time>2023-05-19T13:15:05.586Z</time>
      </trkpt>
      <trkpt lat="50.55433" lon="3.46162">
        <ele>38.46</ele>
        <time>2023-05-19T13:15:13.568Z</time>
      </trkpt>
      <trkpt lat="50.55433" lon="3.46162">
        <ele>38.46</ele>
        <time>2023-05-19T13:15:21.550Z</time>
      </trkpt>
      <trkpt lat="50.55433" lon="3.46162">
        <ele>38.47</ele>
        <time>2023-05-19T13:15:29.532Z</time>
      </trkpt>
      <trkpt lat="50.55433" lon="3.46162">
        <ele>38.48</ele>
        <time>2023-05-19T13:15:37.514Z</time>
      </trkpt>
      <trkpt lat="50.55433" lon="3.46162">
        <ele>38.48</ele>
        <time>2023-05-19T13:15:45.496Z</time>
      </trkpt>
      <trkpt lat="50.55433" lon="3.46161">
        <ele>38.51</ele>
        <time>2023-05-19T13:15:53.479Z</time>
      </trkpt>
      <trkpt lat="50.5543" lon="3.46151">
        <ele>38.81</ele>
        <time>2023-05-19T13:16:01.463Z</time>
      </trkpt>
      <trkpt lat="50.5543" lon="3.4615">
        <ele>38.83</ele>
        <time>2023-05-19T13:16:09.447Z</time>
      </trkpt>
      <trkpt lat="50.5543" lon="3.4615">
        <ele>38.14</ele>
        <time>2023-05-19T13:16:17.431Z</time>
      </trkpt>
      <trkpt lat="50.5543" lon="3.4615">
        <ele>36.45</ele>
        <time>2023-05-19T13:16:25.415Z</time>
      </trkpt>
      <trkpt lat="50.5543" lon="3.46149">
        <ele>35.3</ele>
        <time>2023-05-19T13:16:33.399Z</time>
      </trkpt>
      <trkpt lat="50.55304" lon="3.45989">
        <ele>32.77</ele>
        <time>2023-05-19T13:16:41.409Z</time>
      </trkpt>
      <trkpt lat="50.55361" lon="3.45894">
        <ele>30.31</ele>
        <time>2023-05-19T13:16:49.432Z</time>
      </trkpt>
      <trkpt lat="50.55475" lon="3.4569">
        <ele>28.16</ele>
        <time>2023-05-19T13:16:57.483Z</time>
      </trkpt>
      <trkpt lat="50.55517" lon="3.45624">
        <ele>27.13</ele>
        <time>2023-05-19T13:17:05.543Z</time>
      </trkpt>
      <trkpt lat="50.55513" lon="3.45607">
        <ele>26.42</ele>
        <time>2023-05-19T13:17:13.605Z</time>
      </trkpt>
      <trkpt lat="50.55521" lon="3.45562">
        <ele>25.66</ele>
        <time>2023-05-19T13:17:21.672Z</time>
      </trkpt>
      <trkpt lat="50.55532" lon="3.45525">
        <ele>25.01</ele>
        <time>2023-05-19T13:17:29.743Z</time>
      </trkpt>
      <trkpt lat="50.5554" lon="3.45501">
        <ele>24.36</ele>
        <time>2023-05-19T13:17:37.817Z</time>
      </trkpt>
      <trkpt lat="50.55577" lon="3.45431">
        <ele>23.72</ele>
        <time>2023-05-19T13:17:45.900Z</time>
      </trkpt>
      <trkpt lat="50.55582" lon="3.45413">
        <ele>23.27</ele>
        <time>2023-05-19T13:17:53.985Z</time>
      </trkpt>
      <trkpt lat="50.55569" lon="3.45403">
        <ele>22.81</ele>
        <time>2023-05-19T13:18:02.072Z</time>
      </trkpt>
      <trkpt lat="50.55525" lon="3.45389">
        <ele>22.37</ele>
        <time>2023-05-19T13:18:10.167Z</time>
      </trkpt>
      <trkpt lat="50.55345" lon="3.4533">
        <ele>21.88</ele>
        <time>2023-05-19T13:18:18.291Z</time>
      </trkpt>
      <trkpt lat="50.55305" lon="3.45318">
        <ele>21.52</ele>
        <time>2023-05-19T13:18:26.421Z</time>
      </trkpt>
      <trkpt lat="50.55292" lon="3.4532">
        <ele>21.6</ele>
        <time>2023-05-19T13:18:34.554Z</time>
      </trkpt>
      <trkpt lat="50.55238" lon="3.45339">
        <ele>22.1</ele>
        <time>2023-05-19T13:18:42.696Z</time>
      </trkpt>
      <trkpt lat="50.5519" lon="3.45355">
        <ele>22.43</ele>
        <time>2023-05-19T13:18:50.845Z</time>
      </trkpt>
      <trkpt lat="50.55173" lon="3.45361">
        <ele>22.24</ele>
        <time>2023-05-19T13:18:58.997Z</time>
      </trkpt>
      <trkpt lat="50.5515" lon="3.4537">
        <ele>22</ele>
        <time>2023-05-19T13:19:07.153Z</time>
      </trkpt>
      <trkpt lat="50.5515" lon="3.4537">
        <ele>22</ele>
        <time>2023-05-19T13:19:15.309Z</time>
      </trkpt>
      <trkpt lat="50.5515" lon="3.4537">
        <ele>22</ele>
        <time>2023-05-19T13:19:23.465Z</time>
      </trkpt>
      <trkpt lat="50.5515" lon="3.4537">
        <ele>22</ele>
        <time>2023-05-19T13:19:31.621Z</time>
      </trkpt>
      <trkpt lat="50.5515" lon="3.45371">
        <ele>22</ele>
        <time>2023-05-19T13:19:39.777Z</time>
      </trkpt>
      <trkpt lat="50.5515" lon="3.45371">
        <ele>21.99</ele>
        <time>2023-05-19T13:19:47.933Z</time>
      </trkpt>
      <trkpt lat="50.55142" lon="3.45373">
        <ele>21.93</ele>
        <time>2023-05-19T13:19:56.090Z</time>
      </trkpt>
      <trkpt lat="50.55142" lon="3.45374">
        <ele>21.93</ele>
        <time>2023-05-19T13:20:04.247Z</time>
      </trkpt>
      <trkpt lat="50.55119" lon="3.45383">
        <ele>22.91</ele>
        <time>2023-05-19T13:20:12.408Z</time>
      </trkpt>
      <trkpt lat="50.55042" lon="3.4541">
        <ele>23.44</ele>
        <time>2023-05-19T13:20:20.582Z</time>
      </trkpt>
      <trkpt lat="50.55032" lon="3.45412">
        <ele>23.64</ele>
        <time>2023-05-19T13:20:28.757Z</time>
      </trkpt>
      <trkpt lat="50.55027" lon="3.45413">
        <ele>23.6</ele>
        <time>2023-05-19T13:20:36.933Z</time>
      </trkpt>
      <trkpt lat="50.55017" lon="3.45412">
        <ele>23.28</ele>
        <time>2023-05-19T13:20:45.111Z</time>
      </trkpt>
      <trkpt lat="50.54997" lon="3.454">
        <ele>22.75</ele>
        <time>2023-05-19T13:20:53.292Z</time>
      </trkpt>
      <trkpt lat="50.5495" lon="3.45346">
        <ele>22.07</ele>
        <time>2023-05-19T13:21:01.482Z</time>
      </trkpt>
      <trkpt lat="50.54927" lon="3.4531">
        <ele>21.32</ele>
        <time>2023-05-19T13:21:09.678Z</time>
      </trkpt>
      <trkpt lat="50.54821" lon="3.45121">
        <ele>20.49</ele>
        <time>2023-05-19T13:21:17.899Z</time>
      </trkpt>
      <trkpt lat="50.54753" lon="3.45003">
        <ele>19.85</ele>
        <time>2023-05-19T13:21:26.137Z</time>
      </trkpt>
      <trkpt lat="50.54753" lon="3.45003">
        <ele>19.48</ele>
        <time>2023-05-19T13:21:34.375Z</time>
      </trkpt>
      <trkpt lat="50.54752" lon="3.45002">
        <ele>19.46</ele>
        <time>2023-05-19T13:21:42.613Z</time>
      </trkpt>
      <trkpt lat="50.54752" lon="3.45002">
        <ele>19.45</ele>
        <time>2023-05-19T13:21:50.851Z</time>
      </trkpt>
      <trkpt lat="50.54752" lon="3.45002">
        <ele>19.45</ele>
        <time>2023-05-19T13:21:59.089Z</time>
      </trkpt>
      <trkpt lat="50.54752" lon="3.45002">
        <ele>19.45</ele>
        <time>2023-05-19T13:22:07.327Z</time>
      </trkpt>
      <trkpt lat="50.54752" lon="3.45002">
        <ele>19.45</ele>
        <time>2023-05-19T13:22:15.565Z</time>
      </trkpt>
      <trkpt lat="50.54752" lon="3.45002">
        <ele>19.44</ele>
        <time>2023-05-19T13:22:23.803Z</time>
      </trkpt>
      <trkpt lat="50.54747" lon="3.44994">
        <ele>19.23</ele>
        <time>2023-05-19T13:22:32.042Z</time>
      </trkpt>
      <trkpt lat="50.54746" lon="3.44993">
        <ele>19.23</ele>
        <time>2023-05-19T13:22:40.281Z</time>
      </trkpt>
      <trkpt lat="50.54728" lon="3.44965">
        <ele>19.02</ele>
        <time>2023-05-19T13:22:48.524Z</time>
      </trkpt>
      <trkpt lat="50.54728" lon="3.44965">
        <ele>19.03</ele>
        <time>2023-05-19T13:22:56.767Z</time>
      </trkpt>
      <trkpt lat="50.54592" lon="3.44759">
        <ele>18.44</ele>
        <time>2023-05-19T13:23:05.040Z</time>
      </trkpt>
      <trkpt lat="50.54535" lon="3.44672">
        <ele>18.21</ele>
        <time>2023-05-19T13:23:13.326Z</time>
      </trkpt>
      <trkpt lat="50.54513" lon="3.44649">
        <ele>18.44</ele>
        <time>2023-05-19T13:23:21.616Z</time>
      </trkpt>
      <trkpt lat="50.54467" lon="3.44602">
        <ele>19.17</ele>
        <time>2023-05-19T13:23:29.915Z</time>
      </trkpt>
      <trkpt lat="50.54445" lon="3.44587">
        <ele>19.6</ele>
        <time>2023-05-19T13:23:38.218Z</time>
      </trkpt>
      <trkpt lat="50.54422" lon="3.4458">
        <ele>19.66</ele>
        <time>2023-05-19T13:23:46.525Z</time>
      </trkpt>
      <trkpt lat="50.54403" lon="3.4458">
        <ele>19.62</ele>
        <time>2023-05-19T13:23:54.835Z</time>
      </trkpt>
      <trkpt lat="50.54389" lon="3.44586">
        <ele>19.53</ele>
        <time>2023-05-19T13:24:03.147Z</time>
      </trkpt>
      <trkpt lat="50.5438" lon="3.44595">
        <ele>19.45</ele>
        <time>2023-05-19T13:24:11.461Z</time>
      </trkpt>
      <trkpt lat="50.54332" lon="3.44657">
        <ele>19.28</ele>
        <time>2023-05-19T13:24:19.785Z</time>
      </trkpt>
      <trkpt lat="50.54288" lon="3.44721">
        <ele>18.95</ele>
        <time>2023-05-19T13:24:28.118Z</time>
      </trkpt>
      <trkpt lat="50.54262" lon="3.4474">
        <ele>18.5</ele>
        <time>2023-05-19T13:24:36.456Z</time>
      </trkpt>
      <trkpt lat="50.54248" lon="3.44741">
        <ele>18.01</ele>
        <time>2023-05-19T13:24:44.796Z</time>
      </trkpt>
      <trkpt lat="50.54222" lon="3.44731">
        <ele>17.47</ele>
        <time>2023-05-19T13:24:53.141Z</time>
      </trkpt>
      <trkpt lat="50.54222" lon="3.44731">
        <ele>17.14</ele>
        <time>2023-05-19T13:25:01.486Z</time>
      </trkpt>
      <trkpt lat="50.54138" lon="3.44698">
        <ele>16.8</ele>
        <time>2023-05-19T13:25:09.844Z</time>
      </trkpt>
      <trkpt lat="50.54138" lon="3.44698">
        <ele>16.54</ele>
        <time>2023-05-19T13:25:18.202Z</time>
      </trkpt>
      <trkpt lat="50.54123" lon="3.44692">
        <ele>16.43</ele>
        <time>2023-05-19T13:25:26.563Z</time>
      </trkpt>
      <trkpt lat="50.54132" lon="3.44645">
        <ele>16</ele>
        <time>2023-05-19T13:25:34.929Z</time>
      </trkpt>
      <trkpt lat="50.54166" lon="3.44422">
        <ele>15.38</ele>
        <time>2023-05-19T13:25:43.318Z</time>
      </trkpt>
      <trkpt lat="50.54178" lon="3.44365">
        <ele>14.97</ele>
        <time>2023-05-19T13:25:51.714Z</time>
      </trkpt>
      <trkpt lat="50.54193" lon="3.443">
        <ele>14.7</ele>
        <time>2023-05-19T13:26:00.117Z</time>
      </trkpt>
      <trkpt lat="50.54178" lon="3.44295">
        <ele>14.62</ele>
        <time>2023-05-19T13:26:08.522Z</time>
      </trkpt>
      <trkpt lat="50.54204" lon="3.44126">
        <ele>13.91</ele>
        <time>2023-05-19T13:26:16.945Z</time>
      </trkpt>
      <trkpt lat="50.54204" lon="3.44126">
        <ele>13.91</ele>
        <time>2023-05-19T13:26:25.368Z</time>
      </trkpt>
      <trkpt lat="50.54204" lon="3.44126">
        <ele>13.91</ele>
        <time>2023-05-19T13:26:33.791Z</time>
      </trkpt>
      <trkpt lat="50.54204" lon="3.44126">
        <ele>13.91</ele>
        <time>2023-05-19T13:26:42.214Z</time>
      </trkpt>
      <trkpt lat="50.54204" lon="3.44126">
        <ele>13.9</ele>
        <time>2023-05-19T13:26:50.637Z</time>
      </trkpt>
      <trkpt lat="50.54204" lon="3.44126">
        <ele>13.9</ele>
        <time>2023-05-19T13:26:59.060Z</time>
      </trkpt>
      <trkpt lat="50.54205" lon="3.44114">
        <ele>13.86</ele>
        <time>2023-05-19T13:27:07.484Z</time>
      </trkpt>
      <trkpt lat="50.54205" lon="3.44114">
        <ele>13.86</ele>
        <time>2023-05-19T13:27:15.908Z</time>
      </trkpt>
      <trkpt lat="50.54205" lon="3.44114">
        <ele>14.68</ele>
        <time>2023-05-19T13:27:24.332Z</time>
      </trkpt>
      <trkpt lat="50.54205" lon="3.44114">
        <ele>14.78</ele>
        <time>2023-05-19T13:27:32.756Z</time>
      </trkpt>
      <trkpt lat="50.54225" lon="3.43988">
        <ele>16.94</ele>
        <time>2023-05-19T13:27:41.193Z</time>
      </trkpt>
      <trkpt lat="50.54225" lon="3.43988">
        <ele>17.28</ele>
        <time>2023-05-19T13:27:49.630Z</time>
      </trkpt>
      <trkpt lat="50.54286" lon="3.43627">
        <ele>16.26</ele>
        <time>2023-05-19T13:27:58.105Z</time>
      </trkpt>
      <trkpt lat="50.54304" lon="3.43511">
        <ele>16.24</ele>
        <time>2023-05-19T13:28:06.593Z</time>
      </trkpt>
      <trkpt lat="50.54304" lon="3.43511">
        <ele>16.14</ele>
        <time>2023-05-19T13:28:15.081Z</time>
      </trkpt>
      <trkpt lat="50.54376" lon="3.43061">
        <ele>16.15</ele>
        <time>2023-05-19T13:28:23.616Z</time>
      </trkpt>
      <trkpt lat="50.54381" lon="3.43059">
        <ele>16.24</ele>
        <time>2023-05-19T13:28:32.152Z</time>
      </trkpt>
      <trkpt lat="50.54384" lon="3.43056">
        <ele>16.49</ele>
        <time>2023-05-19T13:28:40.688Z</time>
      </trkpt>
      <trkpt lat="50.54386" lon="3.4305">
        <ele>16.86</ele>
        <time>2023-05-19T13:28:49.225Z</time>
      </trkpt>
      <trkpt lat="50.54384" lon="3.43042">
        <ele>17.39</ele>
        <time>2023-05-19T13:28:57.763Z</time>
      </trkpt>
      <trkpt lat="50.54379" lon="3.43038">
        <ele>18.1</ele>
        <time>2023-05-19T13:29:06.302Z</time>
      </trkpt>
      <trkpt lat="50.54414" lon="3.42831">
        <ele>19.67</ele>
        <time>2023-05-19T13:29:14.862Z</time>
      </trkpt>
      <trkpt lat="50.5442" lon="3.42792">
        <ele>20.52</ele>
        <time>2023-05-19T13:29:23.427Z</time>
      </trkpt>
      <trkpt lat="50.54439" lon="3.42734">
        <ele>21.28</ele>
        <time>2023-05-19T13:29:31.998Z</time>
      </trkpt>
      <trkpt lat="50.54416" lon="3.42728">
        <ele>21.7</ele>
        <time>2023-05-19T13:29:40.573Z</time>
      </trkpt>
      <trkpt lat="50.54325" lon="3.427">
        <ele>22.02</ele>
        <time>2023-05-19T13:29:49.163Z</time>
      </trkpt>
      <trkpt lat="50.54325" lon="3.427">
        <ele>22.1</ele>
        <time>2023-05-19T13:29:57.753Z</time>
      </trkpt>
      <trkpt lat="50.54239" lon="3.42675">
        <ele>21.89</ele>
        <time>2023-05-19T13:30:06.357Z</time>
      </trkpt>
      <trkpt lat="50.54248" lon="3.42586">
        <ele>21.59</ele>
        <time>2023-05-19T13:30:14.970Z</time>
      </trkpt>
      <trkpt lat="50.54248" lon="3.42573">
        <ele>21.29</ele>
        <time>2023-05-19T13:30:23.585Z</time>
      </trkpt>
      <trkpt lat="50.54235" lon="3.42431">
        <ele>20.82</ele>
        <time>2023-05-19T13:30:32.214Z</time>
      </trkpt>
      <trkpt lat="50.54232" lon="3.42405">
        <ele>20.32</ele>
        <time>2023-05-19T13:30:40.846Z</time>
      </trkpt>
      <trkpt lat="50.54232" lon="3.42405">
        <ele>19.95</ele>
        <time>2023-05-19T13:30:49.478Z</time>
      </trkpt>
      <trkpt lat="50.54211" lon="3.42191">
        <ele>19.38</ele>
        <time>2023-05-19T13:30:58.132Z</time>
      </trkpt>
      <trkpt lat="50.5421" lon="3.42175">
        <ele>19.48</ele>
        <time>2023-05-19T13:31:06.788Z</time>
      </trkpt>
      <trkpt lat="50.54187" lon="3.41949">
        <ele>20.06</ele>
        <time>2023-05-19T13:31:15.467Z</time>
      </trkpt>
      <trkpt lat="50.5418" lon="3.41882">
        <ele>20.23</ele>
        <time>2023-05-19T13:31:24.153Z</time>
      </trkpt>
      <trkpt lat="50.54169" lon="3.4178">
        <ele>20.87</ele>
        <time>2023-05-19T13:31:32.850Z</time>
      </trkpt>
      <trkpt lat="50.54169" lon="3.41779">
        <ele>20.88</ele>
        <time>2023-05-19T13:31:41.547Z</time>
      </trkpt>
      <trkpt lat="50.54169" lon="3.41779">
        <ele>20.89</ele>
        <time>2023-05-19T13:31:50.244Z</time>
      </trkpt>
      <trkpt lat="50.54169" lon="3.41779">
        <ele>20.9</ele>
        <time>2023-05-19T13:31:58.941Z</time>
      </trkpt>
      <trkpt lat="50.54169" lon="3.41779">
        <ele>20.9</ele>
        <time>2023-05-19T13:32:07.638Z</time>
      </trkpt>
      <trkpt lat="50.54169" lon="3.41779">
        <ele>20.9</ele>
        <time>2023-05-19T13:32:16.335Z</time>
      </trkpt>
      <trkpt lat="50.54168" lon="3.41767">
        <ele>20.99</ele>
        <time>2023-05-19T13:32:25.033Z</time>
      </trkpt>
      <trkpt lat="50.54168" lon="3.41767">
        <ele>21</ele>
        <time>2023-05-19T13:32:33.731Z</time>
      </trkpt>
      <trkpt lat="50.54158" lon="3.4168">
        <ele>21.64</ele>
        <time>2023-05-19T13:32:42.438Z</time>
      </trkpt>
      <trkpt lat="50.54152" lon="3.41643">
        <ele>21.8</ele>
        <time>2023-05-19T13:32:51.149Z</time>
      </trkpt>
      <trkpt lat="50.54141" lon="3.41601">
        <ele>21.88</ele>
        <time>2023-05-19T13:32:59.864Z</time>
      </trkpt>
      <trkpt lat="50.54066" lon="3.41387">
        <ele>22.2</ele>
        <time>2023-05-19T13:33:08.604Z</time>
      </trkpt>
      <trkpt lat="50.54054" lon="3.41353">
        <ele>22.42</ele>
        <time>2023-05-19T13:33:17.348Z</time>
      </trkpt>
      <trkpt lat="50.54048" lon="3.41329">
        <ele>22.81</ele>
        <time>2023-05-19T13:33:26.095Z</time>
      </trkpt>
      <trkpt lat="50.54044" lon="3.41311">
        <ele>23.13</ele>
        <time>2023-05-19T13:33:34.844Z</time>
      </trkpt>
      <trkpt lat="50.5403" lon="3.41105">
        <ele>23.72</ele>
        <time>2023-05-19T13:33:43.614Z</time>
      </trkpt>
      <trkpt lat="50.54024" lon="3.41041">
        <ele>24.14</ele>
        <time>2023-05-19T13:33:52.391Z</time>
      </trkpt>
      <trkpt lat="50.54018" lon="3.40995">
        <ele>24.46</ele>
        <time>2023-05-19T13:34:01.172Z</time>
      </trkpt>
      <trkpt lat="50.5397" lon="3.40683">
        <ele>25.3</ele>
        <time>2023-05-19T13:34:09.986Z</time>
      </trkpt>
      <trkpt lat="50.53943" lon="3.40587">
        <ele>25.47</ele>
        <time>2023-05-19T13:34:18.811Z</time>
      </trkpt>
      <trkpt lat="50.53934" lon="3.40545">
        <ele>25.65</ele>
        <time>2023-05-19T13:34:27.640Z</time>
      </trkpt>
      <trkpt lat="50.53913" lon="3.40421">
        <ele>25.71</ele>
        <time>2023-05-19T13:34:36.483Z</time>
      </trkpt>
      <trkpt lat="50.53909" lon="3.40413">
        <ele>25.86</ele>
        <time>2023-05-19T13:34:45.326Z</time>
      </trkpt>
      <trkpt lat="50.53907" lon="3.40407">
        <ele>26.02</ele>
        <time>2023-05-19T13:34:54.170Z</time>
      </trkpt>
      <trkpt lat="50.53916" lon="3.4037">
        <ele>26.36</ele>
        <time>2023-05-19T13:35:03.018Z</time>
      </trkpt>
      <trkpt lat="50.53927" lon="3.40308">
        <ele>26.5</ele>
        <time>2023-05-19T13:35:11.873Z</time>
      </trkpt>
      <trkpt lat="50.53938" lon="3.40241">
        <ele>26.33</ele>
        <time>2023-05-19T13:35:20.735Z</time>
      </trkpt>
      <trkpt lat="50.53952" lon="3.40212">
        <ele>26.17</ele>
        <time>2023-05-19T13:35:29.601Z</time>
      </trkpt>
      <trkpt lat="50.53964" lon="3.40194">
        <ele>25.74</ele>
        <time>2023-05-19T13:35:38.469Z</time>
      </trkpt>
      <trkpt lat="50.54061" lon="3.40057">
        <ele>25.22</ele>
        <time>2023-05-19T13:35:47.358Z</time>
      </trkpt>
      <trkpt lat="50.54093" lon="3.40011">
        <ele>24.65</ele>
        <time>2023-05-19T13:35:56.254Z</time>
      </trkpt>
      <trkpt lat="50.54122" lon="3.39978">
        <ele>24.58</ele>
        <time>2023-05-19T13:36:05.156Z</time>
      </trkpt>
      <trkpt lat="50.54277" lon="3.39927">
        <ele>24.97</ele>
        <time>2023-05-19T13:36:14.083Z</time>
      </trkpt>
      <trkpt lat="50.54321" lon="3.39905">
        <ele>24.77</ele>
        <time>2023-05-19T13:36:23.018Z</time>
      </trkpt>
      <trkpt lat="50.54358" lon="3.39879">
        <ele>24.67</ele>
        <time>2023-05-19T13:36:31.959Z</time>
      </trkpt>
      <trkpt lat="50.5443" lon="3.39822">
        <ele>24.63</ele>
        <time>2023-05-19T13:36:40.913Z</time>
      </trkpt>
      <trkpt lat="50.5443" lon="3.39822">
        <ele>24.63</ele>
        <time>2023-05-19T13:36:49.867Z</time>
      </trkpt>
      <trkpt lat="50.5443" lon="3.39822">
        <ele>24.63</ele>
        <time>2023-05-19T13:36:58.821Z</time>
      </trkpt>
      <trkpt lat="50.5443" lon="3.39822">
        <ele>24.63</ele>
        <time>2023-05-19T13:37:07.775Z</time>
      </trkpt>
      <trkpt lat="50.5443" lon="3.39822">
        <ele>24.63</ele>
        <time>2023-05-19T13:37:16.729Z</time>
      </trkpt>
      <trkpt lat="50.54431" lon="3.39822">
        <ele>24.63</ele>
        <time>2023-05-19T13:37:25.683Z</time>
      </trkpt>
      <trkpt lat="50.54438" lon="3.39817">
        <ele>24.63</ele>
        <time>2023-05-19T13:37:34.638Z</time>
      </trkpt>
      <trkpt lat="50.54438" lon="3.39816">
        <ele>24.63</ele>
        <time>2023-05-19T13:37:43.593Z</time>
      </trkpt>
      <trkpt lat="50.54438" lon="3.39816">
        <ele>24.67</ele>
        <time>2023-05-19T13:37:52.548Z</time>
      </trkpt>
      <trkpt lat="50.54501" lon="3.39767">
        <ele>25.92</ele>
        <time>2023-05-19T13:38:01.515Z</time>
      </trkpt>
      <trkpt lat="50.54501" lon="3.39767">
        <ele>26.33</ele>
        <time>2023-05-19T13:38:10.482Z</time>
      </trkpt>
      <trkpt lat="50.54556" lon="3.39723">
        <ele>27.03</ele>
        <time>2023-05-19T13:38:19.459Z</time>
      </trkpt>
      <trkpt lat="50.54585" lon="3.39696">
        <ele>27.69</ele>
        <time>2023-05-19T13:38:28.441Z</time>
      </trkpt>
      <trkpt lat="50.54611" lon="3.39661">
        <ele>28.24</ele>
        <time>2023-05-19T13:38:37.428Z</time>
      </trkpt>
      <trkpt lat="50.54629" lon="3.3963">
        <ele>28.58</ele>
        <time>2023-05-19T13:38:46.420Z</time>
      </trkpt>
      <trkpt lat="50.54635" lon="3.39618">
        <ele>28.87</ele>
        <time>2023-05-19T13:38:55.413Z</time>
      </trkpt>
      <trkpt lat="50.54649" lon="3.39583">
        <ele>29.03</ele>
        <time>2023-05-19T13:39:04.411Z</time>
      </trkpt>
      <trkpt lat="50.54662" lon="3.39539">
        <ele>29.37</ele>
        <time>2023-05-19T13:39:13.413Z</time>
      </trkpt>
      <trkpt lat="50.54673" lon="3.3948">
        <ele>29.88</ele>
        <time>2023-05-19T13:39:22.422Z</time>
      </trkpt>
      <trkpt lat="50.54681" lon="3.39443">
        <ele>30.24</ele>
        <time>2023-05-19T13:39:31.435Z</time>
      </trkpt>
      <trkpt lat="50.54686" lon="3.39417">
        <ele>30.7</ele>
        <time>2023-05-19T13:39:40.450Z</time>
      </trkpt>
      <trkpt lat="50.54695" lon="3.39387">
        <ele>31.05</ele>
        <time>2023-05-19T13:39:49.469Z</time>
      </trkpt>
      <trkpt lat="50.54711" lon="3.3935">
        <ele>31.41</ele>
        <time>2023-05-19T13:39:58.492Z</time>
      </trkpt>
      <trkpt lat="50.54721" lon="3.39322">
        <ele>31.66</ele>
        <time>2023-05-19T13:40:07.519Z</time>
      </trkpt>
      <trkpt lat="50.54749" lon="3.3921">
        <ele>31.96</ele>
        <time>2023-05-19T13:40:16.558Z</time>
      </trkpt>
      <trkpt lat="50.54755" lon="3.39185">
        <ele>32.03</ele>
        <time>2023-05-19T13:40:25.600Z</time>
      </trkpt>
      <trkpt lat="50.54769" lon="3.39062">
        <ele>32.51</ele>
        <time>2023-05-19T13:40:34.654Z</time>
      </trkpt>
      <trkpt lat="50.54774" lon="3.38926">
        <ele>32.09</ele>
        <time>2023-05-19T13:40:43.722Z</time>
      </trkpt>
      <trkpt lat="50.54777" lon="3.38912">
        <ele>31.96</ele>
        <time>2023-05-19T13:40:52.792Z</time>
      </trkpt>
      <trkpt lat="50.5478" lon="3.38893">
        <ele>31.55</ele>
        <time>2023-05-19T13:41:01.864Z</time>
      </trkpt>
      <trkpt lat="50.54798" lon="3.3874">
        <ele>31.03</ele>
        <time>2023-05-19T13:41:10.952Z</time>
      </trkpt>
      <trkpt lat="50.54798" lon="3.38741">
        <ele>31.03</ele>
        <time>2023-05-19T13:41:20.040Z</time>
      </trkpt>
      <trkpt lat="50.54798" lon="3.3874">
        <ele>31.03</ele>
        <time>2023-05-19T13:41:29.128Z</time>
      </trkpt>
      <trkpt lat="50.54798" lon="3.3874">
        <ele>31.03</ele>
        <time>2023-05-19T13:41:38.216Z</time>
      </trkpt>
      <trkpt lat="50.54798" lon="3.3874">
        <ele>31.02</ele>
        <time>2023-05-19T13:41:47.304Z</time>
      </trkpt>
      <trkpt lat="50.54798" lon="3.3874">
        <ele>31.02</ele>
        <time>2023-05-19T13:41:56.392Z</time>
      </trkpt>
      <trkpt lat="50.54799" lon="3.38728">
        <ele>30.99</ele>
        <time>2023-05-19T13:42:05.481Z</time>
      </trkpt>
      <trkpt lat="50.54799" lon="3.38728">
        <ele>30.99</ele>
        <time>2023-05-19T13:42:14.570Z</time>
      </trkpt>
      <trkpt lat="50.54799" lon="3.38728">
        <ele>29.84</ele>
        <time>2023-05-19T13:42:23.659Z</time>
      </trkpt>
      <trkpt lat="50.54799" lon="3.38728">
        <ele>29.84</ele>
        <time>2023-05-19T13:42:32.748Z</time>
      </trkpt>
      <trkpt lat="50.54799" lon="3.38728">
        <ele>29.84</ele>
        <time>2023-05-19T13:42:41.837Z</time>
      </trkpt>
      <trkpt lat="50.548" lon="3.38721">
        <ele>29.77</ele>
        <time>2023-05-19T13:42:50.927Z</time>
      </trkpt>
      <trkpt lat="50.54808" lon="3.38651">
        <ele>29.71</ele>
        <time>2023-05-19T13:43:00.024Z</time>
      </trkpt>
      <trkpt lat="50.54818" lon="3.38647">
        <ele>29.89</ele>
        <time>2023-05-19T13:43:09.123Z</time>
      </trkpt>
      <trkpt lat="50.54842" lon="3.38644">
        <ele>30.24</ele>
        <time>2023-05-19T13:43:18.225Z</time>
      </trkpt>
      <trkpt lat="50.54892" lon="3.38648">
        <ele>30.52</ele>
        <time>2023-05-19T13:43:27.335Z</time>
      </trkpt>
      <trkpt lat="50.54895" lon="3.38577">
        <ele>30.55</ele>
        <time>2023-05-19T13:43:36.453Z</time>
      </trkpt>
      <trkpt lat="50.549" lon="3.3843">
        <ele>31.08</ele>
        <time>2023-05-19T13:43:45.586Z</time>
      </trkpt>
      <trkpt lat="50.549" lon="3.3843">
        <ele>31.39</ele>
        <time>2023-05-19T13:43:54.719Z</time>
      </trkpt>
      <trkpt lat="50.54902" lon="3.38389">
        <ele>31.72</ele>
        <time>2023-05-19T13:44:03.856Z</time>
      </trkpt>
      <trkpt lat="50.54927" lon="3.38292">
        <ele>32.22</ele>
        <time>2023-05-19T13:44:13.004Z</time>
      </trkpt>
      <trkpt lat="50.54937" lon="3.38218">
        <ele>32.46</ele>
        <time>2023-05-19T13:44:22.159Z</time>
      </trkpt>
      <trkpt lat="50.54946" lon="3.38124">
        <ele>32.68</ele>
        <time>2023-05-19T13:44:31.324Z</time>
      </trkpt>
      <trkpt lat="50.54946" lon="3.38062">
        <ele>32.77</ele>
        <time>2023-05-19T13:44:40.495Z</time>
      </trkpt>
      <trkpt lat="50.54937" lon="3.38009">
        <ele>32.84</ele>
        <time>2023-05-19T13:44:49.672Z</time>
      </trkpt>
      <trkpt lat="50.54911" lon="3.37924">
        <ele>32.71</ele>
        <time>2023-05-19T13:44:58.859Z</time>
      </trkpt>
      <trkpt lat="50.54902" lon="3.37898">
        <ele>32.61</ele>
        <time>2023-05-19T13:45:08.049Z</time>
      </trkpt>
      <trkpt lat="50.54905" lon="3.37881">
        <ele>32.55</ele>
        <time>2023-05-19T13:45:17.240Z</time>
      </trkpt>
      <trkpt lat="50.54921" lon="3.37832">
        <ele>32.55</ele>
        <time>2023-05-19T13:45:26.437Z</time>
      </trkpt>
      <trkpt lat="50.54938" lon="3.37777">
        <ele>32.51</ele>
        <time>2023-05-19T13:45:35.640Z</time>
      </trkpt>
      <trkpt lat="50.5494" lon="3.37761">
        <ele>32.48</ele>
        <time>2023-05-19T13:45:44.845Z</time>
      </trkpt>
      <trkpt lat="50.54935" lon="3.37706">
        <ele>32.45</ele>
        <time>2023-05-19T13:45:54.056Z</time>
      </trkpt>
      <trkpt lat="50.54936" lon="3.3769">
        <ele>32.55</ele>
        <time>2023-05-19T13:46:03.268Z</time>
      </trkpt>
      <trkpt lat="50.54937" lon="3.37675">
        <ele>32.73</ele>
        <time>2023-05-19T13:46:12.482Z</time>
      </trkpt>
      <trkpt lat="50.54943" lon="3.37659">
        <ele>33</ele>
        <time>2023-05-19T13:46:21.698Z</time>
      </trkpt>
      <trkpt lat="50.54951" lon="3.37642">
        <ele>33.42</ele>
        <time>2023-05-19T13:46:30.916Z</time>
      </trkpt>
      <trkpt lat="50.5491" lon="3.37577">
        <ele>33.91</ele>
        <time>2023-05-19T13:46:40.143Z</time>
      </trkpt>
      <trkpt lat="50.54888" lon="3.37551">
        <ele>34.52</ele>
        <time>2023-05-19T13:46:49.375Z</time>
      </trkpt>
      <trkpt lat="50.54875" lon="3.37542">
        <ele>35.02</ele>
        <time>2023-05-19T13:46:58.609Z</time>
      </trkpt>
      <trkpt lat="50.54876" lon="3.37525">
        <ele>35.51</ele>
        <time>2023-05-19T13:47:07.845Z</time>
      </trkpt>
      <trkpt lat="50.54871" lon="3.37486">
        <ele>36</ele>
        <time>2023-05-19T13:47:17.085Z</time>
      </trkpt>
      <trkpt lat="50.54848" lon="3.37386">
        <ele>36.53</ele>
        <time>2023-05-19T13:47:26.336Z</time>
      </trkpt>
      <trkpt lat="50.54821" lon="3.37263">
        <ele>37.02</ele>
        <time>2023-05-19T13:47:35.600Z</time>
      </trkpt>
      <trkpt lat="50.54804" lon="3.37182">
        <ele>37.44</ele>
        <time>2023-05-19T13:47:44.873Z</time>
      </trkpt>
      <trkpt lat="50.54763" lon="3.37012">
        <ele>37.9</ele>
        <time>2023-05-19T13:47:54.164Z</time>
      </trkpt>
      <trkpt lat="50.54756" lon="3.36935">
        <ele>37.73</ele>
        <time>2023-05-19T13:48:03.463Z</time>
      </trkpt>
      <trkpt lat="50.54753" lon="3.36817">
        <ele>37.58</ele>
        <time>2023-05-19T13:48:12.774Z</time>
      </trkpt>
      <trkpt lat="50.54749" lon="3.36748">
        <ele>37.61</ele>
        <time>2023-05-19T13:48:22.092Z</time>
      </trkpt>
      <trkpt lat="50.54734" lon="3.36706">
        <ele>37.59</ele>
        <time>2023-05-19T13:48:31.415Z</time>
      </trkpt>
      <trkpt lat="50.54734" lon="3.36696">
        <ele>37.67</ele>
        <time>2023-05-19T13:48:40.739Z</time>
      </trkpt>
      <trkpt lat="50.54743" lon="3.36657">
        <ele>37.82</ele>
        <time>2023-05-19T13:48:50.067Z</time>
      </trkpt>
      <trkpt lat="50.54791" lon="3.365">
        <ele>38.06</ele>
        <time>2023-05-19T13:48:59.413Z</time>
      </trkpt>
      <trkpt lat="50.54791" lon="3.365">
        <ele>38.21</ele>
        <time>2023-05-19T13:49:08.759Z</time>
      </trkpt>
      <trkpt lat="50.54806" lon="3.36439">
        <ele>38.56</ele>
        <time>2023-05-19T13:49:18.112Z</time>
      </trkpt>
      <trkpt lat="50.54821" lon="3.36349">
        <ele>38.71</ele>
        <time>2023-05-19T13:49:27.474Z</time>
      </trkpt>
      <trkpt lat="50.54824" lon="3.36302">
        <ele>38.72</ele>
        <time>2023-05-19T13:49:36.841Z</time>
      </trkpt>
      <trkpt lat="50.5485" lon="3.36033">
        <ele>39.09</ele>
        <time>2023-05-19T13:49:46.236Z</time>
      </trkpt>
      <trkpt lat="50.54868" lon="3.35956">
        <ele>39.19</ele>
        <time>2023-05-19T13:49:55.639Z</time>
      </trkpt>
      <trkpt lat="50.54878" lon="3.35928">
        <ele>39.37</ele>
        <time>2023-05-19T13:50:05.046Z</time>
      </trkpt>
      <trkpt lat="50.54903" lon="3.35875">
        <ele>39.5</ele>
        <time>2023-05-19T13:50:14.459Z</time>
      </trkpt>
      <trkpt lat="50.54958" lon="3.35791">
        <ele>39.67</ele>
        <time>2023-05-19T13:50:23.885Z</time>
      </trkpt>
      <trkpt lat="50.54958" lon="3.35791">
        <ele>39.67</ele>
        <time>2023-05-19T13:50:33.311Z</time>
      </trkpt>
      <trkpt lat="50.54958" lon="3.35791">
        <ele>39.68</ele>
        <time>2023-05-19T13:50:42.737Z</time>
      </trkpt>
      <trkpt lat="50.54958" lon="3.35791">
        <ele>39.69</ele>
        <time>2023-05-19T13:50:52.163Z</time>
      </trkpt>
      <trkpt lat="50.54958" lon="3.35791">
        <ele>39.7</ele>
        <time>2023-05-19T13:51:01.589Z</time>
      </trkpt>
      <trkpt lat="50.54958" lon="3.35791">
        <ele>39.7</ele>
        <time>2023-05-19T13:51:11.015Z</time>
      </trkpt>
      <trkpt lat="50.54964" lon="3.35783">
        <ele>39.73</ele>
        <time>2023-05-19T13:51:20.442Z</time>
      </trkpt>
      <trkpt lat="50.54964" lon="3.35782">
        <ele>39.74</ele>
        <time>2023-05-19T13:51:29.869Z</time>
      </trkpt>
      <trkpt lat="50.54964" lon="3.35782">
        <ele>39.75</ele>
        <time>2023-05-19T13:51:39.296Z</time>
      </trkpt>
      <trkpt lat="50.54964" lon="3.35782">
        <ele>39.76</ele>
        <time>2023-05-19T13:51:48.723Z</time>
      </trkpt>
      <trkpt lat="50.54968" lon="3.35777">
        <ele>39.78</ele>
        <time>2023-05-19T13:51:58.151Z</time>
      </trkpt>
      <trkpt lat="50.54968" lon="3.35777">
        <ele>42.62</ele>
        <time>2023-05-19T13:52:07.579Z</time>
      </trkpt>
      <trkpt lat="50.55006" lon="3.35719">
        <ele>44.17</ele>
        <time>2023-05-19T13:52:17.015Z</time>
      </trkpt>
      <trkpt lat="50.55019" lon="3.35695">
        <ele>45.69</ele>
        <time>2023-05-19T13:52:26.454Z</time>
      </trkpt>
      <trkpt lat="50.55065" lon="3.35592">
        <ele>48.13</ele>
        <time>2023-05-19T13:52:35.906Z</time>
      </trkpt>
      <trkpt lat="50.55125" lon="3.35461">
        <ele>50.4</ele>
        <time>2023-05-19T13:52:45.375Z</time>
      </trkpt>
      <trkpt lat="50.55145" lon="3.3541">
        <ele>52.94</ele>
        <time>2023-05-19T13:52:54.850Z</time>
      </trkpt>
      <trkpt lat="50.55223" lon="3.35242">
        <ele>55.79</ele>
        <time>2023-05-19T13:53:04.346Z</time>
      </trkpt>
      <trkpt lat="50.55252" lon="3.35166">
        <ele>58.18</ele>
        <time>2023-05-19T13:53:13.851Z</time>
      </trkpt>
      <trkpt lat="50.55257" lon="3.35139">
        <ele>59.65</ele>
        <time>2023-05-19T13:53:23.359Z</time>
      </trkpt>
      <trkpt lat="50.55264" lon="3.3508">
        <ele>60.59</ele>
        <time>2023-05-19T13:53:32.873Z</time>
      </trkpt>
      <trkpt lat="50.55198" lon="3.35085">
        <ele>61.49</ele>
        <time>2023-05-19T13:53:42.398Z</time>
      </trkpt>
      <trkpt lat="50.55186" lon="3.35089">
        <ele>61.77</ele>
        <time>2023-05-19T13:53:51.925Z</time>
      </trkpt>
      <trkpt lat="50.55178" lon="3.35096">
        <ele>61.77</ele>
        <time>2023-05-19T13:54:01.453Z</time>
      </trkpt>
      <trkpt lat="50.55169" lon="3.35106">
        <ele>61.58</ele>
        <time>2023-05-19T13:54:10.983Z</time>
      </trkpt>
      <trkpt lat="50.55145" lon="3.3515">
        <ele>60.98</ele>
        <time>2023-05-19T13:54:20.519Z</time>
      </trkpt>
      <trkpt lat="50.55134" lon="3.35157">
        <ele>60.64</ele>
        <time>2023-05-19T13:54:30.057Z</time>
      </trkpt>
      <trkpt lat="50.55106" lon="3.35154">
        <ele>60.46</ele>
        <time>2023-05-19T13:54:39.599Z</time>
      </trkpt>
      <trkpt lat="50.55086" lon="3.35145">
        <ele>60.37</ele>
        <time>2023-05-19T13:54:49.144Z</time>
      </trkpt>
      <trkpt lat="50.55067" lon="3.35129">
        <ele>60.49</ele>
        <time>2023-05-19T13:54:58.693Z</time>
      </trkpt>
      <trkpt lat="50.55056" lon="3.35124">
        <ele>60.61</ele>
        <time>2023-05-19T13:55:08.244Z</time>
      </trkpt>
      <trkpt lat="50.5495" lon="3.35083">
        <ele>61.04</ele>
        <time>2023-05-19T13:55:17.812Z</time>
      </trkpt>
      <trkpt lat="50.54942" lon="3.3508">
        <ele>61.11</ele>
        <time>2023-05-19T13:55:27.382Z</time>
      </trkpt>
      <trkpt lat="50.54906" lon="3.35081">
        <ele>61.07</ele>
        <time>2023-05-19T13:55:36.957Z</time>
      </trkpt>
      <trkpt lat="50.54906" lon="3.35081">
        <ele>61</ele>
        <time>2023-05-19T13:55:46.532Z</time>
      </trkpt>
      <trkpt lat="50.54861" lon="3.35088">
        <ele>60.84</ele>
        <time>2023-05-19T13:55:56.115Z</time>
      </trkpt>
      <trkpt lat="50.54847" lon="3.35093">
        <ele>60.45</ele>
        <time>2023-05-19T13:56:05.700Z</time>
      </trkpt>
      <trkpt lat="50.54834" lon="3.35089">
        <ele>59.99</ele>
        <time>2023-05-19T13:56:15.287Z</time>
      </trkpt>
      <trkpt lat="50.54807" lon="3.35073">
        <ele>59.26</ele>
        <time>2023-05-19T13:56:24.879Z</time>
      </trkpt>
      <trkpt lat="50.54707" lon="3.35067">
        <ele>58.22</ele>
        <time>2023-05-19T13:56:34.487Z</time>
      </trkpt>
      <trkpt lat="50.54693" lon="3.35064">
        <ele>57.54</ele>
        <time>2023-05-19T13:56:44.097Z</time>
      </trkpt>
      <trkpt lat="50.5467" lon="3.3505">
        <ele>56.71</ele>
        <time>2023-05-19T13:56:53.711Z</time>
      </trkpt>
      <trkpt lat="50.54604" lon="3.34982">
        <ele>55.73</ele>
        <time>2023-05-19T13:57:03.338Z</time>
      </trkpt>
      <trkpt lat="50.5457" lon="3.34969">
        <ele>55.16</ele>
        <time>2023-05-19T13:57:12.970Z</time>
      </trkpt>
      <trkpt lat="50.54551" lon="3.34964">
        <ele>54.65</ele>
        <time>2023-05-19T13:57:22.605Z</time>
      </trkpt>
      <trkpt lat="50.54551" lon="3.34964">
        <ele>54.65</ele>
        <time>2023-05-19T13:57:32.240Z</time>
      </trkpt>
      <trkpt lat="50.54551" lon="3.34964">
        <ele>54.65</ele>
        <time>2023-05-19T13:57:41.875Z</time>
      </trkpt>
      <trkpt lat="50.54551" lon="3.34964">
        <ele>54.65</ele>
        <time>2023-05-19T13:57:51.510Z</time>
      </trkpt>
      <trkpt lat="50.54551" lon="3.34964">
        <ele>54.65</ele>
        <time>2023-05-19T13:58:01.145Z</time>
      </trkpt>
      <trkpt lat="50.54548" lon="3.34963">
        <ele>54.58</ele>
        <time>2023-05-19T13:58:10.781Z</time>
      </trkpt>
      <trkpt lat="50.54543" lon="3.34962">
        <ele>53.38</ele>
        <time>2023-05-19T13:58:20.418Z</time>
      </trkpt>
      <trkpt lat="50.54543" lon="3.34962">
        <ele>53.3</ele>
        <time>2023-05-19T13:58:30.055Z</time>
      </trkpt>
      <trkpt lat="50.54542" lon="3.34962">
        <ele>53.21</ele>
        <time>2023-05-19T13:58:39.692Z</time>
      </trkpt>
      <trkpt lat="50.54542" lon="3.34961">
        <ele>53.11</ele>
        <time>2023-05-19T13:58:49.329Z</time>
      </trkpt>
      <trkpt lat="50.54537" lon="3.3496">
        <ele>51.91</ele>
        <time>2023-05-19T13:58:58.967Z</time>
      </trkpt>
      <trkpt lat="50.54497" lon="3.34951">
        <ele>51.25</ele>
        <time>2023-05-19T13:59:08.611Z</time>
      </trkpt>
      <trkpt lat="50.5448" lon="3.3494">
        <ele>50.9</ele>
        <time>2023-05-19T13:59:18.258Z</time>
      </trkpt>
      <trkpt lat="50.54458" lon="3.34893">
        <ele>50.6</ele>
        <time>2023-05-19T13:59:27.911Z</time>
      </trkpt>
      <trkpt lat="50.54439" lon="3.34863">
        <ele>50.75</ele>
        <time>2023-05-19T13:59:37.568Z</time>
      </trkpt>
      <trkpt lat="50.54453" lon="3.34592">
        <ele>52.03</ele>
        <time>2023-05-19T13:59:47.253Z</time>
      </trkpt>
      <trkpt lat="50.54462" lon="3.34552">
        <ele>52.65</ele>
        <time>2023-05-19T13:59:56.942Z</time>
      </trkpt>
      <trkpt lat="50.54468" lon="3.34536">
        <ele>53.47</ele>
        <time>2023-05-19T14:00:06.633Z</time>
      </trkpt>
      <trkpt lat="50.54475" lon="3.34525">
        <ele>54.44</ele>
        <time>2023-05-19T14:00:16.326Z</time>
      </trkpt>
      <trkpt lat="50.54586" lon="3.3438">
        <ele>56.17</ele>
        <time>2023-05-19T14:00:26.042Z</time>
      </trkpt>
      <trkpt lat="50.54592" lon="3.34368">
        <ele>57.26</ele>
        <time>2023-05-19T14:00:35.759Z</time>
      </trkpt>
      <trkpt lat="50.54618" lon="3.3428">
        <ele>58.57</ele>
        <time>2023-05-19T14:00:45.486Z</time>
      </trkpt>
      <trkpt lat="50.54678" lon="3.34035">
        <ele>59.76</ele>
        <time>2023-05-19T14:00:55.240Z</time>
      </trkpt>
      <trkpt lat="50.54665" lon="3.34027">
        <ele>60.3</ele>
        <time>2023-05-19T14:01:04.996Z</time>
      </trkpt>
      <trkpt lat="50.5463" lon="3.34006">
        <ele>60.52</ele>
        <time>2023-05-19T14:01:14.758Z</time>
      </trkpt>
      <trkpt lat="50.54614" lon="3.33996">
        <ele>60.45</ele>
        <time>2023-05-19T14:01:24.523Z</time>
      </trkpt>
    </trkseg>
  </trk>
</gpx>